     2              OBSERVATION DATA    GPS                 RINEX VERSION / TYPE
teqc 1997Jul24 19970813                                     PGM / RUN BY / DATE
                                                            COMMENT
Original Marker Name: PEAR                                  COMMENT
Campaign Name: southern california 1988                     COMMENT
4-Character Station Name: PEAR                              COMMENT
6-Character Antenna Code: TI4100                            COMMENT
Vertical Measurement Point: PAE                             COMMENT
Vertical Offset to Rinex Ref. Point: 0.0000                 COMMENT
Radial Measurement Point: PAE                               COMMENT
Radial Offset to Rinex Ref. Point: 0.0842                   COMMENT
Antenna Height from Field Measurement: 1.6220 m             COMMENT
Original XYZ: -2464000.8073 -4649487.5652 3593889.7004      COMMENT
New XYZ position is based on association with SCEC monument COMMENT
E1F2D3B2+0011. Position of that monument is believed to be  COMMENT
valid to within 1 m horizontally; vertical accuracy         COMMENT
should be no worse than 3-times this value.                 COMMENT
                                                            COMMENT
Revised Rinex header created by UCSD GPS archive for        COMMENT
GSAC on 14-Apr-1999 (1999:104) 21:35:24 GMT                 COMMENT
For assistance contact dagnew@ucsd.edu or hjohnson@ucsd.edu COMMENT
                                                            COMMENT
PEARBLOSSOM NCMN 1983                                       MARKER NAME
JB NATIONAL GEODETIC SURVEY                                 OBSERVER / AGENCY
UN03 TI 4100 1.5                                            REC # / TYPE / VERS
UN03 TI 4100                                                ANT # / TYPE
 -2464071.0000 -4649425.0000  3593906.0000                  APPROX POSITION XYZ
        1.6198        0.0000        0.0000                  ANTENNA: DELTA H/E/N
     1     1     0                                          WAVELENGTH FACT L1/2
     4    P1    P2    L1    L2                              # / TYPES OF OBSERV
    30                                                      INTERVAL
  1988     3    22     1    41   59.000000                  TIME OF FIRST OBS
  1988     3    22     8    31   59.000000                  TIME OF LAST OBS
     0                                                      # OF SATELLITES
                                                            END OF HEADER
 88  3 22  1 41 59.0800000  0  1G 8
  23697259.936    23697264.721      246625.566 7   -856168.255 9
 88  3 22  1 42 29.0800000  0  1G 8
  23674971.910    23674974.777      129500.375 9   -947434.449 8
 88  3 22  1 42 59.0800000  0  1G 8
  23652701.056    23652705.428       12469.698 9  -1038627.092 9
 88  3 22  1 43 29.0800000  0  1G 8
  23630450.839    23630454.177     -104462.518 9  -1129743.002 8
 88  3 22  1 43 59.0800000  0  1G 8
  23608215.642    23608221.898     -221291.355 9  -1220778.286 8
 88  3 22  1 44 29.0800000  0  1G 8
  23586004.147    23586009.588     -338013.609 9  -1311730.553 8
 88  3 22  1 44 59.0800000  0  1G 8
  23563815.444    23563819.218     -454626.789 9  -1402597.884 7
 88  3 22  1 45 29.0800000  0  1G 8
  23541646.365    23541650.530     -571126.735 9  -1493376.972 9
 88  3 22  1 45 59.0800000  0  1G 8
  23519501.461    23519503.220     -687509.296 9  -1584064.564 8
 88  3 22  1 46 29.0800000  0  1G 8
  23497374.554    23497379.320     -803770.309 9  -1674657.468 9
 88  3 22  1 46 59.0800000  0  1G 8
  23475274.490    23475278.344     -919907.627 9  -1765153.957 8
 88  3 22  1 47 29.0800000  0  1G 8
  23453195.973    23453202.608    -1035917.261 9  -1855550.990 9
 88  3 22  1 47 59.0800000  0  1G 8
  23431148.567    23431153.002    -1151794.469 8  -1945844.779 9
 88  3 22  1 48 29.0800000  0  1G 8
  23409122.867    23409127.655    -1267536.829 8  -2036033.507 9
 88  3 22  1 48 59.0800000  0  1G 8
  23387124.086    23387129.447    -1383139.980 9  -2126113.760 9
 88  3 22  1 49 29.0800000  0  1G 8
  23365152.283    23365156.662    -1498599.831 7  -2216082.308 9
 88  3 22  1 49 59.0800000  0  1G 8
  23343208.336    23343211.665    -1613914.157 8  -2305937.499 8
 88  3 22  1 50 29.0800000  0  1G 8
  23321295.497    23321297.109    -1729077.629 9  -2395675.184 8
 88  3 22  1 50 59.0800000  0  1G 8
  23299409.102    23299412.536    -1844086.545 9  -2485292.422 9
 88  3 22  1 51 29.0800000  0  1G 8
  23277554.726    23277556.914    -1958938.606 9  -2574787.404 9
 88  3 22  1 51 59.0800000  0  1G 8
  23255726.181    23255731.056    -2073628.980 9  -2664156.417 9
 88  3 22  1 52 29.0800000  0  1G 8
  23233935.032    23233937.270    -2188154.559 9  -2753397.021 8
 88  3 22  1 52 59.0800000  0  1G 8
  23212172.716    23212177.471    -2302510.634 8  -2842505.561 8
 88  3 22  1 53 29.0800000  0  1G 8
  23190443.455    23190448.429    -2416694.005 9  -2931479.498 8
 88  3 22  1 53 59.0800000  0  1G 8
  23168749.599    23168752.365    -2530701.304 8  -3020316.257 8
 88  3 22  1 54 29.0800000  0  1G 8
  23147086.852    23147092.752    -2644528.880 7  -3109012.983 8
 88  3 22  1 54 59.0800000  0  1G 8
  23125465.661    23125467.612    -2758171.900 8  -3197565.893 9
 88  3 22  1 55 29.0800000  0  1G 8
  23103873.832    23103876.521    -2871626.988 8  -3285972.329 9
 88  3 22  1 55 59.0800000  0  1G 8
  23082317.992    23082323.434    -2984891.247 9  -3374230.048 8
 88  3 22  1 56 29.0800000  0  1G 8
  23060805.233    23060805.061    -3097961.067 9  -3462336.314 9
 88  3 22  1 56 59.0800000  0  1G 8
  23039325.332    23039328.643    -3210832.667 9  -3550288.139 9
 88  3 22  1 57 29.0800000  0  1G 8
  23017882.970    23017888.723    -3323501.204 9  -3638081.693 9
 88  3 22  1 57 59.0800000  0  1G 8
  22996485.257    22996487.781    -3435962.513 9  -3725713.756 8
 88  3 22  1 58 29.0800000  0  1G 8
  22975123.803    22975127.162    -3548214.126 9  -3813182.466 9
 88  3 22  1 58 59.0800000  0  1G 8
  22953801.143    22953806.180    -3660253.351 9  -3900485.656 8
 88  3 22  1 59 29.0800000  0  1G 8
  22932523.750    22932526.961    -3772075.037 9  -3987619.333 9
 88  3 22  1 59 59.0800000  0  1G 8
  22911287.198    22911290.689    -3883675.374 9  -4074580.523 8
 88  3 22  2  0 29.0800000  0  1G 8
  22890090.954    22890094.617    -3995050.834 9  -4161366.508 8
 88  3 22  2  0 59.0800000  0  1G 8
  22868942.302    22868945.440    -4106197.043 9  -4247973.863 8
 88  3 22  2  1 29.0800000  0  1G 8
  22847835.662    22847839.096    -4217109.838 8  -4334399.314 9
 88  3 22  2  1 59.0800000  0  1G 8
  22826773.013    22826776.949    -4327786.223 8  -4420640.552 8
 88  3 22  2  2 29.0800000  0  1G 8
  22805758.762    22805763.718    -4438223.779 9  -4506695.682 8
 88  3 22  2  2 59.0800000  0  1G 8
  22784789.047    22784792.588    -4548418.428 9  -4592561.549 8
 88  3 22  2  3 29.0800000  0  1G 8
  22763867.186    22763870.793    -4658364.489 8  -4678233.707 8
 88  3 22  2  3 59.0800000  0  1G 8
  22742992.867    22742995.609    -4768058.331 9  -4763709.356 8
 88  3 22  2  4 29.0800000  0  1G 8
  22722166.005    22722172.062    -4877498.273 9  -4848987.141 8
 88  3 22  2  4 59.0800000  0  1G 8
  22701390.341    22701394.066    -4986679.599 9  -4934063.406 9
 88  3 22  2  5 29.0800000  0  1G 8
  22680663.562    22680667.593    -5095598.255 9  -5018935.004 8
 88  3 22  2  5 59.0800000  0  1G 8
  22659988.211    22659993.062    -5204250.465 9  -5103598.961 9
 88  3 22  2  6 29.0800000  0  1G 8
  22639364.086    22639366.352    -5312633.223 9  -5188052.960 9
 88  3 22  2  6 59.0800000  0  1G 8
  22618791.370    22618793.913    -5420742.105 9  -5272293.571 8
 88  3 22  2  7 29.0800000  0  1G 8
  22598270.643    22598274.513    -5528573.752 9  -5356318.145 9
 88  3 22  2  7 59.0800000  0  1G 8
  22577805.404    22577809.401    -5636123.374 9  -5440122.952 9
 88  3 22  2  8 29.0800000  0  1G 8
  22557392.998    22557396.814    -5743387.900 9  -5523705.599 8
 88  3 22  2  8 59.0800000  0  1G 8
  22537036.050    22537039.431    -5850364.927 9  -5607064.237 8
 88  3 22  2  9 29.0800000  0  1G 8
  22516734.388    22516738.123    -5957050.183 9  -5690195.511 9
 88  3 22  2  9 59.0800000  0  1G 8
  22496489.319    22496493.402    -6063439.222 9  -5773095.976 9
 88  3 22  2 10 29.0800000  0  1G 8
  22476302.769    22476304.849    -6169527.051 9  -5855761.711 8
 88  3 22  2 10 59.0800000  0  1G 8
  22456171.454    22456174.974    -6275310.158 9  -5938190.011 9
 88  3 22  2 11 29.0800000  0  1G 8
  22436101.167    22436103.661    -6380786.750 9  -6020379.487 9
 88  3 22  2 11 59.0800000  0  1G 8
  22416087.645    22416090.750    -6485952.582 9  -6102326.809 8
 88  3 22  2 12 29.0800000  0  1G 8
  22396135.022    22396138.756    -6590803.812 8  -6184028.984 8
 88  3 22  2 12 59.0800000  0  1G 8
  22376243.404    22376246.299    -6695337.075 9  -6265483.377 9
 88  3 22  2 13 29.0800000  0  1G 8
  22356412.968    22356415.448    -6799548.089 9  -6346686.674 8
 88  3 22  2 13 59.0800000  0  1G 8
  22336643.073    22336646.279    -6903433.074 9  -6427635.914 9
 88  3 22  2 14 29.0800000  0  1G 8
  22316937.160    22316941.091    -7006988.042 9  -6508328.018 9
 88  3 22  2 14 59.0800000  0  1G 8
  22297294.842    22297298.557    -7110209.952 8  -6588760.582 9
 88  3 22  2 15 29.0800000  0  1G 8
  22277716.767    22277719.596    -7213095.250 9  -6668930.846 9
 88  3 22  2 15 59.0800000  0  1G 8
  22258201.796    22258206.275    -7315639.973 9  -6748835.747 9
 88  3 22  2 16 29.0800000  0  1G 8
  22238754.298    22238758.042    -7417840.327 9  -6828472.283 9
 88  3 22  2 16 59.0800000  0  1G 8
  22219373.051    22219375.202    -7519692.958 9  -6907837.895 9
 88  3 22  2 17 29.0800000  0  1G 8
  22200057.321    22200061.647    -7621193.156 9  -6986928.879 8
 88  3 22  2 17 59.0800000  0  1G 8
  22180810.504    22180813.561    -7722338.165 9  -7065743.097 9
 88  3 22  2 18 29.0800000  0  1G 8
  22161631.126    22161635.066    -7823125.208 9  -7144278.371 8
 88  3 22  2 18 59.0800000  0  1G 8
  22142521.162    22142524.330    -7923549.619 9  -7222531.078 9
 88  3 22  2 19 29.0800000  0  1G 8
  22123480.337    22123482.592    -8023607.283 8  -7300498.015 9
 88  3 22  2 19 59.0800000  0  1G 8
  22104511.652    22104513.555    -8123293.769 9  -7378175.711 8
 88  3 22  2 20 29.0800000  0  1G 8
  22085611.828    22085614.509    -8222607.235 9  -7455562.742 9
 88  3 22  2 20 59.0800000  0  1G 8
  22066785.425    22066786.407    -8321544.792 9  -7532656.853 8
 88  3 22  2 21 29.0800000  0  1G 8
  22048029.513    22048032.514    -8420102.181 9  -7609454.745 8
 88  3 22  2 21 59.0800000  0  1G 8
  22029346.917    22029350.872    -8518275.500 9  -7685953.344 9
 88  3 22  2 22 29.0800000  0  1G 8
  22010740.137    22010743.771    -8616060.338 9  -7762149.238 9
 88  3 22  2 22 59.0800000  0  1G 8
  21992207.225    21992209.218    -8713453.006 9  -7838039.539 9
 88  3 22  2 23 29.0800000  0  1G 8
  21973748.940    21973751.429    -8810451.136 9  -7913622.401 9
 88  3 22  2 23 59.0800000  0  1G 8
  21955366.289    21955369.632    -8907050.303 9  -7988894.391 9
 88  3 22  2 24 29.0800000  0  1G 8
  21937060.287    21937063.235    -9003248.073 9  -8063853.590 8
 88  3 22  2 24 59.0800000  0  1G 8
  21918830.916    21918833.964    -9099040.694 9  -8138497.096 9
 88  3 22  2 25 29.0800000  0  1G 8
  21900680.440    21900683.793    -9194423.946 9  -8212821.619 9
 88  3 22  2 25 59.0800000  0  1G 8
  21882608.227    21882611.390    -9289393.975 9  -8286824.153 8
 88  3 22  2 26 29.0800000  0  1G 8
  21864615.477    21864618.811    -9383947.750 8  -8360502.328 8
 88  3 22  2 26 59.0800000  0  1G 8
  21846701.095    21846704.361    -9478082.243 9  -8433853.798 8
 88  3 22  2 27 29.0800000  0  1G 8
  21828870.773    21828872.247    -9571793.463 9  -8506875.449 8
 88  3 22  2 27 59.0800000  0  1G 8
  21811117.874    21811120.951    -9665078.402 9  -8579564.923 8
 88  3 22  2 28 29.0800000  0  1G 8
  21793449.581    21793450.558    -9757932.062 9  -8651918.370 9
 88  3 22  2 28 59.0800000  0  1G 8
  21775862.039    21775863.589    -9850351.227 9  -8723933.204 8
 88  3 22  2 29 29.0800000  0  1G 8
  21758357.772    21758360.529    -9942333.748 9  -8795607.843 9
 88  3 22  2 29 59.0800000  0  1G 8
  21740937.666    21740940.462   -10033876.300 9  -8866939.608 9
 88  3 22  2 30 29.0800000  0  1G 8
  21723601.833    21723604.866   -10124975.332 9  -8937925.812 8
 88  3 22  2 30 59.0800000  0  1G 8
  21706351.812    21706353.629   -10215626.785 9  -9008563.227 8
 88  3 22  2 31 29.0800000  0  1G 8
  21689186.978    21689189.677   -10305826.415 9  -9078848.559 8
 88  3 22  2 31 59.0800000  0  1G 8
  21672108.871    21672111.819   -10395571.030 9  -9148779.364 9
 88  3 22  2 32 29.0800000  0  2G 8G11
  21655118.444    21655120.641   -10484858.246 9  -9218353.732 8
                  24632244.456   -18120173.436 7
 88  3 22  2 32 59.0800000  0  3G 8G 6G11
  21638214.777    21638217.794   -10573685.545 9  -9287569.750 9
  22237020.200    22237021.947   -18131923.948 9  23178912.461 9
  24610495.239    24610497.299   -18234586.038 7  23105845.712 9
 88  3 22  2 33 29.0800000  0  3G 8G 6G11
  21621400.437    21621403.483   -10662048.234 9  -9356423.710 9
  22225619.949    22225620.684   -18191834.307 9  23132228.597 9
  24588729.189    24588730.096   -18348969.599 8  23016715.890 8
 88  3 22  2 33 59.0800000  0  3G 8G 6G11
  21604675.578    21604677.603   -10749942.032 9  -9424912.322 8
  22214227.862    22214228.104   -18251699.649 9  23085580.340 9
  24566968.096    24566970.289   -18463320.886 8  22927611.112 8
 88  3 22  2 34 29.0800000  0  3G 8G 6G11
  21588038.552    21588041.060   -10837364.585 9  -9493033.708 9
  22202843.638    22202845.666   -18311520.217 9  23038966.942 8
  24545209.389    24545216.243   -18577638.345 9  22838532.719 9
 88  3 22  2 34 59.0800000  0  3G 8G 6G11
  21571492.901    21571494.912   -10924313.427 9  -9560785.993 9
  22191469.231    22191470.860   -18371296.020 9  22992388.468 9
  24523465.146    24523470.095   -18691919.808 9  22749482.363 9
 88  3 22  2 35 29.0800000  0  3G 8G 6G11
  21555037.479    21555040.525   -11010785.141 9  -9628166.469 9
  22180102.353    22180104.941   -18431025.667 9  22945845.927 8
  24501725.676    24501729.294   -18806162.046 9  22660462.597 9
 88  3 22  2 35 59.0800000  0  3G 8G 6G11
  21538674.728    21538676.562   -11096775.944 9  -9695172.219 9
  22168745.974    22168746.720   -18490708.128 9  22899340.176 8
  24479993.292    24479997.601   -18920361.642 9  22571476.044 8
 88  3 22  2 36 29.0800000  0  3G 8G 6G11
  21522403.163    21522404.856   -11182282.148 9  -9761800.368 9
  22157398.185    22157399.088   -18550341.869 9  22852872.392 9
  24458269.512    24458277.093   -19034515.057 9  22482525.440 9
 88  3 22  2 36 59.0800000  0  3G 8G 6G11
  21506224.524    21506226.578   -11267300.619 9  -9828048.447 8
  22146059.325    22146060.695   -18609926.245 9  22806443.064 9
  24436554.802    24436562.378   -19148619.969 9  22393612.659 9
 88  3 22  2 37 29.0800000  0  3G 8G 6G11
  21490139.290    21490141.101   -11351829.048 9  -9893914.668 9
  22134729.131    22134731.454   -18669461.323 9  22760052.168 9
  24414852.790    24414857.772   -19262674.144 8  22304739.430 9
 88  3 22  2 37 59.0800000  0  3G 8G 6G11
  21474146.780    21474149.035   -11435863.995 9  -9959396.382 9
  22123409.072    22123410.446   -18728945.938 9  22713700.582 9
  24393160.517    24393164.318   -19376674.255 8  22215908.296 8
 88  3 22  2 38 29.0800000  0  3G 8G 6G11
  21458251.104    21458252.868   -11519401.699 8 -10024490.627 9
  22112101.064    22112101.042   -18788378.341 9  22667389.687 8
  24371475.051    24371481.847   -19490616.722 8  22127122.082 8
 88  3 22  2 38 59.0800000  0  3G 8G 6G11
  21442449.498    21442450.846   -11602439.710 9 -10089195.490 9
  22100801.206    22100802.422   -18847758.694 9  22621119.338 9
  24349802.189    24349809.552   -19604499.665 7  22038382.230 9
 88  3 22  2 39 29.0800000  0  3G 8G 6G11
  21426744.502    21426746.479   -11684973.566 9 -10153507.514 8
  22089511.453    22089512.981   -18907084.676 9  22574891.355 9
  24328145.089    24328151.255   -19718319.047 7  21949691.956 8
 88  3 22  2 39 59.0800000  0  3G 8G 6G11
  21411134.448    21411135.877   -11767000.990 9 -10217424.912 8
  22078231.946    22078233.778   -18966356.145 9  22528705.866 9
  24306501.657    24306504.145   -19832072.424 9  21861053.140 8
 88  3 22  2 40 29.0800000  0  3G 8G 6G11
  21395621.801    21395623.730   -11848518.942 9 -10280945.324 9
  22066962.913    22066966.506   -19025572.268 9  22482563.512 9
  24284863.766    24284870.208   -19945756.873 8  21772467.922 7
 88  3 22  2 40 59.0800000  0  3G 8G 6G11
  21380207.210    21380209.507   -11929523.268 9 -10344065.500 9
  22055706.070    22055707.803   -19084731.089 9  22436465.800 9
  24263246.949    24263249.679   -20059368.691 9  21683939.361 8
 88  3 22  2 41 29.0800000  0  3G 8G 6G11
  21364890.398    21364892.539   -12010012.791 9 -10406784.534 9
  22044459.817    22044460.594   -19143833.452 9  22390412.056 9
  24241641.528    24241646.657   -20172907.010 9  21595467.976 8
 88  3 22  2 41 59.0800000  0  3G 8G 6G11
  21349672.312    21349674.570   -12089983.882 9 -10469099.596 9
  22033223.469    22033225.000   -19202877.702 9  22344403.606 9
  24220049.799    24220053.829   -20286367.786 8  21507057.101 7
 88  3 22  2 42 29.0800000  0  3G 8G 6G11
  21334553.467    21334556.299   -12169432.057 9 -10531007.203 9
  22021998.793    22022001.325   -19261861.723 9  22298442.085 9
  24198473.756    24198479.082   -20399747.150 9  21418709.630 9
 88  3 22  2 42 59.0800000  0  3G 8G 6G11
  21319536.033    21319537.047   -12248354.839 9 -10592505.393 9
  22010786.454    22010788.367   -19320784.829 9  22252528.048 9
  24176915.338    24176919.578   -20513042.546 9  21330427.585 9
 88  3 22  2 43 29.0800000  0  3G 8G 6G11
  21304616.679    21304619.104   -12326749.760 9 -10653592.275 9
  21999585.416    21999587.149   -19379646.829 9  22206661.620 9
  24155371.894    24155376.012   -20626251.737 9  21242212.739 9
 88  3 22  2 43 59.0800000  0  3G 8G 6G11
  21289800.709    21289802.156   -12404613.902 9 -10714265.558 9
  21988395.801    21988397.449   -19438446.509 9  22160843.744 9
  24133845.963    24133848.686   -20739371.773 9  21154067.360 9
 88  3 22  2 44 29.0800000  0  3G 8G 6G11
  21275085.079    21275087.128   -12481944.408 9 -10774523.019 8
  21977219.547    21977219.374   -19497182.885 9  22115075.192 9
  24112335.864    24112341.467   -20852399.563 8  21065993.869 8
 88  3 22  2 44 59.0800000  0  3G 8G 6G11
  21260470.458    21260473.055   -12558738.294 9 -10834362.351 9
  21966053.539    21966055.558   -19555854.777 9  22069356.889 9
  24090845.810    24090850.945   -20965332.375 8  20977994.372 9
 88  3 22  2 45 29.0800000  0  3G 8G 6G11
  21245960.804    21245962.372   -12634990.692 9 -10893779.729 9
  21954902.274    21954903.617   -19614459.602 9  22023690.840 9
  24069374.391    24069378.891   -21078165.722 8  20890072.419 9
 88  3 22  2 45 59.0800000  0  3G 8G 6G11
  21231554.621    21231556.021   -12710698.631 9 -10952772.855 9
  21943762.793    21943765.627   -19672996.371 9  21978077.829 9
  24047921.462    24047927.811   -21190896.372 8  20802230.464 9
 88  3 22  2 46 29.0800000  0  3G 8G 6G11
  21217251.253    21217251.924   -12785861.648 9 -11011341.367 8
  21932636.080    21932638.113   -19731466.321 9  21932516.875 9
  24026491.111    24026494.934   -21303523.893 7  20714468.871 9
 88  3 22  2 46 59.0800000  0  3G 8G 6G11
  21203052.305    21203053.303   -12860476.540 9 -11069482.798 8
  21921522.674    21921523.362   -19789868.178 9  21887008.999 9
  24005078.125    24005082.900   -21416045.149 8  20626790.118 8
 88  3 22  2 47 29.0800000  0  3G 8G 6G11
  21188958.700    21188960.439   -12934539.421 9 -11127194.077 8
  21910422.460    21910423.705   -19848199.275 9  21841556.263 9
  23983687.101    23983690.650   -21528455.693 9  20539197.583 8
 88  3 22  2 47 59.0800000  0  3G 8G 6G11
  21174970.207    21174971.965   -13008046.035 9 -11184471.882 9
  21899335.588    21899338.085   -19906457.575 9  21796160.252 9
  23962318.693    23962322.111   -21640751.755 9  20451694.220 8
 88  3 22  2 48 29.0800000  0  3G 8G 6G11
  21161088.445    21161089.388   -13080995.633 9 -11241315.660 9
  21888263.615    21888264.888   -19964643.993 9  21750820.227 9
  23940971.094    23940973.481   -21752932.755 9  20364280.542 8
 88  3 22  2 48 59.0800000  0  3G 8G 6G11
  21147313.335    21147314.787   -13153386.222 9 -11297723.845 8
  21877205.126    21877205.046   -20022757.737 9  21705536.834 8
  23919645.309    23919649.163   -21864995.831 9  20276958.755 8
 88  3 22  2 49 29.0800000  0  3G 8G 6G11
  21133644.227    21133645.743   -13225214.360 9 -11353693.766 8
  21866160.577    21866161.853   -20080796.881 9  21660311.589 9
  23898343.403    23898347.279   -21976937.045 9  20189731.941 8
 88  3 22  2 49 59.0800000  0  3G 8G 6G11
  21120083.975    21120085.666   -13296475.517 9 -11409221.876 9
  21855129.681    21855132.497   -20138758.832 9  21615146.499 9
  23877067.151    23877070.757   -22088752.319 9  20102603.217 8
 88  3 22  2 50 29.0800000  0  3G 8G 6G11
  21106631.436    21106632.994   -13367167.875 9 -11464306.768 8
  21844115.034    21844117.592   -20196643.130 9  21570041.921 9
  23855812.667    23855816.455   -22200439.192 9  20015574.570 8
 88  3 22  2 50 59.0800000  0  3G 8G 6G11
  21093287.591    21093289.120   -13437289.836 9 -11518947.200 9
  21833114.955    21833116.187   -20254449.865 9  21524997.786 9
  23834582.341    23834587.428   -22311995.931 8  19928647.356 9
 88  3 22  2 51 29.0800000  0  3G 8G 6G11
  21080053.969    21080054.969   -13506837.088 9 -11573139.798 8
  21822130.392    21822130.703   -20312176.316 9  21480016.189 8
  23813381.898    23813385.530   -22423418.327 8  19841824.775 8
 88  3 22  2 51 59.0800000  0  3G 8G 6G11
  21066928.553    21066929.644   -13575807.681 9 -11626883.057 9
  21811160.818    21811160.907   -20369821.479 9  21435097.930 8
  23792203.137    23792208.279   -22534703.617 9  19755109.088 9
 88  3 22  2 52 29.0800000  0  3G 8G 6G11
  21053913.185    21053915.177   -13644199.928 9 -11680175.656 9
  21800205.842    21800207.830   -20427385.749 9  21390242.721 9
  23771052.589    23771057.961   -22645850.448 7  19668501.288 8
 88  3 22  2 52 59.0800000  0  3G 8G 6G11
  21041009.590    21041010.681   -13712010.998 9 -11733015.386 8
  21789267.694    21789269.012   -20484867.403 9  21345451.890 9
  23749929.490    23749933.196   -22756855.419 8  19582004.042 8
 88  3 22  2 53 29.0800000  0  3G 8G 6G11
  21028216.682    21028218.331   -13779236.146 9 -11785398.572 9
  21778345.804    21778346.903   -20542263.036 9  21300728.090 9
  23728833.923    23728837.701   -22867713.268 8  19495621.399 8
 88  3 22  2 53 59.0800000  0  3G 8G 6G11
  21015536.421    21015538.890   -13845873.296 9 -11837323.568 8
  21767440.968    21767441.211   -20599571.733 9  21256072.017 8
  23707766.540    23707771.029   -22978421.458 8  19409355.364 9
 88  3 22  2 54 29.0800000  0  3G 8G 6G11
  21002967.976    21002969.209   -13911921.427 9 -11888789.591 8
  21756551.040    21756551.742   -20656794.024 9  21211483.273 9
  23686727.812    23686733.259   -23088978.868 8  19323206.858 9
 88  3 22  2 54 59.0800000  0  3G 8G 6G11
  20990511.586    20990513.651   -13977378.126 9 -11939794.751 9
  21745679.087    21745678.864   -20713928.791 9  21166962.734 8
  23665718.758    23665722.036   -23199382.591 9  19237178.081 8
 88  3 22  2 55 29.0800000  0  3G 8G 6G11
  20978168.650    20978170.217   -14042240.074 9 -11990336.461 9
  21734824.135    21734824.936   -20770973.524 9  21122512.339 9
  23644740.165    23644743.140   -23309628.821 9  19151272.027 8
 88  3 22  2 55 59.0800000  0  3G 8G 6G11
  20965939.863    20965940.790   -14106504.753 9 -12040412.771 8
  21723986.067    21723987.823   -20827927.068 9  21078132.989 9
  23623791.726    23623794.852   -23419714.629 9  19065490.947 8
 88  3 22  2 56 29.0800000  0  3G 8G 6G11
  20953824.838    20953826.287   -14170168.929 9 -12090021.165 9
  21713166.113    21713167.817   -20884787.495 9  21033826.211 8
  23602873.621    23602877.716   -23529636.210 9  18979837.869 9
 88  3 22  2 56 59.0800000  0  3G 8G 6G11
  20941824.454    20941825.932   -14233231.018 9 -12139160.398 8
  21702363.271    21702365.189   -20941554.257 9  20989592.441 9
  23581988.508    23581991.738   -23639391.745 8  18894314.173 8
 88  3 22  2 57 29.0800000  0  3G 8G 6G11
  20929940.066    20929941.805   -14295688.480 9 -12187828.493 9
  21691578.944    21691579.405   -20998225.852 9  20945432.814 9
  23561134.176    23561137.933   -23748978.143 9  18808922.241 8
 88  3 22  2 57 59.0800000  0  3G 8G 6G11
  20918168.876    20918170.720   -14357539.309 9 -12236023.886 9
  21680812.739    21680812.825   -21054800.937 9  20901348.353 9
  23540313.803    23540316.622   -23858392.313 9  18723664.548 9
 88  3 22  2 58 29.0800000  0  3G 8G 6G11
  20906515.630    20906516.590   -14418780.543 9 -12283744.275 8
  21670065.819    21670067.293   -21111277.713 9  20857340.519 9
  23519525.190    23519530.353   -23967630.908 9  18638543.678 8
 88  3 22  2 58 59.0800000  0  3G 8G 6G11
  20894977.961    20894978.451   -14479411.436 9 -12330989.079 9
  21659336.274    21659338.734   -21167656.602 9  20813408.979 9
  23498770.461    23498775.504   -24076692.707 9  18553560.569 9
 88  3 22  2 59 29.0800000  0  3G 8G 6G11
  20883557.295    20883557.484   -14539428.455 9 -12377755.537 9
  21648627.701    21648629.077   -21223934.618 9  20769556.044 9
  23478052.040    23478056.171   -24185573.133 8  18468718.784 8
 88  3 22  2 59 59.0800000  0  3G 8G 6G11
  20872253.244    20872254.788   -14598828.652 9 -12424041.360 9
  21637937.647    21637939.219   -21280109.882 9  20725783.148 8
  23457369.121    23457371.602   -24294269.195 9  18384020.672 8
 88  3 22  3  0 29.0800000  0  3G 8G 6G11
  20861067.492    20861067.614   -14657610.466 9 -12469845.324 9
  21627267.396    21627268.665   -21336181.848 9  20682090.747 9
  23436718.506    23436722.862   -24402778.363 8  18299468.173 8
 88  3 22  3  0 59.0800000  0  3G 8G 6G11
  20850000.994    20850001.335   -14715771.437 9 -12515165.526 8
  21616617.378    21616619.324   -21392148.800 9  20638480.192 9
  23416106.721    23416110.484   -24511097.886 9  18215063.469 9
 88  3 22  3  1 29.0800000  0  3G 8G 6G11
  20839051.003    20839051.989   -14773308.901 9 -12559999.858 9
  21605988.364    21605989.038   -21448008.929 9  20594952.880 9
  23395531.967    23395534.128   -24619224.186 9  18130809.312 9
 88  3 22  3  1 59.0800000  0  3G 8G 6G11
  20828220.291    20828221.372   -14830222.091 9 -12604347.744 8
  21595378.928    21595379.470   -21503762.042 9  20551508.956 9
  23374993.984    23374996.399   -24727155.847 9  18046706.792 9
 88  3 22  3  2 29.0800000  0  3G 8G 6G11
  20817508.913    20817510.552   -14886509.320 9 -12648207.890 8
  21584789.065    21584789.640   -21559407.304 9  20508149.064 9
  23354490.684    23354494.590   -24834890.060 9  17962758.147 9
 88  3 22  3  2 59.0800000  0  3G 8G 6G11
  20806917.469    20806918.326   -14942165.815 9 -12691576.536 8
  21574220.522    21574222.486   -21614940.441 9  20464876.537 9
  23334028.294    23334032.109   -24942421.436 9  17878967.580 8
 88  3 22  3  3 29.0800000  0  3G 8G 6G11
  20796448.488    20796448.624   -14997190.685 9 -12734453.006 8
  21563675.479    21563676.779   -21670361.081 9  20421691.685 9
  23313606.487    23313607.951   -25049748.056 9  17795336.528 8
 88  3 22  3  3 59.0800000  0  3G 8G 6G11
  20786096.948    20786098.358   -15051581.265 9 -12776835.235 8
  21553150.752    21553151.683   -21725667.469 9  20378595.839 9
  23293220.463    23293224.280   -25156866.787 9  17711867.483 9
 88  3 22  3  4 29.0800000  0  3G 8G 6G11
  20775868.066    20775868.383   -15105336.616 9 -12818722.470 9
  21542648.202    21542649.246   -21780859.258 9  20335589.308 9
  23272876.384    23272879.593   -25263776.131 9  17628561.581 8
 88  3 22  3  4 59.0800000  0  3G 8G 6G11
  20765759.791    20765761.898   -15158455.255 9 -12860113.565 7
  21532167.922    21532167.934   -21835935.139 9  20292673.103 9
  23252573.655    23252575.040   -25370473.149 9  17545421.144 8
 88  3 22  3  5 29.0800000  0  3G 8G 6G11
  20755772.401    20755774.998   -15210934.405 9 -12901006.358 8
  21521708.644    21521710.090   -21890892.650 9  20249849.111 9
  23232310.162    23232314.147   -25476954.015 9  17462449.113 8
 88  3 22  3  5 59.0800000  0  3G 8G 6G11
  20745907.448    20745909.593   -15262771.286 9 -12941398.670 8
  21511273.240    21511274.893   -21945729.472 9  20207119.169 8
  23212088.446    23212093.531   -25583215.084 9  17379648.359 8
 88  3 22  3  6 29.0800000  0  3G 8G 6G11
  20736166.615    20736168.135   -15313964.161 9 -12981289.190 8
  21500862.324    21500862.352   -22000444.802 9  20164483.909 8
  23191910.860    23191914.000   -25689254.017 9  17297020.708 8
 88  3 22  3  6 59.0800000  0  3G 8G 6G11
  20726548.883    20726549.020   -15364513.269 9 -13020678.043 9
  21490473.504    21490473.418   -22055038.833 9  20121943.144 9
  23171774.332    23171777.389   -25795069.800 9  17214566.925 9
 88  3 22  3  7 29.0800000  0  3G 8G 6G11
  20717052.399    20717053.422   -15414415.235 9 -13059562.654 9
  21480107.470    21480108.170   -22109508.480 9  20079499.312 9
  23151681.089    23151685.493   -25900658.158 8  17132290.369 9
 88  3 22  3  7 59.0800000  0  3G 8G 6G11
  20707679.630    20707679.968   -15463668.321 9 -13097941.634 9
  21469766.442    21469767.407   -22163852.007 9  20037153.747 9
  23131632.663    23131635.744   -26006015.968 9  17050193.458 8
 88  3 22  3  8 29.0800000  0  3G 8G 6G11
  20698430.007    20698433.092   -15512270.556 9 -13135813.459 9
  21459450.088    21459449.973   -22218067.854 9  19994907.673 9
  23111628.517    23111631.424   -26111140.309 8  16968278.477 9
 88  3 22  3  8 59.0800000  0  3G 8G 6G11
  20689306.291    20689307.234   -15560219.531 9 -13173176.250 9
  21449157.285    21449157.971   -22272153.834 9  19952762.793 9
  23091668.502    23091671.950   -26216027.496 9  16886548.268 9
 88  3 22  3  9 29.0800000  0  3G 8G 6G11
  20680306.554    20680307.173   -15607514.927 9 -13210029.738 8
  21438890.268    21438890.324   -22326109.750 9  19910719.272 9
  23071754.674    23071757.624   -26320676.224 9  16805003.884 9
 88  3 22  3  9 59.0800000  0  3G 8G 6G11
  20671431.050    20671432.651   -15654154.422 9 -13246372.152 8
  21428647.889    21428647.505   -22379933.119 9  19868779.016 8
  23051886.285    23051890.229   -26425082.897 9  16723648.125 9
 88  3 22  3 10 29.0800000  0  3G 8G 6G11
  20662681.066    20662681.541   -15700136.002 9 -13282201.925 9
  21418430.580    21418431.539   -22433622.657 9  19826943.049 8
  23032065.804    23032068.378   -26529244.932 9  16642482.978 8
 88  3 22  3 10 59.0800000  0  3G 8G 6G11
  20654056.116    20654056.743   -15745458.342 9 -13317517.987 9
  21408240.230    21408240.202   -22487176.771 9  19785212.613 8
  23012291.169    23012294.308   -26633159.524 9  16561510.654 9
 88  3 22  3 11 29.0800000  0  3G 8G 6G11
  20645557.707    20645558.763   -15790119.327 9 -13352318.710 9
  21398075.895    21398075.295   -22540592.999 9  19743589.607 8
  22992564.533    22992567.232   -26736823.059 9  16480733.976 8
 88  3 22  3 11 59.0800000  0  3G 8G 6G11
  20637185.155    20637185.999   -15834118.123 9 -13386603.433 8
  21387936.656    21387937.074   -22593870.656 9  19702074.591 9
  22972886.314    22972889.347   -26840233.372 8  16400154.589 9
 88  3 22  3 12 29.0800000  0  3G 8G 6G11
  20628937.853    20628939.745   -15877453.223 9 -13420370.992 9
  21377825.294    21377825.268   -22647008.233 9  19660668.720 9
  22953256.762    22953259.175   -26943387.941 9  16319774.486 8
 88  3 22  3 12 59.0800000  0  3G 8G 6G11
  20620819.076    20620819.432   -15920121.693 9 -13453619.098 9
  21367740.204    21367740.317   -22700002.800 9  19619374.287 9
  22933675.766    22933678.968   -27046282.689 9  16239596.854 8
 88  3 22  3 13 29.0800000  0  3G 8G 6G11
  20612826.072    20612827.006   -15962123.517 9 -13486347.751 8
  21357683.358    21357683.444   -22752854.030 9  19578191.560 9
  22914146.334    22914148.549   -27148916.432 9  16159622.598 8
 88  3 22  3 13 59.0800000  0  3G 8G 6G11
  20604961.222    20604961.721   -16003457.560 9 -13518556.060 8
  21347653.815    21347654.015   -22805560.436 9  19537121.653 9
  22894665.334    22894668.775   -27251286.401 9  16079853.858 8
 88  3 22  3 14 29.0800000  0  3G 8G 6G11
  20597222.916    20597222.633   -16044121.029 9 -13550241.838 8
  21337651.167    21337651.869   -22858118.933 9  19496167.008 9
  22875236.193    22875238.182   -27353388.293 9  16000294.011 8
 88  3 22  3 14 59.0800000  0  3G 8G 6G11
  20589612.269    20589613.560   -16084111.338 9 -13581403.076 8
  21327679.016    21327678.701   -22910526.453 9  19455330.039 9
  22855858.370    22855860.415   -27455217.823 9  15920946.412 8
 88  3 22  3 15 29.0800000  0  3G 8G 6G11
  20582130.517    20582130.006   -16123429.774 9 -13612040.766 8
  21317734.437    21317734.452   -22962783.929 9  19414609.949 9
  22836532.131    22836535.136   -27556775.103 9  15841810.950 8
 88  3 22  3 15 59.0800000  0  3G 8G 6G11
  20574776.210    20574775.912   -16162075.201 9 -13642154.051 8
  21307818.434    21307820.249   -23014890.246 9  19374007.675 9
  22817258.893    22817261.334   -27658057.815 9  15762889.428 9
 88  3 22  3 16 29.0800000  0  3G 8G 6G11
  20567551.284    20567551.411   -16200045.039 9 -13671740.886 8
  21297934.050    21297933.609   -23066842.086 9  19333525.752 9
  22798037.423    22798040.338   -27759061.378 9  15684185.421 8
 88  3 22  3 16 59.0800000  0  3G 8G 6G11
  20560454.547    20560455.046   -16237338.445 9 -13700800.640 9
  21288076.112    21288077.318   -23118638.255 9  19293165.145 9
  22778870.514    22778874.513   -27859783.648 9  15605700.611 9
 88  3 22  3 17 29.0800000  0  3G 8G 6G11
  20553487.116    20553486.575   -16273953.814 9 -13729332.060 8
  21278250.385    21278249.975   -23170276.704 9  19252927.431 8
  22759757.207    22759761.495   -27960221.928 9  15527437.101 8
 88  3 22  3 17 59.0800000  0  3G 8G 6G11
  20546648.077    20546649.157   -16309889.361 9 -13757333.742 7
  21268453.001    21268454.646   -23221755.003 9  19212814.510 8
  22740699.949    22740702.852   -28060372.340 9  15449397.899 8
 88  3 22  3 18 29.0800000  0  3G 8G 6G11
  20539938.482    20539940.837   -16345145.023 9 -13784805.645 8
  21258688.494    21258689.074   -23273072.464 9  19172826.909 9
  22721697.338    22721700.072   -28160233.551 9  15371584.054 9
 88  3 22  3 18 59.0800000  0  3G 8G 6G11
  20533359.055    20533360.881   -16379718.776 9 -13811746.193 9
  21248954.424    21248955.039   -23324226.577 9  19132966.621 9
  22702749.498    22702752.863   -28259801.811 9  15293998.481 9
 88  3 22  3 19 29.0800000  0  3G 8G 6G11
  20526910.395    20526911.338   -16413610.013 9 -13838154.919 8
  21239250.616    21239252.074   -23375215.688 9  19093234.885 9
  22683858.609    22683862.299   -28359074.690 9  15216643.081 9
 88  3 22  3 19 59.0800000  0  3G 8G 6G11
  20520591.200    20520591.808   -16446817.328 9 -13864030.709 8
  21229579.577    21229580.233   -23426037.678 9  19053633.379 9
  22665024.462    22665027.993   -28458049.164 9  15139520.211 9
 88  3 22  3 20 29.0800000  0  3G 8G 6G11
  20514401.725    20514402.731   -16479341.164 8 -13889373.916 8
  21219940.905    21219941.905   -23476692.643 9  19014162.016 9
  22646247.835    22646249.952   -28556724.230 9  15062630.622 8
 88  3 22  3 20 59.0800000  0  3G 8G 6G11
  20508343.745    20508343.808   -16511179.036 9 -13914182.600 8
  21210333.828    21210334.912   -23527177.155 9  18974823.472 9
  22627528.006    22627531.122   -28655095.789 9  14985977.534 9
 88  3 22  3 21 29.0800000  0  3G 8G 6G11
  20502416.167    20502415.875   -16542329.540 9 -13938455.696 7
  21200760.617    21200759.618   -23577488.942 9  18935619.525 8
  22608867.226    22608869.728   -28753160.618 9  14909563.473 9
 88  3 22  3 21 59.0800000  0  3G 8G 6G11
  20496619.825    20496620.291   -16572792.709 9 -13962193.202 7
  21191218.828    21191219.851   -23627627.082 9  18896550.888 9
  22590264.814    22590267.718   -28850916.631 9  14833390.025 8
 88  3 22  3 22 29.0800000  0  3G 8G 6G11
  20490952.981    20490954.138   -16602566.719 9 -13985393.679 7
  21181711.624    21181711.649   -23677589.034 9  18857619.533 8
  22571721.691    22571722.946   -28948360.770 9  14757459.611 8
 88  3 22  3 22 59.0800000  0  3G 8G 6G11
  20485418.171    20485419.429   -16631651.816 8 -14008057.351 8
  21172237.459    21172237.957   -23727373.785 9  18818826.247 9
  22553237.690    22553240.905   -29045490.743 9  14681773.987 9
 88  3 22  3 23 29.0800000  0  3G 8G 6G11
  20480014.621    20480016.375   -16660047.572 9 -14030183.868 9
  21162797.612    21162798.367   -23776979.707 9  18780172.307 9
  22534815.363    22534817.385   -29142304.789 9  14606334.567 8
 88  3 22  3 23 59.0800000  0  3G 8G 6G11
  20474742.567    20474743.430   -16687752.764 9 -14051772.294 8
  21153393.072    21153393.808   -23826404.509 9  18741659.513 9
  22516452.738    22516455.454   -29238799.079 9  14531144.272 8
 88  3 22  3 24 29.0800000  0  3G 8G 6G11
  20469602.587    20469602.671   -16714765.098 9 -14072820.839 9
  21144022.893    21144022.673   -23875645.019 9  18703290.325 9
  22498151.240    22498153.877   -29334970.054 9  14456205.921 8
 88  3 22  3 24 59.0800000  0  3G 8G 6G11
  20464594.557    20464594.331   -16741084.885 9 -14093329.727 9
  21134688.036    21134687.949   -23924700.211 9  18665065.526 9
  22479912.812    22479914.954   -29430815.842 9  14381520.961 8
 88  3 22  3 25 29.0800000  0  3G 8G 6G11
  20459717.452    20459717.207   -16766712.102 9 -14113298.963 9
  21125387.779    21125388.462   -23973568.856 9  18626986.093 8
  22461735.755    22461739.270   -29526334.349 9  14307091.043 8
 88  3 22  3 25 59.0800000  0  3G 8G 6G11
  20454972.648    20454973.634   -16791644.541 9 -14132726.801 8
  21116124.495    21116124.439   -24022248.159 9  18589054.193 8
  22443622.445    22443624.632   -29621522.109 9  14232918.829 8
 88  3 22  3 26 29.0800000  0  3G 8G 6G11
  20450360.244    20450359.464   -16815883.322 9 -14151614.137 8
  21106897.763    21106898.620   -24070737.456 9  18551270.358 9
  22425572.042    22425574.438   -29716377.931 9  14159005.244 9
 88  3 22  3 26 59.0800000  0  3G 8G 6G11
  20445879.941    20445879.935   -16839427.637 9 -14169960.331 8
  21097706.691    21097707.192   -24119034.741 9  18513636.136 9
  22407585.355    22407588.616   -29810899.118 9  14085352.442 9
 88  3 22  3 27 29.0800000  0  3G 8G 6G11
  20441531.923    20441534.187   -16862275.096 9 -14187763.518 9
  21088553.683    21088553.888   -24167136.440 9  18476154.317 8
  22389662.889    22389665.342   -29905081.128 9  14011963.911 8
 88  3 22  3 27 59.0800000  0  3G 8G 6G11
  20437315.954    20437317.717   -16884426.846 9 -14205024.588 9
  21079437.781    21079437.140   -24215041.881 9  18438825.430 9
  22371805.374    22371808.358   -29998922.395 9  13938840.910 9
 88  3 22  3 28 29.0800000  0  3G 8G 6G11
  20433233.677    20433235.191   -16905881.949 9 -14221742.823 8
  21070357.662    21070359.371   -24262748.891 9  18401651.166 9
  22354013.534    22354015.674   -30092420.522 9  13865985.297 9
 88  3 22  3 28 59.0800000  0  3G 8G 6G11
  20429283.496    20429285.579   -16926639.571 9 -14237917.560 8
  21061318.748    21061318.972   -24310255.194 9  18364633.287 8
  22336288.218    22336289.418   -30185572.521 9  13793399.392 9
 88  3 22  3 29 29.0800000  0  3G 8G 6G11
  20425466.396    20425469.081   -16946699.464 9 -14253548.611 9
  21052317.259    21052317.882   -24357558.934 9  18327773.268 9
  22318627.781    22318629.757   -30278375.872 9  13721085.163 9
 88  3 22  3 29 59.0800000  0  3G 8G 6G11
  20421782.968    20421784.254   -16966061.647 9 -14268635.999 9
  21043353.968    21043354.660   -24404658.350 9  18291072.451 9
  22301034.627    22301036.741   -30370828.552 9  13649044.178 8
 88  3 22  3 30 29.0800000  0  3G 8G 6G11
  20418230.441    20418232.608   -16984725.069 9 -14283178.892 9
  21034430.932    21034431.638   -24451551.283 9  18254532.538 8
  22283507.680    22283510.213   -30462927.429 9  13577278.890 8
 88  3 22  3 30 59.0800000  0  3G 8G 6G11
  20414812.829    20414814.067   -17002689.180 9 -14297176.862 8
  21025547.167    21025547.494   -24498235.164 9  18218155.502 9
  22266050.347    22266052.217   -30554669.440 9  13505791.672 8
 88  3 22  3 31 29.0800000  0  3G 8G 6G11
  20411527.726    20411527.295   -17019954.992 9 -14310630.710 9
  21016703.714    21016704.801   -24544709.486 9  18181941.788 9
  22248660.226    22248662.199   -30646053.365 9  13434583.445 8
 88  3 22  3 31 59.0800000  0  3G 8G 6G11
  20408374.109    20408374.103   -17036522.350 8 -14323540.319 8
  21007899.388    21007900.584   -24590972.446 9  18145892.756 9
  22231338.834    22231340.629   -30737076.866 9  13363656.095 7
 88  3 22  3 32 29.0800000  0  3G 8G 6G11
  20405355.234    20405354.903   -17052389.902 9 -14335904.615 8
  20999137.187    20999137.508   -24637020.579 9  18110011.114 9
  22214086.350    22214089.067   -30827736.375 9  13293012.375 9
 88  3 22  3 32 59.0800000  0  3G 8G 6G11
  20402468.899    20402469.523   -17067557.963 9 -14347723.861 8
  20990414.912    20990416.381   -24682852.888 9  18074297.650 9
  22196904.482    22196907.238   -30918029.880 9  13222653.870 9
 88  3 22  3 33 29.0800000  0  3G 8G 6G11
  20399715.516    20399714.890   -17082026.496 9 -14358998.009 8
  20981735.308    20981736.185   -24728467.226 9  18038754.054 9
  22179793.347    22179794.012   -31007955.074 9  13152582.354 9
 88  3 22  3 33 59.0800000  0  3G 8G 6G11
  20397094.455    20397094.858   -17095795.513 9 -14369727.093 9
  20973097.540    20973098.697   -24773861.093 9  18003382.228 9
  22162750.979    22162753.085   -31097508.877 9  13082800.205 7
 88  3 22  3 34 29.0800000  0  3G 8G 6G11
  20394607.256    20394609.029   -17108864.486 9 -14379910.678 8
  20964500.552    20964501.752   -24819032.271 9  17968183.929 9
  22145780.189    22145782.490   -31186688.771 9  13013309.441 8
 88  3 22  3 34 59.0800000  0  3G 8G 6G11
  20392254.278    20392254.757   -17121232.962 8 -14389548.419 8
  20955948.151    20955949.627   -24863978.875 9  17933160.646 9
  22128881.174    22128883.845   -31275492.454 9  12944111.815 8
 88  3 22  3 35 29.0800000  0  3G 8G 6G11
  20390033.497    20390034.583   -17132901.166 9 -14398640.500 9
  20947438.193    20947437.735   -24908698.922 9  17898313.877 9
  22112055.132    22112057.720   -31363917.232 9  12875209.438 8
 88  3 22  3 35 59.0800000  0  3G 8G 6G11
  20387946.202    20387946.472   -17143869.994 9 -14407187.618 9
  20938971.243    20938972.622   -24953191.181 9  17863644.620 8
  22095301.695    22095302.913   -31451961.655 9  12806603.457 9
 88  3 22  3 36 29.0800000  0  3G 8G 6G11
  20385990.694    20385992.897   -17154138.850 9 -14415189.300 8
  20930549.435    20930549.355   -24997453.067 9  17829154.880 9
  22078619.041    22078621.913   -31539622.626 9  12738296.244 9
 88  3 22  3 36 59.0800000  0  3G 8G 6G11
  20384170.700    20384171.775   -17163707.821 9 -14422645.622 9
  20922170.436    20922170.298   -25041482.386 9  17794846.338 9
  22062010.930    22062013.400   -31626898.195 9  12670289.376 8
 88  3 22  3 37 29.0800000  0  3G 8G 6G11
  20382481.873    20382483.656   -17172576.790 9 -14429556.478 8
  20913836.572    20913837.070   -25085276.935 9  17760720.753 9
  22045477.584    22045478.756   -31713785.265 9  12602585.222 9
 88  3 22  3 37 59.0800000  0  3G 8G 6G11
  20380928.101    20380928.905   -17180746.624 9 -14435922.567 9
  20905547.429    20905548.035   -25128835.652 9  17726778.917 8
  22029016.703    22029020.085   -31800282.625 9  12535184.736 9
 88  3 22  3 38 29.0800000  0  3G 8G 6G11
  20379505.878    20379507.908   -17188217.405 9 -14441743.914 8
  20897304.312    20897304.819   -25172155.994 9  17693022.836 8
  22012631.914    22012634.772   -31886387.352 9  12468090.193 8
 88  3 22  3 38 59.0800000  0  3G 8G 6G11
  20378217.317    20378219.042   -17194988.602 8 -14447020.160 9
  20889106.211    20889105.936   -25215235.272 9  17659454.585 9
  21996321.809    21996324.691   -31972096.179 9  12401304.157 9
 88  3 22  3 39 29.0800000  0  3G 8G 6G11
  20377062.539    20377064.139   -17201060.303 8 -14451751.328 9
  20880954.240    20880956.325   -25258071.509 9  17626075.722 9
  21980087.997    21980089.536   -32057407.071 9  12334828.208 8
 88  3 22  3 39 59.0800000  0  3G 8G 6G11
  20376039.532    20376041.043   -17206432.764 9 -14455937.636 8
  20872850.029    20872849.800   -25300662.200 9  17592888.206 9
  21963930.483    21963932.512   -32142317.436 9  12268664.323 9
 88  3 22  3 40 29.0800000  0  3G 8G 6G11
  20375149.539    20375151.375   -17211107.409 9 -14459580.195 8
  20864792.476    20864793.020   -25343006.364 9  17559892.771 9
  21947848.620    21947850.146   -32226826.058 9  12202813.494 8
 88  3 22  3 40 59.0800000  0  3G 8G 6G11
  20374392.766    20374394.611   -17215085.639 9 -14462680.083 8
  20856781.329    20856780.393   -25385102.713 9  17527090.434 8
  21931843.571    21931845.741   -32310931.591 9  12137276.763 8
 88  3 22  3 41 29.0800000  0  3G 8G 6G11
  20373769.173    20373770.912   -17218365.513 9 -14465235.808 8
  20848818.282    20848818.890   -25426947.561 9  17494484.081 9
  21915916.077    21915918.006   -32394630.039 9  12072057.246 8
 88  3 22  3 41 59.0800000  0  3G 8G 6G11
  20373277.642    20373278.381   -17220947.685 8 -14467247.862 8
  20840903.553    20840903.314   -25468538.443 9  17462075.623 9
  21900066.523    21900068.279   -32477918.410 9  12007157.261 8
 88  3 22  3 42 29.0800000  0  3G 8G 6G11
  20372918.054    20372919.984   -17222833.571 9 -14468717.359 8
  20833038.828    20833037.909   -25509874.316 9  17429865.873 8
  21884296.576    21884298.347   -32560795.925 9  11942577.408 8
 88  3 22  3 42 59.0800000  0  3G 8G 6G11
  20372691.679    20372693.986   -17224023.822 9 -14469644.800 9
  20825220.915    20825221.221   -25550953.050 9  17397856.483 9
  21868603.608    21868605.966   -32643260.656 9  11878319.219 8
 88  3 22  3 43 29.0800000  0  3G 8G 6G11
  20372597.144    20372599.365   -17224518.468 9 -14470030.213 9
  20817452.972    20817452.852   -25591772.341 9  17366049.270 8
  21852990.360    21852991.915   -32725309.487 9  11814385.101 8
 88  3 22  3 43 59.0800000  0  3G 8G 6G11
  20372635.818    20372638.202   -17224318.095 9 -14469874.052 9
  20809735.663    20809734.404   -25632329.932 9  17334445.963 9
  21837456.984    21837457.820   -32806940.154 9  11750776.839 8
 88  3 22  3 44 29.0800000  0  3G 8G 6G11
  20372806.971    20372808.005   -17223423.448 9 -14469176.896 8
  20802067.112    20802068.294   -25672623.914 9  17303048.068 8
  21822002.736    21822004.239   -32888150.756 9  11687495.867 9
 88  3 22  3 44 59.0800000  0  3G 8G 6G11
  20373110.142    20373109.902   -17221834.833 8 -14467938.995 8
  20794450.053    20794450.296   -25712651.807 9  17271857.526 9
  21806628.836    21806630.671   -32968938.886 9  11624544.131 8
 88  3 22  3 45 29.0800000  0  3G 8G 6G11
  20373542.853    20373544.244   -17219552.716 9 -14466160.704 8
  20786884.695    20786884.276   -25752411.285 9  17240876.136 8
  21791336.642    21791338.452   -33049302.015 9  11561923.556 9
 88  3 22  3 45 59.0800000  0  3G 8G 6G11
  20374108.959    20374110.355   -17216578.767 9 -14463843.316 8
  20779369.299    20779370.525   -25791901.404 9  17210104.629 8
  21776125.194    21776126.440   -33129239.202 9  11499634.868 9
 88  3 22  3 46 29.0800000  0  3G 8G 6G11
  20374806.385    20374807.442   -17212913.179 9 -14460987.000 8
  20771906.680    20771907.661   -25831119.282 9  17179545.255 9
  21760995.353    21760996.123   -33208747.657 9  11437680.257 8
 88  3 22  3 46 59.0800000  0  3G 8G 6G11
  20375635.828    20375636.823   -17208556.817 8 -14457592.415 9
  20764496.561    20764496.043   -25870063.015 9  17149199.517 9
  21745946.931    21745949.227   -33287825.462 9  11376061.228 8
 88  3 22  3 47 29.0800000  0  3G 8G 6G11
  20376596.167    20376597.485   -17203510.036 9 -14453659.838 9
  20757138.027    20757138.410   -25908729.825 9  17119069.553 8
  21730981.270    21730982.809   -33366469.721 9  11314780.015 8
 88  3 22  3 47 59.0800000  0  3G 8G 6G11
  20377687.153    20377688.850   -17197773.286 8 -14449189.624 9
  20749833.916    20749833.104   -25947117.494 9  17089157.101 9
  21716099.061    21716099.905   -33444678.341 9  11253838.289 9
 88  3 22  3 48 29.0800000  0  3G 8G 6G11
  20378909.632    20378911.495   -17191347.736 9 -14444182.683 8
  20742581.575    20742582.422   -25985224.188 9  17059463.584 9
  21701299.661    21701300.273   -33522449.780 9  11193237.197 9
 88  3 22  3 48 59.0800000  0  3G 8G 6G11
  20380263.669    20380264.325   -17184235.610 9 -14438640.743 9
  20735384.254    20735383.782   -26023049.169 9  17029989.598 8
  21686583.126    21686585.153   -33599783.167 9  11132977.456 8
 88  3 22  3 49 29.0800000  0  3G 8G 6G11
  20381747.251    20381748.571   -17176437.533 9 -14432564.308 8
  20728239.383    20728241.195   -26060589.521 9  17000737.397 8
  21671951.257    21671952.542   -33676675.760 9  11073061.181 8
 88  3 22  3 49 59.0800000  0  3G 8G 6G11
  20383361.787    20383363.564   -17167952.578 9 -14425952.628 9
  20721151.369    20721151.378   -26097841.757 9  16971709.713 9
  21657403.842    21657404.298   -33753123.830 9  11013491.294 8
 88  3 22  3 50 29.0800000  0  3G 8G 6G11
  20385107.467    20385108.858   -17158782.495 9 -14418807.086 7
  20714117.477    20714118.277   -26134804.069 9  16942907.924 9
  21642940.690    21642942.102   -33829126.226 9  10954268.694 8
 88  3 22  3 50 59.0800000  0  3G 8G 6G11
  20386982.979    20386983.611   -17148929.094 9 -14411129.095 8
  20707139.503    20707139.157   -26171475.411 9  16914332.876 8
  21628562.897    21628563.915   -33904681.689 9  10895394.335 9
 88  3 22  3 51 29.0800000  0  3G 8G 6G11
  20388987.969    20388988.636   -17138394.011 9 -14402919.909 9
  20700216.669    20700216.420   -26207853.835 9  16885986.069 9
  21614270.044    21614272.197   -33979788.693 9  10836869.424 9
 88  3 22  3 51 59.0800000  0  3G 8G 6G11
  20391121.090    20391123.005   -17127176.709 9 -14394179.141 9
  20693349.917    20693351.149   -26243935.633 9  16857870.406 9
  21600063.546    21600066.088   -34054443.317 9  10778697.017 9
 88  3 22  3 52 29.0800000  0  4G 8G 6G11G 9
  20393385.825    20393386.420   -17115279.024 8 -14384908.203 8
  20686540.870    20686541.736   -26279719.269 9  16829987.077 9
  21585943.636    21585945.524   -34128644.634 9  10720877.838 8
                  22737131.863   -46896716.415 9
 88  3 22  3 52 59.0800000  0  4G 8G 6G11G 9
  20395779.177    20395780.707   -17102702.584 9 -14375108.366 8
  20679788.677    20679789.783   -26315203.321 9  16802337.180 9
  21571910.708    21571912.591   -34202391.504 9  10663412.766 8
  22720486.452    22720487.567   -46984364.674 9  59593698.103 9
 88  3 22  3 53 29.0800000  0  4G 8G 6G11G 9
  20398301.523    20398302.679   -17089448.445 9 -14364780.444 9
  20673093.515    20673094.755   -26350385.784 9  16774922.299 9
  21557963.825    21557964.372   -34275681.932 9  10606303.379 8
  22703818.181    22703818.353   -47071957.969 9  59525443.686 9
 88  3 22  3 53 59.0800000  0  4G 8G 6G11G 9
  20400952.205    20400953.443   -17075516.279 9 -14353924.190 8
  20666456.365    20666457.689   -26385262.598 9  16747745.581 9
  21544103.914    21544105.443   -34348512.263 9  10549552.483 9
  22687160.720    22687161.687   -47159492.588 9  59457234.964 9
 88  3 22  3 54 29.0800000  0  4G 8G 6G11G 9
  20403731.978    20403733.231   -17060908.859 9 -14342541.772 8
  20659879.285    20659878.922   -26419833.011 9  16720807.616 9
  21530332.528    21530335.342   -34420881.954 9  10493160.542 8
  22670513.643    22670515.814   -47246968.191 9  59389072.222 9
 88  3 22  3 54 59.0800000  0  4G 8G 6G11G 9
  20406640.218    20406642.395   -17045628.370 9 -14330634.890 8
  20653358.183    20653359.132   -26454096.071 9  16694109.145 9
  21516649.497    21516651.410   -34492790.233 9  10437128.152 8
  22653879.886    22653880.319   -47334384.172 9  59320955.940 7
 88  3 22  3 55 29.0800000  0  4G 8G 6G11G 9
  20409675.847    20409676.807   -17029674.642 9 -14318203.388 9
  20646897.326    20646898.131   -26488048.298 9  16667652.890 9
  21503054.535    21503054.446   -34564234.160 9  10381457.583 9
  22637256.697    22637257.893   -47421737.501 9  59252888.476 9
 88  3 22  3 55 59.0800000  0  4G 8G 6G11G 9
  20412839.003    20412841.489   -17013047.598 9 -14305247.244 9
  20640497.276    20640497.256   -26521685.842 9  16641441.837 9
  21489547.412    21489549.801   -34635210.229 9  10326151.586 8
  22620647.065    22620647.302   -47509024.455 9  59184872.768 9
 88  3 22  3 56 29.0800000  0  4G 8G 6G11G 9
  20416130.843    20416132.671   -16995750.274 9 -14291768.796 8
  20634154.550    20634155.790   -26555008.466 9  16615476.170 9
  21476129.970    21476130.855   -34705718.529 9  10271210.084 8
  22604048.794    22604048.817   -47596244.945 9  59116908.819 8
 88  3 22  3 56 59.0800000  0  4G 8G 6G11G 9
  20419550.272    20419550.884   -16977785.425 8 -14277770.207 8
  20627874.018    20627875.481   -26588015.151 9  16589756.691 9
  21462801.311    21462804.595   -34775758.667 9  10216633.389 8
  22587463.574    22587463.531   -47683398.715 9  59048996.860 7
 88  3 22  3 57 29.0800000  0  4G 8G 6G11G 9
  20423095.814    20423097.043   -16959153.024 9 -14263251.439 9
  20621654.123    20621654.543   -26620702.146 9  16564286.319 9
  21449562.895    21449565.198   -34845326.946 9  10162424.372 9
  22570892.892    22570893.362   -47770481.915 9  58981139.879 8
 88  3 22  3 57 59.0800000  0  4G 8G 6G11G 9
  20426768.393    20426769.798   -16939853.446 9 -14248212.795 9
  20615495.272    20615495.935   -26653066.168 9  16539067.610 9
  21436415.525    21436417.508   -34914420.621 9  10108585.179 9
  22554335.554    22554336.909   -47857491.512 9  58913340.227 8
 88  3 22  3 58 29.0800000  0  4G 8G 6G11G 9
  20430567.470    20430569.224   -16919888.157 9 -14232655.410 8
  20609398.724    20609399.070   -26685105.627 9  16514101.814 9
  21423358.483    21423360.385   -34983038.381 9  10055116.834 9
  22537792.100    22537793.384   -47944426.295 8  58845598.912 8
 88  3 22  3 58 59.0800000  0  4G 8G 6G11G 9
  20434494.018    20434494.480   -16899260.823 9 -14216582.143 9
  20603363.131    20603364.256   -26716820.463 9  16489388.968 9
  21410390.854    21410392.394   -35051180.459 9  10002019.133 8
  22521263.119    22521263.227   -48031286.175 9  58777915.956 9
 88  3 22  3 59 29.0800000  0  4G 8G 6G11G 9
  20438544.649    20438543.839   -16877972.373 9 -14199993.729 9
  20597390.757    20597390.519   -26748207.437 9  16464931.612 9
  21397514.948    21397516.129   -35118844.200 9   9949294.171 8
  22504749.223    22504749.894   -48118068.490 9  58710293.451 9
 88  3 22  3 59 59.0800000  0  4G 8G 6G11G 9
  20442721.145    20442721.015   -16856023.822 9 -14182890.948 9
  20591480.546    20591481.882   -26779263.944 9  16440731.743 9
  21384730.295    21384731.902   -35186027.454 9   9896943.606 8
  22488250.144    22488251.070   -48204770.641 9  58642733.381 8
 88  3 22  4  0 29.0800000  0  4G 8G 6G11G 9
  20447022.337    20447023.157   -16833415.843 9 -14165274.333 8
  20585633.633    20585635.085   -26809986.967 9  16416791.730 9
  21372037.137    21372038.705   -35252728.179 9   9844969.036 8
  22471767.684    22471767.723   -48291389.653 9  58575238.103 8
 88  3 22  4  0 59.0800000  0  4G 8G 6G11G 9
  20451449.580    20451450.586   -16810151.243 9 -14147146.046 8
  20579850.887    20579852.135   -26840375.585 9  16393112.315 9
  21359437.808    21359438.713   -35318945.808 9   9793370.913 9
  22455300.355    22455300.463   -48377925.069 9  58507807.967 9
 88  3 22  4  1 29.0800000  0  4G 8G 6G11G 9
  20456000.952    20456001.817   -16786232.541 9 -14128508.094 8
  20574132.643    20574133.420   -26870428.316 9  16369694.617 9
  21346927.893    21346929.815   -35384679.087 9   9742150.198 8
  22438849.273    22438850.438   -48464375.499 9  58440444.053 9
 88  3 22  4  1 59.0800000  0  4G 8G 6G11G 9
  20460676.875    20460678.290   -16761660.589 9 -14109361.102 9
  20568478.364    20568478.582   -26900141.965 9  16346541.135 9
  21334512.065    21334512.994   -35449925.749 9   9691308.664 9
  22422413.314    22422415.307   -48550737.975 9  58373148.692 8
 88  3 22  4  2 29.0800000  0  4G 8G 6G11G 9
  20465477.617    20465478.352   -16736436.460 9 -14089705.921 9
  20562888.790    20562890.012   -26929514.235 9  16323653.678 9
  21322188.970    21322189.455   -35514683.759 9   9640847.913 7
  22405996.496    22405998.370   -48637010.051 9  58305923.766 9
 88  3 22  4  2 59.0800000  0  4G 8G 6G11G 9
  20470400.460    20470402.092   -16710562.325 9 -14069544.243 8
  20557365.524    20557365.185   -26958543.071 9  16301033.830 9
  21309958.876    21309960.248   -35578951.753 9   9590768.980 8
  22389597.773    22389598.458   -48723190.161 9  58238770.489 9
 88  3 22  4  3 29.0800000  0  4G 8G 6G11G 9
  20475447.895    20475448.362   -16684040.209 9 -14048877.651 8
  20551906.591    20551907.054   -26987226.607 9  16278683.038 9
  21297823.232    21297822.934   -35642728.288 9   9541073.008 9
  22373215.858    22373216.596   -48809276.207 9  58171690.510 9
 88  3 22  4  3 59.0800000  0  4G 8G 6G11G 9
  20480617.621    20480618.366   -16656872.020 9 -14027707.619 8
  20546515.543    20546514.305   -27015562.952 9  16256602.784 9
  21285780.931    21285781.927   -35706011.972 9   9491761.070 8
  22356851.502    22356853.910   -48895266.801 9  58104684.924 9
 88  3 22  4  4 29.0800000  0  4G 8G 6G11G 9
  20485910.058    20485911.796   -16629058.867 9 -14006035.044 8
  20541188.831    20541188.992   -27043549.286 9  16234795.266 9
  21273832.108    21273833.203   -35768801.124 9   9442834.478 8
  22340507.040    22340508.548   -48981158.789 9  58037756.180 9
 88  3 22  4  4 59.0800000  0  4G 8G 6G11G 9
  20491325.470    20491326.325   -16600603.104 9 -13983861.708 9
  20535930.739    20535929.862   -27071184.088 9  16213261.668 9
  21261977.239    21261979.508   -35831094.523 9   9394294.190 8
  22324182.913    22324182.584   -49066950.871 9  57970905.267 9
 88  3 22  4  5 29.0800000  0  4G 8G 6G11G 9
  20496862.029    20496862.979   -16571506.419 9 -13961188.959 9
  20530738.137    20530738.626   -27098465.492 9  16192003.452 9
  21250218.184    21250219.705   -35892890.927 9   9346141.176 8
  22307876.656    22307876.018   -49152641.226 9  57904133.616 8
 88  3 22  4  5 59.0800000  0  4G 8G 6G11G 9
  20502521.820    20502521.518   -16541770.489 9 -13938018.093 8
  20525615.122    20525615.058   -27125390.470 9  16171022.942 9
  21238554.380    21238555.753   -35954188.602 9   9298376.770 9
  22291588.650    22291589.185   -49238226.829 9  57837443.594 9
 88  3 22  4  6 29.0800000  0  4G 8G 6G11G 9
  20508301.110    20508301.103   -16511397.758 9 -13914351.011 8
  20520559.709    20520559.154   -27151957.020 9  16150321.752 9
  21226984.799    21226985.857   -36014985.900 9   9251002.285 7
  22275323.759    22275324.037   -49323705.712 9  57770836.746 9
 88  3 22  4  6 59.0800000  0  4G 8G 6G11G 9
  20514201.729    20514200.942   -16480390.435 9 -13890189.452 9
  20515572.268    20515572.530   -27178163.461 9  16129901.154 9
  21215510.382    21215511.902   -36075281.681 9   9204018.578 8
  22259078.623    22259078.378   -49409076.311 9  57704314.260 8
 88  3 22  4  7 29.0800000  0  4G 8G 6G11G 9
  20520222.262    20520222.659   -16448750.632 9 -13865535.049 8
  20510653.738    20510653.715   -27204008.168 9  16109762.429 9
  21204131.322    21204133.477   -36135075.211 9   9157426.248 9
  22242853.209    22242852.937   -49494336.796 9  57637877.556 8
 88  3 22  4  7 59.0800000  0  4G 8G 6G11G 9
  20526363.332    20526363.516   -16416479.224 9 -13840388.491 8
  20505805.866    20505805.246   -27229487.947 9  16089908.069 9
  21192848.821    21192851.924   -36194364.069 9   9111227.162 8
  22226648.622    22226649.897   -49579484.187 9  57571528.973 9
 88  3 22  4  8 29.0800000  0  4G 8G 6G11G 9
  20532624.080    20532624.542   -16383577.637 9 -13814750.880 8
  20501027.910    20501026.421   -27254600.384 9  16070339.941 8
  21181664.346    21181664.999   -36253146.473 9   9065422.712 8
  22210468.122    22210469.829   -49664515.622 9  57505270.773 8
 88  3 22  4  8 59.0800000  0  4G 8G 6G11G 9
  20539004.160    20539004.912   -16350048.345 9 -13788624.142 8
  20496319.094    20496318.657   -27279343.373 9  16051059.697 9
  21170574.065    21170576.001   -36311421.163 9   9020013.891 8
  22194310.383    22194311.117   -49749429.433 9  57439104.214 8
 88  3 22  4  9 29.0800000  0  4G 8G 6G11G 9
  20545502.719    20545504.764   -16315894.253 9 -13762010.559 8
  20491681.310    20491680.941   -27303715.671 9  16032068.308 9
  21159581.057    21159583.994   -36369187.681 9   8975001.041 9
  22178174.712    22178174.958   -49834224.100 9  57373030.497 8
 88  3 22  4  9 59.0800000  0  4G 8G 6G11G 9
  20552120.593    20552121.601   -16281118.907 9 -13734912.867 9
  20487113.552    20487113.072   -27327716.684 9  16013366.232 9
  21148685.811    21148687.083   -36426446.563 9   8930383.767 9
  22162060.652    22162060.935   -49918898.955 9  57307050.132 8
 88  3 22  4 10 29.0800000  0  4G 8G 6G11G 9
  20558855.947    20558857.658   -16245722.684 9 -13707331.396 8
  20482618.061    20482617.721   -27351342.543 9  15994956.472 8
  21137887.284    21137889.033   -36483194.750 9   8886164.421 8
  22145971.622    22145972.102   -50003450.237 9  57241166.058 8
 88  3 22  4 10 59.0800000  0  4G 8G 6G11G 9
  20565709.972    20565709.315   -16209707.746 9 -13679267.799 8
  20478193.596    20478193.819   -27374591.132 9  15976840.696 8
  21127185.678    21127185.115   -36539430.842 9   8842344.122 8
  22129906.667    22129907.031   -50087875.152 9  57175380.464 9
 88  3 22  4 11 29.0800000  0  4G 8G 6G11G 9
  20572680.776    20572682.074   -16173076.028 9 -13650723.582 8
  20473841.626    20473842.202   -27397459.966 9  15959020.829 9
  21116581.757    21116583.215   -36595153.224 8   8798924.099 8
  22113865.503    22113865.911   -50172171.585 9  57109694.971 8
 88  3 22  4 11 59.0800000  0  4G 8G 6G11G 9
  20579769.502    20579769.289   -16135829.748 9 -13621700.497 8
  20469561.972    20469563.404   -27419946.879 9  15941498.575 9
  21106076.541    21106077.727   -36650360.503 9   8755905.471 9
  22097848.831    22097848.014   -50256336.957 9  57044111.627 8
 88  3 22  4 12 29.0800000  0  4G 8G 6G11G 9
  20586973.621    20586972.731   -16097972.810 9 -13592201.590 8
  20465356.327    20465356.631   -27442051.782 9  15924273.966 9
  21095668.636    21095670.218   -36705053.579 9   8713287.521 9
  22081858.035    22081857.743   -50340371.111 9  56978630.505 9
 88  3 22  4 12 59.0800000  0  4G 8G 6G11G 9
  20594292.781    20594292.899   -16059506.234 9 -13562227.606 7
  20461222.505    20461221.601   -27463771.718 9  15907349.337 9
  21085359.435    21085361.400   -36759230.360 9   8671071.861 8
  22065891.176    22065892.576   -50424270.992 9  56913254.028 9
 88  3 22  4 13 29.0800000  0  4G 8G 6G11G 9
  20601728.625    20601728.536   -16020431.347 9 -13531779.635 8
  20457164.018    20457163.825   -27485103.381 9  15890727.265 9
  21075148.531    21075150.166   -36812888.535 9   8629260.334 9
  22049951.500    22049952.545   -50508033.197 9  56847984.810 8
 88  3 22  4 13 59.0800000  0  4G 8G 6G11G 9
  20609278.368    20609279.622   -15980751.088 9 -13500859.941 8
  20453179.476    20453179.295   -27506045.220 9  15874408.966 8
  21065036.102    21065037.051   -36866027.588 9   8587853.299 9
  22034039.221    22034040.574   -50591655.566 9  56782824.586 9
 88  3 22  4 14 29.0800000  0  4G 8G 6G11G 9
  20616944.939    20616944.240   -15940467.685 9 -13469470.270 8
  20449267.774    20449267.305   -27526595.298 9  15858395.926 9
  21055022.720    21055023.987   -36918646.559 9   8546851.536 8
  22018153.634    22018154.257   -50675136.229 9  56717774.755 9
 88  3 22  4 14 59.0800000  0  4G 8G 6G11G 9
  20624724.368    20624725.064   -15899584.662 9 -13437613.354 8
  20445432.590    20445432.494   -27546752.604 9  15842688.937 9
  21045109.513    21045109.994   -36970745.404 9   8506255.054 7
  22002294.724    22002294.626   -50758473.872 9  56652836.383 8
 88  3 22  4 15 29.0800000  0  4G 8G 6G11G 9
  20632618.052    20632617.646   -15858102.959 9 -13405289.942 9
  20441671.558    20441672.193   -27566513.738 9  15827290.654 9
  21035294.362    21035295.001   -37022321.700 9   8466065.749 7
  21986464.138    21986463.918   -50841664.798 9  56588012.315 9
 88  3 22  4 15 59.0800000  0  4G 8G 6G11G 9
  20640625.434    20640625.602   -15816024.543 9 -13372501.553 7
  20437987.362    20437986.843   -27585876.736 9  15812202.611 8
  21025579.471    21025579.937   -37073374.436 9   8426284.427 7
  21970662.341    21970662.429   -50924706.767 9  56523304.316 9
 88  3 22  4 16 29.0800000  0  4G 8G 6G11G 9
  20648745.052    20648745.055   -15773353.652 9 -13339251.505 7
  20434378.041    20434378.089   -27604841.084 9  15797425.199 9
  21015964.210    21015965.339   -37123904.133 9   8386910.652 8
  21954888.063    21954889.159   -51007599.149 9  56458712.890 9
 88  3 22  4 16 59.0800000  0  4G 8G 6G11G 9
  20656977.307    20656977.920   -15730090.752 9 -13305540.146 9
  20430846.270    20430845.934   -27623402.558 9  15782961.715 9
  21006447.702    21006450.151   -37173907.734 9   8347946.834 8
  21939143.210    21939144.274   -51090336.951 9  56394241.927 8
 88  3 22  4 17 29.0800000  0  4G 8G 6G11G 9
  20665322.821    20665323.251   -15686238.765 9 -13271369.764 7
  20427391.598    20427391.160   -27641559.861 9  15768813.176 9
  20997033.829    20997034.804   -37223384.854 9   8309393.262 7
  21923428.728    21923427.888   -51172918.989 9  56329892.315 7
 88  3 22  4 17 59.0800000  0  4G 8G 6G11G 9
  20673779.428    20673779.164   -15641800.993 9 -13236742.920 9
  20424013.536    20424013.376   -27659311.863 9  15754980.467 8
  20987717.876    20987718.019   -37272335.589 9   8271249.849 7
  21907743.805    21907743.842   -51255343.411 9  56265665.502 8
 88  3 22  4 18 29.0800000  0  4G 8G 6G11G 9
  20682347.010    20682346.705   -15596779.426 9 -13201661.170 8
  20420712.890    20420712.497   -27676656.101 9  15741465.483 8
  20978503.664    20978505.347   -37320758.541 9   8233517.697 6
  21892089.598    21892090.044   -51337607.690 9  56201563.499 8
 88  3 22  4 18 59.0800000  0  4G 8G 6G11G 9
  20691024.947    20691025.126   -15551176.610 9 -13166126.491 8
  20417490.171    20417489.361   -27693590.634 9  15728269.732 9
  20969389.444    20969390.149   -37368653.033 9   8196197.345 8
  21876465.992    21876466.910   -51419709.564 9  56137588.057 8
 88  3 22  4 19 29.0800000  0  4G 8G 6G11G 9
  20699811.941    20699813.040   -15504995.436 9 -13130141.153 8
  20414346.124    20414346.158   -27710113.672 9  15715394.648 9
  20960376.256    20960377.367   -37416018.058 9   8159289.529 8
  21860874.394    21860874.114   -51501646.674 9  56073741.004 9
 88  3 22  4 19 59.0800000  0  4G 8G 6G11G 9
  20708709.328    20708710.923   -15458237.768 9 -13093706.607 9
  20411280.463    20411280.079   -27726222.552 9  15702842.283 9
  20951464.101    20951464.620   -37462852.386 9   8122795.281 8
  21845313.687    21845313.125   -51583415.976 9  56010024.665 8
 88  3 22  4 20 29.0800000  0  4G 8G 6G11G 9
  20717716.895    20717718.048   -15410906.692 9 -13056825.242 9
  20408292.983    20408293.892   -27741915.841 9  15690613.749 8
  20942652.149    20942654.002   -37509155.440 9   8086714.993 8
  21829785.531    21829786.128   -51665015.469 9  55946440.666 9
 88  3 22  4 20 59.0800000  0  4G 8G 6G11G 9
  20726832.615    20726832.283   -15363005.439 9 -13019499.578 8
  20405386.098    20405386.973   -27757192.212 9  15678710.089 9
  20933942.259    20933944.613   -37554927.057 9   8051048.821 8
  21814290.299    21814290.259   -51746443.610 9  55882990.221 8
 88  3 22  4 21 29.0800000  0  4G 8G 6G11G 9
  20736054.613    20736056.878   -15314535.570 9 -12981730.841 8
  20402559.965    20402559.761   -27772048.585 9  15667133.704 9
  20925333.382    20925335.751   -37600165.635 9   8015798.008 7
  21798828.326    21798829.258   -51827696.767 9  55819676.102 9
 88  3 22  4 21 59.0800000  0  4G 8G 6G11G 9
  20745386.537    20745387.570   -15265499.267 9 -12943520.741 9
  20399812.546    20399813.579   -27786482.966 8  15655886.143 9
  20916827.408    20916827.779   -37644870.049 9   7980963.411 8
  21783399.877    21783400.877   -51908772.152 9  55756500.494 8
 88  3 22  4 22 29.0800000  0  4G13G 6G11G 9
                  23931005.027   -57719520.125 9
  20397146.296    20397148.124   -27800494.064 9  15644968.417 9
  20908421.877    20908423.705   -37689040.282 9   7946545.058 8
  21768005.192    21768007.197   -51989668.057 9  55693464.758 8
 88  3 22  4 22 59.0800000  0  4G13G 6G11G 9
  23909571.254    23909572.550   -57832323.986 9  73264073.464 9
  20394561.159    20394561.194   -27814080.081 9  15634381.908 9
  20900118.706    20900119.485   -37732675.811 9   7912543.377 8
  21752647.422    21752646.743   -52070382.323 9  55630570.575 9
 88  3 22  4 23 29.0800000  0  4G13G 6G11G 9
  23888143.507    23888145.917   -57944926.988 9  73176330.879 9
  20392056.335    20392057.310   -27827238.648 8  15624128.486 9
  20891916.654    20891916.940   -37775775.653 9   7878959.113 8
  21737322.881    21737322.025   -52150912.380 9  55567819.911 8
 88  3 22  4 23 59.0800000  0  4G13G 6G11G 9
  23866754.315    23866758.073   -58057326.184 9  73088747.135 9
  20389635.191    20389635.055   -27839967.992 9  15614209.511 8
  20883816.881    20883818.868   -37818338.931 9   7845792.926 8
  21722033.626    21722034.462   -52231255.080 9  55505215.229 9
 88  3 22  4 24 29.0800000  0  4G13G 6G11G 9
  23845405.183    23845407.304   -58169519.419 9  73001323.892 9
  20387296.001    20387295.626   -27852266.788 9  15604626.029 9
  20875819.767    20875820.828   -37860365.929 9   7813044.646 8
  21706781.489    21706781.204   -52311409.031 9  55442757.649 9
 88  3 22  4 24 59.0800000  0  4G13G 6G11G 9
  23824094.657    23824096.895   -58281504.016 9  72914063.212 8
  20385036.685    20385037.368   -27864132.574 8  15595379.966 9
  20867924.432    20867926.653   -37901855.663 9   7780714.997 8
  21691564.295    21691564.444   -52391371.117 9  55380449.572 9
 88  3 22  4 25 29.0800000  0  4G13G 6G11G 9
  23802824.318    23802827.486   -58393277.338 9  72826967.154 9
  20382861.592    20382861.250   -27875563.886 8  15586472.461 9
  20860131.476    20860133.852   -37942807.508 9   7748804.512 9
  21676384.506    21676385.403   -52471139.277 9  55318292.592 9
 88  3 22  4 25 59.0800000  0  4G13G 6G11G 9
  23781596.859    23781598.308   -58504836.684 8  72740037.869 9
  20380768.968    20380769.566   -27886558.379 9  15577905.311 9
  20852441.559    20852443.513   -37983220.844 9   7717313.609 8
  21661243.236    21661244.128   -52550710.561 9  55256289.015 9
 88  3 22  4 26 29.0800000  0  4G13G 6G11G 9
  23760407.498    23760410.185   -58616179.671 8  72653277.162 9
  20378760.368    20378760.904   -27897114.037 9  15569680.138 8
  20844852.915    20844854.423   -38023094.404 8   7686243.324 8
  21646138.656    21646139.604   -52630082.176 9  55194441.033 8
 88  3 22  4 26 59.0800000  0  4G13G 6G11G 9
  23739262.113    23739264.556   -58727303.211 9  72566687.441 9
  20376835.763    20376836.065   -27907228.308 9  15561798.880 9
  20837368.311    20837370.456   -38062427.300 9   7655594.339 9
  21631074.198    21631074.289   -52709250.818 9  55132751.218 9
 88  3 22  4 27 29.0800000  0  4G13G 6G11G 9
  23718157.209    23718159.654   -58838206.732 8  72480269.165 9
  20374995.200    20374995.765   -27916901.783 8  15554261.125 9
  20829986.087    20829987.490   -38101221.295 9   7625365.275 8
  21616048.134    21616048.062   -52788216.070 9  55071219.882 8
 88  3 22  4 27 59.0800000  0  4G13G 6G11G 9
  23697095.285    23697097.427   -58948887.520 8  72394024.466 9
  20373239.004    20373239.507   -27926131.514 9  15547069.126 9
  20822706.536    20822708.993   -38139474.981 9   7595557.224 8
  21601060.944    21601060.587   -52866975.115 9  55009849.236 9
 88  3 22  4 28 29.0800000  0  4G13G 6G11G 9
  23676075.677    23676078.688   -59059341.185 8  72307956.723 9
  20371567.452    20371567.368   -27934913.651 9  15540225.914 9
  20815530.791    20815532.073   -38177185.627 8   7566172.325 8
  21586112.731    21586113.038   -52945522.806 9  54948643.256 9
 88  3 22  4 28 59.0800000  0  4G13G 6G11G 9
  23655101.217    23655104.124   -59169566.883 9  72222066.610 9
  20369980.811    20369981.576   -27943248.972 9  15533730.853 8
  20808457.188    20808459.237   -38214355.540 8   7537208.774 8
  21571206.848    21571206.948   -53023859.280 9  54887601.884 8
 88  3 22  4 29 29.0800000  0  4G13G 6G11G 9
  23634170.709    23634173.120   -59279563.247 9  72136355.210 8
  20368481.446    20368481.372   -27951136.091 9  15527585.029 8
  20801487.190    20801488.912   -38250984.631 9   7508666.644 8
  21556340.162    21556340.623   -53101982.352 9  54826726.775 9
 88  3 22  4 29 59.0800000  0  4G13G 6G11G 9
  23613282.826    23613283.866   -59389325.654 9  72050826.084 8
  20367066.439    20367066.255   -27958571.039 9  15521791.569 9
  20794620.269    20794621.757   -38287070.438 9   7480547.858 7
  21541515.024    21541514.924   -53179887.320 9  54766021.647 9
 88  3 22  4 30 29.0800000  0  4G13G 6G11G 9
  23592440.617    23592443.109   -59498852.633 9  71965480.382 8
  20365737.325    20365737.627   -27965553.317 9  15516350.834 9
  20787856.533    20787858.864   -38322613.900 8   7452851.673 8
  21526731.399    21526731.248   -53257572.816 9  54705487.515 8
 88  3 22  4 30 59.0800000  0  4G13G 6G11G 9
  23571643.889    23571645.205   -59608141.690 9  71880320.076 8
  20364494.238    20364495.561   -27972081.179 9  15511264.176 9
  20781196.138    20781197.589   -38357614.516 7   7425578.492 9
  21511989.944    21511991.632   -53335036.145 9  54645126.481 9
 88  3 22  4 31 29.0800000  0  4G13G 6G11G 9
  23550892.153    23550894.110   -59717191.239 9  71795346.430 9
  20363338.981    20363339.593   -27978153.218 9  15506532.720 9
  20774637.735    20774640.831   -38392072.444 9   7398728.172 9
  21497292.314    21497292.658   -53412275.369 9  54584940.111 9
 88  3 22  4 31 59.0800000  0  4G13G 6G11G 9
  23530186.689    23530189.527   -59825997.942 9  71710562.025 9
  20362271.582    20362271.584   -27983766.616 8  15502158.630 8
  20768184.265    20768187.109   -38425986.361 7   7372301.767 8
  21482637.115    21482637.910   -53489286.605 9  54524931.377 8
 88  3 22  4 32 29.0800000  0  4G13G 6G11G 9
  23509528.358    23509530.267   -59934559.459 9  71625968.647 8
  20361290.114    20361290.727   -27988920.167 8  15498142.875 9
  20761835.017    20761837.450   -38459356.448 8   7346299.130 8
  21468026.988    21468027.682   -53566067.541 9  54465102.075 9
 88  3 22  4 32 59.0800000  0  4G13G 6G11G 9
  23488916.780    23488918.121   -60042874.434 9  71541567.382 8
  20360396.658    20360397.280   -27993612.828 9  15494486.259 9
  20755588.487    20755590.644   -38492183.172 8   7320719.892 8
  21453461.221    21453461.526   -53642616.448 9  54405453.596 9
 88  3 22  4 33 29.0800000  0  4G13G 6G11G 9
  23468352.112    23468354.043   -60150939.356 9  71457360.972 8
  20359592.434    20359593.504   -27997841.527 9  15491191.168 9
  20749445.906    20749446.613   -38524464.867 8   7295565.343 8
  21438938.864    21438939.157   -53718929.360 9  54345989.036 9
 88  3 22  4 33 59.0800000  0  4G13G 6G11G 9
  23447837.559    23447837.557   -60258751.579 5  71373351.499 5
  20358877.324    20358877.505   -28001604.670 9  15488258.843 9
  20743405.271    20743406.869   -38556201.515 8   7270835.514 8
  21424461.499    21424461.685   -53795003.497 9  54286710.498 9
 88  3 22  4 34 29.0800000  0  4G13G 6G11G 9
  23427369.950    23427370.011   -60366310.131 4  71289539.692 4
  20358250.825    20358246.238   -28004902.018 2  15485689.481 2
  20737469.328    20737471.095   -38587394.119 8   7246529.590 8
  21410031.026    21410031.748   -53870837.769 9  54227618.875 8
 88  3 22  4 34 59.0800000  0  4G13G 6G11G 9
  23406949.271    23406951.363   -60473613.032 6  71205927.123 4
  20357711.200    20357711.195   -28007732.070 4  15483484.242 2
  20731637.099    20731639.410   -38618042.920 8   7222647.445 8
  21395646.447    21395645.944   -53946429.878 9  54168715.961 8
 88  3 22  4 35 29.0800000  0  4G13G 6G11G 9
  23386580.376    23386581.968   -60580657.348 9  71122515.999 9
  20357262.931    20357261.912   -28010092.632 3  15481644.836 3
  20725909.412    20725910.007   -38648147.067 8   7199189.688 8
  21381309.123    21381308.645   -54021776.236 9  54110004.527 9
 88  3 22  4 35 59.0800000  0  4G13G 6G11G 9
  23366260.361    23366261.968   -60687438.549 9  71039309.898 9
  20356903.572    20356903.161   -28011980.179 1  15480174.039 2
  20720284.322    20720286.205   -38677704.696 9   7176157.777 8
  21367018.079    21367018.600   -54096872.578 9  54051487.940 9
 88  3 22  4 36 29.0800000  0  4G13G 6G11G 9
  23345991.810    23345993.613   -60793956.729 2  70956308.759 1
  20356632.610    20356633.947   -28013395.003 9  15479071.564 9
  20714763.250    20714764.517   -38706717.724 8   7153550.255 8
  21352775.742    21352775.192   -54171718.207 9  53993166.684 8
 88  3 22  4 36 59.0800000  0  4G13G 6G11G 9
  23325770.830    23325772.437   -60900209.951 9  70873514.075 9
  20356453.568    20356454.512   -28014336.198 8  15478338.164 9
  20709346.997    20709347.619   -38735186.742 9   7131366.617 8
  21338580.264    21338581.550   -54246310.711 9  53935042.671 9
 88  3 22  4 37 29.0800000  0  4G13G 6G11G 9
  23305602.554    23305604.325   -61006194.882 9  70790928.443 8
  20356364.767    20356367.512   -28014801.165 9  15477975.829 9
  20704033.957    20704034.843   -38763110.334 8   7109607.994 7
  21324435.187    21324435.657   -54320646.897 9  53877118.402 9
 88  3 22  4 37 59.0800000  0  4G13G 6G11G 9
  23285486.530    23285488.748   -61111908.863 2  70708553.949 1
  20356367.547    20356368.050   -28014788.037 9  15477986.070 9
  20698823.217    20698824.525   -38790488.259 8   7088274.560 9
  21310338.345    21310338.153   -54394723.630 9  53819396.298 9
 88  3 22  4 38 29.0800000  0  4G13G 6G11G 9
  23265421.170    23265422.905   -61217348.932 9  70626392.860 8
  20356461.878    20356461.863   -28014294.538 9  15478370.611 9
  20693716.967    20693717.679   -38817320.042 8   7067366.700 8
  21296291.626    21296292.549   -54468537.389 9  53761879.094 9
 88  3 22  4 38 59.0800000  0  4G13G 6G11G 9
  23245407.806    23245411.199   -61322515.725 1  70544444.729 1
  20356648.321    20356648.341   -28013321.471 9  15479128.834 9
  20688713.672    20688715.628   -38843608.042 9   7046882.557 8
  21282296.725    21282296.641   -54542087.899 9  53704567.048 9
 88  3 22  4 39 29.0800000  0  4G13G 6G11G 9
  23225448.290    23225451.504   -61427406.079 1  70462712.026 1
  20356924.288    20356925.499   -28011866.944 9  15480262.230 9
  20683815.413    20683817.597   -38869351.874 9   7026822.441 8
  21268350.508    21268350.889   -54615371.646 9  53647462.855 9
 88  3 22  4 39 59.0800000  0  4G13G 6G11G 9
  23205542.623    23205543.677   -61532015.723 9  70381198.024 8
  20357293.155    20357292.936   -28009927.503 9  15481773.477 9
  20679019.910    20679021.102   -38894549.631 9   7007187.840 9
  21254457.343    21254456.989   -54688384.691 9  53590569.593 9
 88  3 22  4 40 29.0800000  0  4G13G 6G11G 9
  23185688.548    23185695.544   -61636342.330 1  70299904.544 1
  20357753.895    20357755.724   -28007501.848 9  15483663.583 9
  20674329.871    20674330.459   -38919201.615 9   6987978.522 8
  21240614.819    21240614.292   -54761124.007 9  53533889.620 8
 88  3 22  4 40 59.0800000  0  4G13G 6G11G 9
  23165892.194    23165894.917   -61740386.085 1  70218831.527 1
  20358308.262    20358309.668   -28004590.438 9  15485932.209 9
  20669741.798    20669743.158   -38943310.074 9   6969192.721 8
  21226825.819    21226824.829   -54833589.104 9  53477423.334 9
 88  3 22  4 41 29.0800000  0  4G13G 6G11G 9
  23146144.742    23146147.469   -61844144.359 9  70137980.966 9
  20358956.269    20358955.317   -28001191.517 9  15488580.715 9
  20665257.131    20665257.597   -38966874.624 9   6950830.742 8
  21213088.651    21213087.768   -54905777.013 9  53421173.032 8
 88  3 22  4 41 59.0800000  0  4G13G 6G11G 9
  23126460.130    23126460.165   -61947614.153 1  70057355.187 1
  20359696.109    20359695.764   -27997302.389 9  15491611.201 8
  20660878.032    20660878.642   -38989894.193 9   6932893.435 7
  21199405.138    21199406.212   -54977683.424 9  53365142.072 8
 88  3 22  4 42 29.0800000  0  4G13G 6G11G 9
  23106821.622    23106824.244   -62050792.557 8  69976956.452 9
  20360528.677    20360529.206   -27992921.544 9  15495024.835 8
  20656600.594    20656600.932   -39012368.864 9   6915380.710 7
  21185776.280    21185776.304   -55049305.871 9  53309332.391 9
 88  3 22  4 42 59.0800000  0  4G13G 6G11G 9
  23087244.523    23087245.846   -62153678.734 9  69896785.452 9
  20361456.488    20361456.278   -27988048.581 8  15498821.948 9
  20652427.205    20652426.748   -39034299.923 9   6898291.598 7
  21172201.756    21172200.544   -55120642.422 9  53253745.481 8
 88  3 22  4 43 29.0800000  0  4G13G 6G11G 9
  23067720.124    23067722.392   -62256270.677 9  69816843.704 8
  20362477.381    20362478.988   -27982682.303 8  15503003.458 9
  20648356.691    20648357.956   -39055687.738 9   6881625.769 8
  21158680.411    21158680.636   -55191690.559 9  53198383.309 9
 88  3 22  4 43 59.0800000  0  4G13G 6G11G 9
  23048255.412    23048257.283   -62358565.472 9  69737133.502 9
  20363592.001    20363593.648   -27976821.105 9  15507570.617 9
  20644389.150    20644390.433   -39076532.640 9   6865383.008 7
  21145216.600    21145216.144   -55262447.300 9  53143248.196 8
 88  3 22  4 44 29.0800000  0  4G13G 6G11G 9
  23028845.677    23028847.975   -62460560.905 9  69657656.558 9
  20364802.590    20364803.035   -27970463.069 8  15512524.926 9
  20640526.806    20640528.446   -39096834.046 9   6849563.746 8
  21131807.262    21131808.036   -55332909.600 9  53088342.513 8
 88  3 22  4 44 59.0800000  0  4G13G 6G11G 9
  23009494.055    23009495.977   -62562254.840 9  69578414.546 9
  20366107.078    20366108.612   -27963606.939 9  15517867.350 9
  20636766.696    20636766.682   -39116592.537 8   6834167.535 7
  21118455.881    21118456.009   -55403074.326 9  53033668.726 9
 88  3 22  4 45 29.0800000  0  4G13G 6G11G 9
  22990199.906    22990202.345   -62663645.150 9  69499409.119 8
  20367507.537    20367507.794   -27956251.697 9  15523598.690 8
  20633110.887    20633111.243   -39135808.564 8   6819194.019 8
  21105161.183    21105160.434   -55472939.544 9  52979228.309 9
 88  3 22  4 45 59.0800000  0  4G13G 6G11G 9
  22970964.434    22970967.052   -62764729.674 9  69420642.005 9
  20369002.894    20369002.248   -27948395.765 8  15529720.171 9
  20629557.313    20629557.307   -39154482.537 8   6804642.886 7
  21091923.417    21091924.704   -55542501.740 9  52925024.017 9
 88  3 22  4 46 29.0800000  0  4G13G 6G11G 9
  22951787.427    22951788.229   -62865507.319 9  69342113.994 8
  20370591.789    20370592.721   -27940039.019 9  15536231.908 9
  20626106.343    20626105.329   -39172615.846 9   6790513.041 7
  21078744.457    21078743.439   -55611759.631 9  52871056.827 9
 88  3 22  4 46 59.0800000  0  4G13G 6G11G 9
  22932668.934    22932670.240   -62965975.253 9  69263827.294 9
  20372277.661    20372278.548   -27931179.594 9  15543135.341 9
  20622759.321    20622758.737   -39190208.082 9   6776804.819 7
  21065623.563    21065624.898   -55680709.867 9  52817329.391 9
 88  3 22  4 47 29.0800000  0  4G13G 6G11G 9
  22913609.472    22913612.244   -63066130.403 9  69185784.338 8
  20374060.001    20374060.988   -27921814.753 9  15550432.616 9
  20619514.754    20619515.195   -39207258.487 9   6763518.799 8
  21052562.791    21052562.432   -55749348.281 8  52763844.939 9
 88  3 22  4 47 59.0800000  0  4G13G 6G11G 9
  22894610.286    22894613.586   -63165971.452 9  69107986.145 8
  20375938.687    20375939.247   -27911943.747 9  15558124.294 8
  20616372.878    20616372.932   -39223767.747 9   6750654.444 7
  21039559.839    21039560.797   -55817672.284 9  52710605.470 9
 88  3 22  4 48 29.0800000  0  4G13G 6G11G 9
  22875670.827    22875672.932   -63265496.198 9  69030434.414 8
  20377914.217    20377914.636   -27901566.380 9  15566210.547 9
  20613333.893    20613333.048   -39239737.578 9   6738210.436 7
  21026618.783    21026619.457   -55885680.460 9  52657612.103 9
 88  3 22  4 48 59.0800000  0  4G13G 6G11G 9
  22856792.391    22856794.642   -63364703.988 9  68953129.662 8
  20379984.533    20379985.692   -27890682.304 9  15574691.630 8
  20610396.099    20610396.848   -39255169.377 8   6726185.665 8
  21013737.580    21013737.933   -55953370.799 9  52604866.397 9
 88  3 22  4 49 29.0800000  0  4G13G 6G11G 9
  22837974.916    22837977.068   -63463591.321 9  68876074.635 9
  20382152.464    20382153.483   -27879288.662 9  15583569.792 9
  20607563.007    20607564.028   -39270061.911 8   6714581.107 8
  21000917.425    21000918.586   -56020738.562 9  52552372.048 9
 88  3 22  4 49 59.0800000  0  4G13G 6G11G 9
  22819219.308    22819220.485   -63562156.235 9  68799270.817 8
  20384418.213    20384418.571   -27867385.048 9  15592845.332 9
  20604831.470    20604832.639   -39284416.459 9   6703395.756 8
  20988160.243    20988160.073   -56087782.148 9  52500130.318 9
 88  3 22  4 50 29.0800000  0  4G13G 6G11G 9
  22800524.529    22800526.015   -63660396.957 9  68722719.654 8
  20386780.780    20386781.368   -27854970.064 9  15602519.325 9
  20602201.224    20602202.254   -39298233.055 9   6692629.593 8
  20975464.647    20975464.912   -56154498.434 9  52448143.613 9
 88  3 22  4 50 59.0800000  0  4G13G 6G11G 9
  22781892.263    22781894.493   -63758310.317 9  68646423.538 8
  20389240.261    20389241.552   -27842041.846 9  15612593.256 9
  20599674.868    20599676.899   -39311511.744 9   6682282.579 8
  20962831.221    20962831.326   -56220883.788 9  52396414.775 8
 88  3 22  4 51 29.0800000  0  4G13G 6G11G 9
  22763321.692    22763324.775   -63855894.983 9  68570383.556 9
  20391798.118    20391799.523   -27828599.786 8  15623067.586 9
  20597250.741    20597250.459   -39324253.641 8   6672353.831 7
  20950262.325    20950262.358   -56286935.962 9  52344945.564 9
 88  3 22  4 51 59.0800000  0  4G13G 6G11G 9
  22744815.613    22744816.999   -63953150.115 9  68494600.360 9
  20394454.195    20394455.084   -27814643.352 8  15633942.701 8
  20594928.039    20594927.332   -39336460.101 8   6662842.325 7
  20937757.854    20937757.357   -56352652.768 9  52293737.676 9
 88  3 22  4 52 29.0800000  0  4G13G 6G11G 9
  22726371.933    22726373.023   -64050074.007 9  68419075.276 9
  20397208.157    20397208.089   -27800172.350 9  15645218.793 9
  20592707.305    20592707.639   -39348132.299 8   6653747.118 8
  20925315.988    20925315.567   -56418032.317 9  52242792.573 9
 88  3 22  4 52 59.0800000  0  4G13G 6G11G 9
  22707990.790    22707992.247   -64146663.506 9  68343810.761 9
  20400060.802    20400061.602   -27785184.072 9  15656897.954 8
  20590586.590    20590587.810   -39359269.301 8   6645068.942 8
  20912940.083    20912939.340   -56483070.351 9  52192113.599 9
 88  3 22  4 53 29.0800000  0  4G13G 6G11G 9
  22689674.566    22689677.253   -64242915.422 9  68268809.307 9
  20403012.204    20403012.048   -27769676.609 9  15668981.680 9
  20588569.780    20588570.981   -39369870.961 9   6636807.924 7
  20900628.998    20900627.620   -56547762.866 9  52141703.858 9
 88  3 22  4 53 59.0800000  0  4G13G 6G11G 9
  22671422.514    22671425.245   -64338829.697 9  68194070.934 9
  20406061.036    20406061.485   -27753651.168 9  15681469.021 8
  20586653.261    20586653.835   -39379940.467 9   6628961.560 7
  20888384.336    20888383.619   -56612109.404 9  52091563.711 8
 88  3 22  4 54 29.0800000  0  4G13G 6G11G 9
  22653235.079    22653237.181   -64434404.782 9  68119596.876 9
  20409209.979    20409209.823   -27737106.921 9  15694360.637 8
  20584839.344    20584839.514   -39389478.860 9   6621529.060 8
  20876206.464    20876205.401   -56676107.516 9  52041695.063 9
 88  3 22  4 54 59.0800000  0  4G13G 6G11G 9
  22635112.687    22635114.530   -64529636.265 9  68045390.544 9
  20412456.069    20412457.957   -27720040.707 9  15707658.972 8
  20583124.863    20583125.709   -39398484.044 9   6614512.053 8
  20864094.151    20864093.657   -56739752.082 9  51992101.890 9
 88  3 22  4 55 29.0800000  0  4G13G 6G11G 9
  22617056.372    22617058.243   -64624524.628 9  67971451.594 9
  20415803.033    20415804.510   -27702453.610 9  15721363.190 9
  20581512.336    20581511.879   -39406959.202 9   6607908.036 8
  20852050.528    20852050.088   -56803042.444 9  51942784.737 9
 88  3 22  4 55 59.0800000  0  4G13G 6G11G 9
  22599065.956    22599067.655   -64719068.309 9  67897781.224 9
  20419249.248    20419250.884   -27684344.850 8  15735473.896 8
  20580000.052    20580001.206   -39414905.708 8   6601715.963 9
  20840075.211    20840075.049   -56865975.877 9  51893745.716 9
 88  3 22  4 56 29.0800000  0  4G13G 6G11G 9
  22581139.905    22581142.696   -64813263.742 9  67824382.207 8
  20422795.327    20422795.871   -27665711.719 8  15749993.217 9
  20578588.071    20578590.955   -39422321.711 9   6595937.270 8
  20828167.719    20828167.852   -56928547.633 9  51844988.506 8
 88  3 22  4 56 59.0800000  0  4G13G 6G11G 9
  22563282.825    22563283.868   -64907108.968 9  67751256.106 8
  20426440.738    20426440.972   -27646553.710 9  15764921.521 9
  20577277.580    20577280.212   -39429208.726 8   6590570.776 8
  20816329.707    20816329.600   -56990755.761 9  51796514.668 8
 88  3 22  4 57 29.0800000  0  4G13G 6G11G 9
  22545491.351    22545493.518   -65000602.053 9  67678404.377 9
  20430186.287    20430186.863   -27626869.992 9  15780259.463 9
  20576067.518    20576070.273   -39435567.712 9   6585615.732 9
  20804562.000    20804562.193   -57052597.212 9  51748326.521 9
 88  3 22  4 57 59.0800000  0  4G13G 6G11G 9
  22527767.439    22527769.934   -65093742.105 9  67605827.730 9
  20434033.035    20434032.291   -27606660.413 9  15796007.187 9
  20574958.156    20574959.564   -39441400.068 9   6581071.048 9
  20792864.258    20792863.610   -57114069.979 9  51700425.685 9
 88  3 22  4 58 29.0800000  0  4G13G 6G11G 9
  22510110.265    22510111.904   -65186527.094 9  67533527.780 8
  20437979.254    20437978.369   -27585923.966 9  15812165.451 9
  20573948.680    20573949.467   -39446706.794 9   6576935.947 7
  20781236.517    20781237.469   -57175171.378 9  51652814.196 9
 88  3 22  4 58 59.0800000  0  4G13G 6G11G 9
  22492522.789    22492524.238   -65278954.477 9  67461506.454 9
  20442025.452    20442024.809   -27564659.408 9  15828735.218 9
  20573037.783    20573040.448   -39451488.277 9   6573210.120 8
  20769681.015    20769680.644   -57235897.660 9  51605495.048 9
 88  3 22  4 59 29.0800000  0  4G13G 6G11G 9
  22475002.995    22475003.837   -65371023.669 9  67389764.257 8
  20446171.877    20446172.394   -27542867.296 9  15845716.076 9
  20572228.673    20572228.333   -39455746.705 8   6569891.887 7
  20758197.408    20758196.345   -57296247.903 9  51558468.899 9
 88  3 22  4 59 59.0800000  0  4G13G 6G11G 9
  22457551.393    22457552.419   -65462730.984 9  67318304.024 8
  20450419.577    20450419.936   -27520544.358 9  15863110.556 8
  20571517.704    20571519.006   -39459480.807 9   6566982.193 8
  20746784.585    20746785.181   -57356216.712 9  51511739.969 9
 88  3 22  5  0 29.0800000  0  4G13G 6G11G 9
  22440169.410    22440171.284   -65554075.536 9  67247126.475 9
  20454768.445    20454768.588   -27497691.144 8  15880918.250 8
  20570905.761    20570907.737   -39462692.925 9   6564479.257 7
  20735445.724    20735446.761   -57415802.473 9  51465309.506 8
 88  3 22  5  0 59.0800000  0  4G13G 6G11G 9
  22422855.955    22422858.285   -65645057.361 9  67176231.571 8
  20459218.610    20459218.583   -27474308.475 9  15899138.504 8
  20570393.890    20570395.111   -39465385.362 8   6562381.263 7
  20724180.864    20724180.313   -57475004.002 9  51419178.472 9
 88  3 22  5  1 29.0800000  0  4G13G 6G11G 9
  22405610.806    22405613.284   -65735673.653 9  67105621.503 8
  20463768.803    20463770.136   -27450394.796 8  15917772.512 9
  20569979.903    20569981.801   -39467558.276 9   6560688.103 8
  20712988.557    20712988.988   -57533817.856 9  51373349.498 9
 88  3 22  5  1 59.0800000  0  4G13G 6G11G 9
  22388439.120    22388440.167   -65825921.869 9  67035298.246 9
  20468420.072    20468423.063   -27425948.381 9  15936821.653 9
  20569665.759    20569666.377   -39469211.776 8   6559399.662 8
  20701870.728    20701871.413   -57592240.294 9  51327825.535 8
 88  3 22  5  2 29.0800000  0  4G13G 6G11G 9
  22371335.044    22371336.999   -65915800.331 9  66965263.100 8
  20473174.058    20473174.403   -27400969.134 9  15956286.003 9
  20569449.512    20569450.185   -39470347.120 8   6558514.996 9
  20690828.925    20690828.689   -57650268.666 9  51282608.624 9
 88  3 22  5  2 59.0800000  0  4G13G 6G11G 9
  22354301.222    22354304.349   -66005308.274 9  66895516.692 8
  20478028.941    20478028.486   -27375456.900 9  15976165.634 9
  20569331.958    20569332.663   -39470966.118 9   6558032.652 9
  20679861.032    20679861.767   -57707901.049 9  51237700.278 9
 88  3 22  5  3 29.0800000  0  4G13G 6G11G 9
  22337340.206    22337342.889   -66094442.780 9  66826061.255 8
  20482985.480    20482986.856   -27349409.718 9  15996462.127 8
  20569310.937    20569313.659   -39471068.745 9   6557952.707 8
  20668970.638    20668970.637   -57765133.365 9  51193103.678 9
 88  3 22  5  3 59.0800000  0  4G13G 6G11G 9
  22320449.483    22320452.306   -66183203.013 9  66756897.480 9
  20488043.784    20488043.699   -27322828.178 8  16017175.004 8
  20569390.991    20569391.747   -39470657.074 9   6558273.496 9
  20658157.485    20658156.854   -57821964.017 9  51148820.061 9
 88  3 22  5  4 29.0800000  0  4G13G 6G11G 9
  22303629.924    22303633.399   -66271587.392 9  66688026.547 9
  20493204.123    20493203.653   -27295711.808 8  16038304.633 9
  20569565.070    20569567.206   -39469732.240 8   6558994.161 8
  20647419.450    20647418.705   -57878390.274 9  51104851.555 8
 88  3 22  5  4 59.0800000  0  4G13G 6G11G 9
  22286883.199    22286886.524   -66359592.785 9  66619450.944 9
  20498464.917    20498466.124   -27268058.931 8  16059852.322 8
  20569840.233    20569840.900   -39468294.196 8   6560114.731 9
  20636758.163    20636758.832   -57934408.355 9  51061201.120 8
 88  3 22  5  5 29.0800000  0  4G13G 6G11G 9
  22270208.964    22270210.775   -66447219.320 9  66551170.558 8
  20503828.948    20503829.007   -27239870.444 9  16081817.354 9
  20570210.614    20570212.012   -39466345.828 9   6561632.949 8
  20626176.768    20626176.211   -57990016.955 9  51017869.750 9
 88  3 22  5  5 59.0800000  0  4G13G 6G11G 9
  22253606.607    22253608.506   -66534464.715 9  66483187.159 8
  20509296.868    20509296.956   -27211145.397 9  16104200.495 9
  20570678.100    20570679.843   -39463887.812 8   6563548.311 7
  20615673.311    20615674.009   -58045212.811 9  50974859.994 9
 88  3 22  5  6 29.0800000  0  4G13G 6G11G 9
  22237077.124    22237077.237   -66621326.626 8  66415502.573 8
  20514864.305    20514865.957   -27181881.945 9  16127003.161 8
  20571243.319    20571244.770   -39460920.001 9   6565860.883 8
  20605248.270    20605248.219   -58099992.015 9  50932174.897 9
 88  3 22  5  6 59.0800000  0  4G13G 6G11G 9
  22220621.295    22220623.522   -66707804.291 9  66348117.389 9
  20520535.572    20520536.574   -27152080.899 9  16150224.741 9
  20571905.214    20571905.652   -39457444.864 9   6568568.807 8
  20594904.172    20594904.775   -58154352.871 9  50889815.810 8
 88  3 22  5  7 29.0800000  0  4G13G 6G11G 9
  22204238.526    22204239.432   -66793897.183 9  66281032.051 8
  20526308.734    20526309.422   -27121743.260 9  16173864.455 9
  20572662.196    20572663.093   -39453465.289 9   6571669.778 7
  20584639.771    20584639.234   -58208294.488 9  50847783.381 7
 88  3 22  5  7 59.0800000  0  4G13G 6G11G 9
  22187928.848    22187931.040   -66879602.075 9  66214249.052 9
  20532184.692    20532185.211   -27090866.491 9  16197924.238 9
  20573514.742    20573517.397   -39448980.294 9   6575164.602 8
  20574455.650    20574455.669   -58261811.817 9  50806081.566 8
 88  3 22  5  8 29.0800000  0  4G13G 6G11G 9
  22171693.680    22171696.292   -66964916.119 9  66147770.588 9
  20538162.803    20538163.937   -27059449.123 9  16222405.295 8
  20574465.746    20574467.298   -39443989.888 8   6579053.234 8
  20564352.084    20564352.844   -58314901.029 8  50764713.353 8
 88  3 22  5  8 59.0800000  0  4G13G 6G11G 9
  22155532.770    22155535.709   -67049840.269 9  66081595.954 9
  20544243.698    20544244.372   -27027493.123 9  16247306.055 9
  20575509.925    20575510.693   -39438497.783 8   6583332.807 8
  20554331.380    20554331.084   -58367561.857 9  50723678.950 8
 88  3 22  5  9 29.0800000  0  4G13G 6G11G 9
  22139448.119    22139449.420   -67134373.628 9  66015725.806 9
  20550427.911    20550427.754   -26994998.922 9  16272626.191 9
  20576650.090    20576650.840   -39432506.382 8   6588001.437 8
  20544391.883    20544393.095   -58419792.413 9  50682979.823 9
 88  3 22  5  9 59.0800000  0  4G13G 6G11G 9
  22123437.185    22123438.061   -67218511.828 9  65950163.575 8
  20556713.552    20556714.697   -26961963.622 9  16298367.973 9
  20577885.806    20577887.723   -39426014.005 8   6593060.442 8
  20534535.592    20534535.894   -58471587.497 9  50642620.021 9
 88  3 22  5 10 29.0800000  0  4G13G 6G11G 9
  22107501.092    22107502.765   -67302254.587 9  65884909.499 8
  20563103.571    20563103.531   -26928387.435 9  16324531.216 9
  20579215.875    20579217.579   -39419022.842 9   6598508.120 8
  20524763.489    20524763.714   -58522944.858 8  50602601.305 9
 88  3 22  5 10 59.0800000  0  4G13G 6G11G 9
  22091640.662    22091642.959   -67385600.318 9  65819964.797 9
  20569595.454    20569597.046   -26894270.719 9  16351115.649 8
  20580640.481    20580641.760   -39411535.212 8   6604342.653 8
  20515073.889    20515075.364   -58573862.488 9  50562925.235 9
 88  3 22  5 11 29.0800000  0  4G13G 6G11G 9
  22075855.833    22075858.087   -67468547.969 9  65755330.300 8
  20576191.163    20576192.413   -26859612.991 9  16378121.663 9
  20582159.212    20582160.501   -39403551.898 8   6610563.424 7
  20505468.311    20505469.392   -58624337.552 9  50523594.025 8
 88  3 22  5 11 59.0800000  0  4G13G 6G11G 9
  22060147.389    22060149.375   -67551096.683 9  65691006.650 8
  20582889.789    20582889.662   -26824414.798 9  16405548.797 9
  20583773.220    20583773.333   -39395075.031 9   6617168.775 7
  20495948.767    20495948.393   -58674368.099 9  50484609.197 9
 88  3 22  5 12 29.0800000  0  4G13G 6G11G 9
  22044516.718    22044517.439   -67633244.855 9  65626995.105 9
  20589689.535    20589690.854   -26788675.568 9  16433397.528 9
  20585479.384    20585481.421   -39386105.815 8   6624157.787 9
  20486514.064    20486513.101   -58723951.308 9  50445972.928 9
 88  3 22  5 12 59.0800000  0  4G13G 6G11G 9
  22028958.915    22028961.771   -67714990.999 9  65563296.835 8
  20596593.051    20596594.728   -26752394.856 9  16461668.196 9
  20587279.674    20587281.783   -39376645.255 9   6631529.658 7
  20477162.938    20477164.190   -58773083.984 9  50407687.733 8
 88  3 22  5 13 29.0800000  0  4G13G 6G11G 9
  22013480.780    22013482.423   -67796333.536 9  65499913.078 8
  20603600.694    20603601.283   -26715572.394 9  16490361.003 9
  20589173.132    20589174.677   -39366694.737 9   6639283.317 8
  20467900.868    20467900.689   -58821763.648 9  50369755.534 9
 88  3 22  5 13 59.0800000  0  4G13G 6G11G 9
  21998078.368    21998080.862   -67877270.593 9  65436845.259 9
  20610710.849    20610711.844   -26678207.922 9  16519476.143 9
  20591160.224    20591161.267   -39356255.899 9   6647417.491 8
  20458724.126    20458724.101   -58869987.637 9  50332178.396 8
 88  3 22  5 14 29.0800000  0  4G13G 6G11G 9
  21982755.064    21982756.404   -67957800.193 9  65374094.961 8
  20617924.692    20617925.395   -26640301.030 9  16549013.968 8
  20593239.358    20593240.077   -39345329.719 9   6655931.407 8
  20449634.795    20449633.572   -58917752.842 9  50294958.766 9
 88  3 22  5 14 59.0800000  0  4G13G 6G11G 9
  21967508.842    21967509.974   -68037921.240 9  65311662.993 9
  20625241.871    20625242.089   -26601851.406 9  16578974.686 9
  20595410.918    20595411.304   -39333917.538 9   6664824.023 8
  20440632.842    20440632.793   -58965056.552 9  50258098.746 8
 88  3 22  5 15 29.0800000  0  4G13G 6G11G 9
  21952339.846    21952341.616   -68117633.546 9  65249549.530 9
  20632661.650    20632662.642   -26562860.637 9  16609357.071 9
  20597674.769    20597674.626   -39322022.526 9   6674092.874 8
  20431719.081    20431719.503   -59011897.754 9  50221599.112 9
 88  3 22  5 15 59.0800000  0  4G13G 6G11G 9
  21937250.205    21937250.271   -68196935.623 9  65187755.728 9
  20640183.881    20640184.501   -26523327.961 9  16640161.742 9
  20600029.465    20600029.643   -39309645.735 9   6683737.144 7
  20422893.446    20422894.466   -59058273.088 9  50185462.490 9
 88  3 22  5 16 29.0800000  0  4G13G 6G11G 9
  21922236.689    21922238.087   -68275825.488 9  65126283.145 8
  20647810.745    20647811.617   -26483252.670 8  16671389.203 9
  20602476.563    20602476.713   -39296787.655 9   6693756.430 8
  20414157.856    20414159.125   -59104179.435 9  50149691.322 9
 88  3 22  5 16 59.0800000  0  4G13G 6G11G 9
  21907303.059    21907303.794   -68354301.902 9  65065132.705 8
  20655539.911    20655540.416   -26442634.740 9  16703039.516 8
  20605014.279    20605015.627   -39283450.264 9   6704149.208 7
  20405512.843    20405512.041   -59149614.288 9  50114287.549 9
 88  3 22  5 17 29.0800000  0  4G13G 6G11G 9
  21892447.361    21892449.074   -68432363.812 9  65004305.281 8
  20663373.171    20663373.213   -26401474.920 9  16735112.084 9
  20607643.500    20607644.930   -39269635.391 9   6714914.060 8
  20396956.027    20396956.810   -59194575.822 9  50079252.588 9
 88  3 22  5 17 59.0800000  0  4G13G 6G11G 9
  21877672.570    21877673.327   -68510009.536 9  64943802.136 9
  20671308.479    20671308.781   -26359772.569 9  16767607.394 9
  20610363.453    20610363.055   -39255344.001 9   6726050.212 8
  20388491.756    20388491.140   -59239060.629 9  50044589.113 9
 88  3 22  5 18 29.0800000  0  4G13G 6G11G 9
  21862976.568    21862977.954   -68587238.371 9  64883623.832 8
  20679347.187    20679347.805   -26317528.112 8  16800525.132 9
  20613173.208    20613173.416   -39240577.998 8   6737556.202 8
  20380117.027    20380118.136   -59283066.575 9  50010298.764 9
 88  3 22  5 18 59.0800000  0  4G13G 6G11G 9
  21848360.469    21848360.198   -68664048.982 9  64823771.442 8
  20687489.564    20687488.252   -26274741.826 9  16833865.082 9
  20616071.955    20616072.562   -39225339.598 9   6749430.289 8
  20371834.026    20371834.826   -59326591.136 9  49976383.532 9
 88  3 22  5 19 29.0800000  0  4G13G 6G11G 9
  21833822.218    21833824.196   -68740440.195 9  64764245.834 8
  20695734.210    20695733.323   -26231413.997 9  16867627.008 9
  20619062.318    20619062.363   -39209630.683 9   6761671.022 8
  20363644.686    20363645.543   -59369632.294 9  49942844.974 9
 88  3 22  5 19 59.0800000  0  4G13G 6G11G 9
  21819367.003    21819366.940   -68816410.640 9  64705048.127 8
  20704082.297    20704082.397   -26187544.012 9  16901811.394 9
  20622140.571    20622141.326   -39193452.410 8   6774277.483 8
  20355546.079    20355545.837   -59412187.077 8  49909685.411 9
 88  3 22  5 20 29.0800000  0  4G13G 6G11G 9
  21804990.544    21804991.474   -68891959.122 8  64646179.205 9
  20712532.751    20712533.813   -26143132.455 9  16936417.786 8
  20625308.073    20625307.995   -39176806.161 9   6787248.589 8
  20347541.614    20347541.722   -59454253.029 9  49876906.760 8
 88  3 22  5 20 59.0800000  0  4G13G 6G11G 9
  21790694.437    21790695.355   -68967084.178 9  64587640.217 8
  20721087.305    20721088.537   -26098178.824 9  16971446.580 8
  20628564.557    20628565.292   -39159693.396 8   6800583.230 8
  20339629.576    20339629.726   -59495827.068 9  49844511.408 8
 88  3 22  5 21 29.0800000  0  4G13G 6G11G 9
  21776478.363    21776480.729   -69041784.895 9  64529431.882 8
  20729744.829    20729745.802   -26052684.360 9  17006896.777 9
  20631909.161    20631910.139   -39142116.784 8   6814279.292 8
  20331812.687    20331813.487   -59536907.706 9  49812500.520 8
 88  3 22  5 21 59.0800000  0  4G13G 6G11G 9
  21762344.751    21762345.365   -69116060.929 9  64471554.476 8
  20738504.989    20738504.979   -26006649.064 9  17042768.402 8
  20635342.009    20635342.777   -39124077.757 9   6828335.691 8
  20324089.982    20324089.798   -59577492.335 9  49780876.143 8
 88  3 22  5 22 29.0800000  0  4G13G 6G11G 9
  21748292.186    21748292.800   -69189909.852 9  64414009.886 8
  20747368.337    20747368.237   -25960072.084 9  17079062.139 8
  20638862.948    20638862.762   -39105576.688 9   6842752.120 8
  20316462.010    20316461.510   -59617577.281 9  49749641.119 8
 88  3 22  5 22 59.0800000  0  4G13G 6G11G 9
  21734320.960    21734320.729   -69263331.778 9  64356798.024 8
  20756334.180    20756334.556   -25912955.194 9  17115776.571 8
  20642470.366    20642471.206   -39086617.042 8   6857525.868 8
  20308927.831    20308929.115   -59657161.684 9  49718796.137 8
 88  3 22  5 23 29.0800000  0  4G13G 6G11G 9
  21720430.583    21720431.515   -69336324.864 9  64299920.307 8
  20765403.279    20765403.406   -25865297.874 9  17152912.126 8
  20646166.002    20646165.874   -39067199.775 9   6872656.218 8
  20301491.888    20301491.772   -59696242.378 9  49688343.648 8
 88  3 22  5 23 59.0800000  0  4G13G 6G11G 9
  21706620.848    21706623.110   -69408887.500 9  64243378.013 9
  20774575.086    20774575.205   -25817099.564 9  17190469.223 8
  20649948.074    20649948.042   -39047325.728 9   6888142.496 8
  20294151.914    20294152.207   -59734816.194 9  49658286.131 8
 88  3 22  5 24 29.0800000  0  4G13G 6G11G 9
  21692895.404    21692896.505   -69481020.648 9  64187170.387 8
  20783849.924    20783849.942   -25768362.736 9  17228445.956 8
  20653815.465    20653815.879   -39026998.989 9   6903981.529 8
  20286907.651    20286908.797   -59772882.666 8  49628623.936 8
 88  3 22  5 24 59.0800000  0  4G13G 6G11G 9
  21679251.758    21679252.456   -69552722.138 9  64131299.113 9
  20793227.914    20793227.102   -25719086.791 9  17266842.778 9
  20657769.900    20657771.055   -39006220.361 9   6920172.678 9
  20279761.492    20279761.539   -59810438.437 9  49599359.700 9
 88  3 22  5 25 29.0800000  0  4G13G 6G11G 9
  21665688.978    21665690.269   -69623990.873 9  64075765.038 8
  20802706.111    20802706.515   -25669271.837 9  17305659.601 9
  20661808.430    20661809.860   -38984991.186 9   6936714.889 9
  20272713.074    20272713.299   -59847480.849 8  49570495.489 9
 88  3 22  5 25 59.0800000  0  4G13G 6G11G 9
  21652209.365    21652209.918   -69694826.010 9  64020568.855 9
  20812288.123    20812288.466   -25618918.594 9  17344895.877 9
  20665934.228    20665935.121   -38963313.812 9   6953606.375 8
  20265761.349    20265761.530   -59884007.996 9  49542032.783 8
 88  3 22  5 26 29.0800000  0  4G13G 6G11G 9
  21638812.486    21638813.924   -69765226.496 9  63965711.360 9
  20821971.616    20821973.365   -25568027.638 9  17384551.144 9
  20670144.199    20670145.303   -38941189.998 9   6970845.701 9
  20258910.618    20258909.485   -59920017.724 9  49513973.254 8
 88  3 22  5 26 59.0800000  0  4G13G 6G11G 9
  21625498.495    21625500.340   -69835191.418 9  63911193.251 9
  20831758.176    20831759.198   -25516599.038 9  17424625.363 9
  20674439.624    20674438.499   -38918621.181 8   6988431.808 8
  20252155.744    20252156.660   -59955507.137 9  49486319.159 8
 88  3 22  5 27 29.0800000  0  4G13G 6G11G 9
  21612268.476    21612270.407   -69904718.758 9  63857016.124 9
  20841647.176    20841647.768   -25464632.468 9  17465118.768 8
  20678818.266    20678819.516   -38895608.511 9   7006363.762 9
  20245502.240    20245501.309   -59990473.027 9  49459073.019 8
 88  3 22  5 27 59.0800000  0  4G13G 6G11G 9
  21599121.063    21599122.099   -69973808.987 9  63803179.599 9
  20851639.118    20851639.364   -25412129.295 9  17506030.312 8
  20683281.148    20683282.284   -38872154.831 9   7024639.365 9
  20238948.395    20238948.129   -60024914.218 8  49432235.735 8
 88  3 22  5 28 29.0800000  0  4G13G 6G11G 9
  21586056.268    21586058.549   -70042461.069 9  63749684.494 9
  20861732.756    20861731.698   -25359090.455 9  17547359.259 7
  20687827.952    20687829.657   -38848262.185 8   7043257.017 8
  20232494.689    20232494.594   -60058828.650 9  49405808.904 8
 88  3 22  5 28 59.0800000  0  4G13G 6G11G 9
  21573074.677    21573078.390   -70110674.180 9  63696531.446 9
  20871926.841    20871926.542   -25305516.796 9  17589104.953 9
  20692457.720    20692459.588   -38823932.631 9   7062215.111 8
  20226141.830    20226142.694   -60092214.577 9  49379793.892 8
 88  3 22  5 29 29.0800000  0  4G13G 6G11G 9
  21560180.081    21560181.216   -70178447.447 9  63643721.136 9
  20882224.672    20882222.897   -25251408.184 9  17631267.490 8
  20697171.248    20697171.399   -38799167.532 9   7081512.592 8
  20219889.589    20219889.013   -60125069.124 8  49354192.957 8
 88  3 22  5 29 59.0800000  0  4G13G 6G11G 9
  21547367.783    21547366.598   -70245778.508 8  63591255.405 8
  20892622.249    20892622.623   -25196763.962 9  17673847.390 8
  20701965.400    20701966.960   -38773967.829 8   7101148.738 9
  20213738.739    20213738.862   -60157388.516 8  49329009.027 8
 88  3 22  5 30 29.0800000  0  4G13G 6G11G 9
  21534638.122    21534638.963   -70312668.301 9  63539133.500 9
  20903121.420    20903121.565   -25141586.456 9  17716842.826 9
  20706843.501    20706843.753   -38748336.955 8   7121120.853 9
  20207691.189    20207691.441   -60189172.394 9  49304242.359 8
 88  3 22  5 30 59.0800000  0  4G13G 6G11G 9
  21521992.991    21521995.233   -70379114.705 9  63487357.097 8
  20913722.389    20913722.848   -25085875.509 9  17760253.930 8
  20711802.157    20711803.265   -38722275.824 9   7141428.229 9
  20201745.141    20201745.619   -60220417.533 8  49279895.497 8
 88  3 22  5 31 29.0800000  0  4G13G 6G11G 9
  21509432.452    21509435.146   -70445118.274 9  63435925.771 9
  20924425.582    20924426.102   -25029632.287 9  17804079.794 9
  20716843.126    20716844.339   -38695787.251 8   7162068.672 8
  20195901.678    20195901.856   -60251122.554 9  49255969.512 8
 88  3 22  5 31 59.0800000  0  4G13G 6G11G 9
  21496957.532    21496959.479   -70510678.561 9  63384839.851 9
  20935230.098    20935229.802   -24972858.381 9  17848319.166 8
  20721963.155    20721965.398   -38668873.983 8   7183040.049 9
  20190160.953    20190162.028   -60281286.047 9  49232465.499 8
 88  3 22  5 32 29.0800000  0  4G13G 6G11G 9
  21484565.661    21484567.620   -70575793.609 9  63334100.887 9
  20946134.783    20946135.957   -24915553.089 9  17892972.634 7
  20727165.818    20727166.911   -38641536.627 8   7204341.881 9
  20184525.548    20184525.931   -60310904.456 9  49209386.215 8
 88  3 22  5 32 59.0800000  0  4G13G 6G11G 9
  21472261.005    21472261.721   -70640463.382 9  63283708.884 8
  20957140.484    20957141.131   -24857717.841 9  17938039.037 8
  20732448.142    20732450.004   -38613777.670 8   7225972.244 8
  20178994.094    20178994.404   -60339976.362 8  49186732.798 9
 88  3 22  5 33 29.0800000  0  4G13G 6G11G 9
  21460039.206    21460040.636   -70704685.661 9  63233665.550 8
  20968247.499    20968247.043   -24799351.660 9  17983519.156 8
  20737810.718    20737812.360   -38585597.463 9   7247930.843 9
  20173566.763    20173567.212   -60368497.895 8  49164508.225 9
 88  3 22  5 33 59.0800000  0  4G13G 6G11G 9
  21447903.685    21447904.222   -70768461.044 9  63183970.468 7
  20979454.292    20979454.720   -24740457.033 9  18029411.038 7
  20743253.672    20743255.305   -38556999.462 9   7270215.013 9
  20168243.724    20168244.160   -60396468.657 8  49142712.840 8
 88  3 22  5 34 29.0800000  0  4G13G 6G11G 9
  21435852.795    21435853.357   -70831788.915 9  63134624.079 8
  20990761.129    20990762.249   -24681034.537 9  18075714.236 8
  20748774.467    20748775.202   -38527985.994 9   7292822.915 9
  20163024.921    20163026.750   -60423886.377 8  49121348.383 7
 88  3 22  5 34 59.0800000  0  4G13G 6G11G 9
  21423886.856    21423886.746   -70894668.255 9  63085627.204 8
  21002169.595    21002169.768   -24621085.063 9  18122428.094 8
  20754373.992    20754375.820   -38498558.745 8   7315753.227 9
  20157914.811    20157914.419   -60450748.994 9  49100416.480 8
 88  3 22  5 35 29.0800000  0  4G13G 6G11G 9
  21412006.860    21412008.137   -70957098.051 9  63036980.638 8
  21013677.609    21013678.225   -24560608.887 9  18169552.377 9
  20760052.212    20760053.499   -38468719.321 8   7339004.721 8
  20152908.808    20152908.443   -60477053.972 8  49079919.081 9
 88  3 22  5 35 59.0800000  0  4G13G 6G11G 9
  21400212.873    21400213.572   -71019078.439 9  62988684.260 8
  21025286.019    21025286.906   -24499607.493 9  18217085.907 9
  20765809.407    20765809.964   -38438470.370 9   7362575.349 9
  20148008.642    20148009.077   -60502800.216 8  49059857.093 8
 88  3 22  5 36 29.0800000  0  4G13G 6G11G 9
  21388503.779    21388505.189   -71080608.508 9  62940738.761 9
  21036993.889    21036994.493   -24438081.282 9  18265028.388 7
  20771642.503    20771644.214   -38407813.174 9   7386464.077 9
  20143216.712    20143217.900   -60527984.466 9  49040233.005 9
 88  3 22  5 36 59.0800000  0  4G13G 6G11G 9
  21376880.715    21376882.452   -71141687.698 9  62893144.586 9
  21048801.177    21048802.269   -24376031.368 9  18313378.950 8
  20777554.186    20777556.014   -38376750.149 8   7410669.030 9
  20138531.635    20138531.266   -60552605.484 8  49021047.805 8
 88  3 22  5 37 29.0800000  0  4G13G 6G11G 9
  21365343.350    21365344.521   -71202315.553 9  62845902.117 9
  21060708.561    21060709.320   -24313458.969 9  18362136.633 8
  20783540.357    20783543.865   -38345283.821 9   7435188.244 8
  20133953.610    20133954.488   -60576661.456 8  49002302.876 8
 88  3 22  5 37 59.0800000  0  4G13G 6G11G 9
  21353892.075    21353893.788   -71262491.362 9  62799011.886 8
  21072715.194    21072716.167   -24250364.768 9  18411300.915 9
  20789605.445    20789606.993   -38313415.499 8   7460020.703 9
  20129485.693    20129484.999   -60600150.122 8  48984000.024 8
 88  3 22  5 38 29.0800000  0  4G13G 6G11G 9
  21342527.235    21342527.420   -71322214.658 9  62752474.280 9
  21084821.246    21084821.693   -24186749.848 9  18460870.961 8
  20795746.167    20795747.165   -38281147.340 9   7485164.729 9
  20125123.640    20125123.174   -60623069.621 9  48966140.680 8
 88  3 22  5 38 59.0800000  0  4G13G 6G11G 9
  21331248.745    21331249.690   -71381486.023 9  62706288.828 9
  21097025.689    21097025.202   -24122615.757 9  18510845.557 9
  20801961.651    20801962.726   -38248482.650 9   7510617.742 8
  20120870.793    20120870.021   -60645418.809 7  48948725.726 8
 88  3 22  5 39 29.0800000  0  4G13G 6G11G 9
  21320055.485    21320056.746   -71440302.662 9  62660457.711 8
  21109329.422    21109328.797   -24057961.764 9  18561225.285 8
  20808253.174    20808254.936   -38215421.350 9   7536379.795 9
  20116726.349    20116726.631   -60667193.763 8  48931758.223 8
 88  3 22  5 39 59.0800000  0  4G13G 6G11G 9
  21308949.312    21308950.694   -71498664.919 9  62614980.649 9
  21121730.344    21121731.377   -23992790.073 9  18612008.398 8
  20814618.567    20814622.089   -38181966.795 9   7562448.281 9
  20112692.467    20112691.073   -60688393.967 8  48915238.594 7
 88  3 22  5 40 29.0800000  0  4G13G 6G11G 9
  21297930.439    21297931.209   -71556572.711 9  62569857.719 9
  21134230.360    21134231.120   -23927102.013 9  18663193.871 8
  20821059.581    20821062.044   -38148121.463 9   7588821.275 9
  20108768.144    20108766.747   -60709017.842 9  48899168.032 7
 88  3 22  5 40 59.0800000  0  4G13G 6G11G 9
  21286997.498    21286998.869   -71614025.179 9  62525089.568 9
  21146828.889    21146828.992   -23860897.777 9  18714781.579 9
  20827574.734    20827576.376   -38113886.026 9   7615498.222 9
  20104953.969    20104952.527   -60729062.491 9  48883548.826 7
 88  3 22  5 41 29.0800000  0  4G13G 6G11G 9
  21276151.006    21276152.244   -71671022.740 8  62480675.909 9
  21159525.153    21159525.229   -23794179.265 9  18766770.021 9
  20834163.379    20834164.383   -38079263.878 9   7642476.535 9
  20101250.204    20101248.504   -60748527.011 9  48868381.666 7
 88  3 22  5 41 59.0800000  0  4G13G 6G11G 9
  21265391.234    21265392.053   -71727564.333 9  62436617.554 8
  21172319.963    21172319.109   -23726947.270 9  18819158.569 8
  20840825.223    20840826.359   -38044256.852 9   7669754.730 8
  20097655.601    20097655.798   -60767409.232 9  48853668.252 7
 88  3 22  5 42 29.0800000  0  4G13G 6G11G 9
  21254718.682    21254720.081   -71783649.879 9  62392914.551 8
  21185209.988    21185210.206   -23659203.301 9  18871946.061 9
  20847559.393    20847560.820   -38008867.207 8   7697331.089 9
  20094174.024    20094173.271   -60785707.666 8  48839409.717 8
 88  3 22  5 42 59.0800000  0  4G13G 6G11G 9
  21244132.478    21244134.650   -71839279.702 9  62349566.671 9
  21198197.859    21198198.949   -23590949.210 9  18925131.032 9
  20854365.160    20854367.214   -37973097.713 9   7725203.433 8
  20090803.377    20090803.273   -60803421.510 8  48825606.733 9
 88  3 22  5 43 29.0800000  0  4G13G 6G11G 9
  21233634.164    21233635.373   -71894452.133 9  62306575.189 9
  21211283.948    21211284.223   -23522184.616 9  18978713.809 8
  20861245.054    20861245.331   -37936948.960 9   7753371.297 9
  20087545.114    20087543.951   -60820547.200 9  48812262.038 7
 88  3 22  5 43 59.0800000  0  4G13G 6G11G 9
  21223222.633    21223222.206   -71949166.706 9  62263940.466 8
  21224466.796    21224465.910   -23452910.878 9  19032693.320 9
  20868194.954    20868196.251   -37900423.469 9   7781832.716 9
  20084397.441    20084396.137   -60837083.161 9  48799376.856 7
 88  3 22  5 44 29.0800000  0  4G13G 6G11G 9
  21212897.820    21212898.736   -72003423.751 9  62221662.273 8
  21237745.474    21237745.816   -23383129.680 9  19087068.269 9
  20875218.089    20875218.103   -37863523.636 9   7810585.844 8
  20081363.144    20081362.738   -60853028.399 9  48786951.995 7
 88  3 22  5 44 59.0800000  0  4G13G 6G11G 9
  21202660.054    21202660.614   -72057222.729 9  62179741.020 8
  21251120.349    21251121.023   -23312842.012 9  19141837.861 8
  20882310.675    20882311.625   -37826251.307 9   7839629.221 8
  20078442.955    20078440.303   -60868380.819 8  48774989.068 7
 88  3 22  5 45 29.0800000  0  4G13G 6G11G 9
  21192508.938    21192510.878   -72110563.338 9  62138176.924 8
  21264592.143    21264592.845   -23242049.459 9  19197000.866 8
  20889473.405    20889475.050   -37788608.896 9   7868960.974 8
  20075633.902    20075632.827   -60883139.272 8  48763488.967 7
 88  3 22  5 45 59.0800000  0  4G13G 6G11G 9
  21182445.792    21182446.826   -72163446.371 9  62096969.389 8
  21278159.079    21278159.709   -23170754.196 9  19252555.590 9
  20896706.106    20896707.368   -37750599.269 9   7898578.880 8
  20072939.058    20072936.574   -60897302.679 9  48752452.550 8
 88  3 22  5 46 29.0800000  0  4G13G 6G11G 9
  21172470.669    21172471.665   -72215870.084 9  62056119.759 9
  21291821.726    21291822.413   -23098956.186 9  19308502.056 8
  20904008.494    20904010.204   -37712223.311 9   7928482.215 9
  20070356.902    20070357.072   -60910868.176 8  48741882.017 7
 88  3 22  5 46 59.0800000  0  4G13G 6G11G 9
  21162582.544    21162582.427   -72267834.979 9  62015627.660 9
  21305579.886    21305580.193   -23026656.702 9  19364839.289 9
  20911380.355    20911380.964   -37673483.641 9   7958668.984 9
  20067889.482    20067888.495   -60923834.395 8  48731778.461 7
 88  3 22  5 47 29.0800000  0  4G13G 6G11G 9
  21152780.772    21152781.398   -72319341.761 9  61975492.504 9
  21319432.507    21319433.981   -22953858.823 9  19421564.884 8
  20918821.759    20918821.962   -37634383.475 9   7989136.656 8
  20065536.128    20065534.899   -60936201.032 8  48722142.104 7
 88  3 22  5 47 59.0800000  0  4G13G 6G11G 9
  21143067.409    21143066.820   -72370389.142 9  61935715.342 8
  21333380.353    21333380.812   -22880562.176 9  19478679.145 9
  20926330.302    20926331.300   -37594924.231 9   8019884.123 9
  20063297.563    20063295.872   -60947965.478 8  48712975.013 7
 88  3 22  5 48 29.0800000  0  4G13G 6G11G 9
  21133439.406    21133440.372   -72420976.697 9  61896296.490 9
  21347423.697    21347423.598   -22806768.897 9  19536180.376 8
  20933905.880    20933906.644   -37555107.915 9   8050909.828 9
  20061174.061    20061172.194   -60959126.167 8  48704278.364 8
 88  3 22  5 48 59.0800000  0  4G13G 6G11G 9
  21123901.232    21123901.316   -72471104.597 9  61857235.803 9
  21361559.868    21361560.656   -22732479.575 9  19594068.141 9
  20941550.498    20941552.297   -37514936.415 9   8082212.297 8
  20059164.413    20059163.714   -60969681.645 8  48696053.294 7
 88  3 22  5 49 29.0800000  0  4G13G 6G11G 9
  21114449.333    21114449.353   -72520773.695 9  61818532.626 9
  21375790.192    21375791.665   -22657697.509 9  19652339.847 9
  20949261.836    20949263.401   -37474413.522 8   8113788.587 9
  20057271.974    20057270.691   -60979631.692 8  48688300.000 7
 88  3 22  5 49 59.0800000  0  4G13G 6G11G 9
  21105084.861    21105085.450   -72569982.821 9  61780187.867 9
  21390115.082    21390115.285   -22582422.456 9  19710995.714 9
  20957040.393    20957041.131   -37433539.929 9   8145638.123 9
  20055494.042    20055493.431   -60988973.480 8  48681020.701 7
 88  3 22  5 50 29.0800000  0  4G13G 6G11G 9
  21095807.775    21095807.765   -72618730.902 9  61742202.369 9
  21404533.643    21404532.483   -22506655.447 9  19770034.920 8
  20964884.750    20964885.663   -37392317.065 9   8177759.840 8
  20053831.762    20053832.456   -60997705.126 9  48674216.798 7
 88  3 22  5 50 59.0800000  0  4G13G 6G11G 9
  21086619.703    21086619.995   -72667019.524 9  61704574.880 8
  21419043.997    21419045.303   -22430399.181 9  19829455.375 8
  20972794.855    20972795.890   -37350748.132 8   8210151.220 9
  20052287.626    20052287.328   -61005826.116 7  48667888.740 8
 88  3 22  5 51 29.0800000  0  4G13G 6G11G 9
  21077517.737    21077517.775   -72714848.721 9  61667305.391 8
  21433648.063    21433648.463   -22353655.619 9  19889255.541 8
  20980770.123    20980771.948   -37308836.552 8   8242809.600 8
  20050857.583    20050858.599   -61013336.093 9  48662036.809 8
 88  3 22  5 51 59.0800000  0  4G13G 6G11G 9
  21068502.914    21068504.340   -72762217.478 9  61630394.684 9
  21448344.320    21448344.266   -22276425.069 9  19949435.155 8
  20988810.876    20988812.063   -37266582.819 9   8275734.572 9
  20049545.258    20049545.550   -61020232.067 8  48656663.312 7
 88  3 22  5 52 29.0800000  0  4G13G 6G11G 9
  21059576.684    21059578.431   -72809126.046 9  61593842.573 8
  21463133.316    21463134.596   -22198709.123 9  20009993.012 9
  20996916.633    20996918.447   -37223989.346 9   8308924.290 9
  20048350.398    20048351.223   -61026513.060 9  48651769.032 7
 88  3 22  5 52 59.0800000  0  4G13G 6G11G 9
  21050737.270    21050740.231   -72855574.556 9  61557648.940 8
  21478014.352    21478014.011   -22120510.029 9  20070927.353 8
  21005086.197    21005086.386   -37181058.740 9   8342376.723 8
  20047272.152    20047273.741   -61032177.979 8  48647354.804 8
 88  3 22  5 53 29.0800000  0  4G13G 6G11G 9
  21041987.526    21041987.996   -72901563.995 9  61521813.044 9
  21492986.464    21492986.666   -22041830.121 9  20132236.361 9
  21013318.362    21013319.886   -37137794.109 9   8376089.424 9
  20046311.321    20046311.436   -61037226.815 8  48643420.642 7
 88  3 22  5 53 59.0800000  0  4G13G 6G11G 9
  21033322.919    21033324.451   -72947093.531 9  61486335.490 8
  21508049.755    21508050.784   -21962670.276 9  20193919.319 8
  21021615.255    21021616.751   -37094196.920 9   8410061.256 9
  20045469.913    20045469.097   -61041657.442 8  48639968.200 7
 88  3 22  5 54 29.0800000  0  4G13G 6G11G 9
  21024746.171    21024748.431   -72992162.650 9  61451216.711 8
  21523203.949    21523205.683   -21883031.651 9  20255975.382 8
  21029974.685    21029976.019   -37050269.037 9   8444290.788 9
  20044744.060    20044745.613   -61045468.095 8  48636998.843 7
 88  3 22  5 54 59.0800000  0  4G13G 6G11G 9
  21016257.652    21016258.839   -73036771.150 9  61416456.864 8
  21538449.868    21538450.844   -21802915.403 9  20318403.616 9
  21038396.126    21038397.837   -37006012.188 9   8478776.634 9
  20044137.375    20044136.728   -61048657.077 9  48634513.916 7
 88  3 22  5 55 29.0800000  0  4G13G 6G11G 9
  21007855.953    21007857.107   -73080920.310 9  61382054.948 9
  21553786.707    21553787.296   -21722324.320 9  20381201.833 9
  21046879.291    21046880.807   -36961429.614 9   8513516.296 9
  20043648.075    20043648.687   -61051224.436 9  48632513.367 7
 88  3 22  5 55 59.0800000  0  4G13G 6G11G 9
  20999541.711    20999543.170   -73124610.402 8  61348010.752 9
  21569212.477    21569212.179   -21641260.211 9  20444368.658 8
  21055425.399    21055426.620   -36916523.472 9   8548508.091 9
  20043277.493    20043279.126   -61053169.090 9  48630998.044 8
 88  3 22  5 56 29.0800000  0  4G13G 6G11G 9
  20991316.578    20991317.575   -73167841.088 9  61314324.518 8
  21584727.781    21584728.610   -21559724.745 9  20507902.758 9
  21064032.481    21064033.656   -36871296.202 8   8583750.119 9
  20043027.113    20043026.356   -61054489.872 8  48629968.853 7
 88  3 22  5 56 59.0800000  0  4G13G 6G11G 9
  20983177.353    20983178.653   -73210611.697 9  61280996.794 9
  21600332.944    21600333.647   -21477718.798 9  20571803.481 9
  21072699.696    21072700.537   -36825749.287 9   8619241.222 9
  20042893.605    20042893.895   -61055184.849 9  48629427.308 8
 88  3 22  5 57 29.0800000  0  4G13G 6G11G 9
  20975126.239    20975126.608   -73252922.368 9  61248027.453 9
  21616027.386    21616028.430   -21395243.680 9  20636069.770 9
  21081427.107    21081428.512   -36779884.539 9   8654979.991 9
  20042880.883    20042882.278   -61055252.741 8  48629374.398 7
 88  3 22  5 57 59.0800000  0  4G13G 6G11G 9
  20967161.440    20967162.977   -73294774.764 9  61215415.208 8
  21631810.514    21631811.445   -21312302.672 9  20700699.103 8
  21090214.377    21090217.009   -36733705.593 9   8690963.588 9
  20042987.238    20042988.344   -61054693.775 8  48629809.965 8
 88  3 22  5 58 29.0800000  0  4G13G 6G11G 9
  20959283.886    20959285.141   -73336169.018 9  61183159.966 9
  21647682.057    21647682.975   -21228897.654 9  20765690.009 8
  21099060.915    21099063.292   -36687214.548 9   8727190.373 9
  20043214.078    20043212.624   -61053507.225 7  48630734.546 8
 88  3 22  5 58 59.0800000  0  4G13G 6G11G 9
  20951493.030    20951495.681   -73377105.761 9  61151261.221 9
  21663642.235    21663642.020   -21145030.757 9  20831040.824 9
  21107966.825    21107969.523   -36640414.211 9   8763658.161 8
  20043558.898    20043559.343   -61051692.265 8  48632148.795 8
 88  3 22  5 59 29.0800000  0  4G13G 6G11G 9
  20943791.082    20943792.274   -73417583.230 9  61119720.360 9
  21679689.583    21679688.894   -21060701.785 9  20896751.697 9
  21116932.266    21116933.396   -36593305.287 9   8800366.418 8
  20044024.182    20044024.561   -61049246.186 9  48634054.814 7
 88  3 22  5 59 59.0800000  0  4G13G 6G11G 9
  20936175.218    20936178.135   -73457600.852 9  61088537.825 9
  21695823.226    21695824.658   -20975911.868 9  20962821.732 8
  21125955.660    21125955.536   -36545888.676 9   8837314.441 9
  20044610.119    20044609.984   -61046167.280 8  48636453.963 7
 88  3 22  6  0 29.0800000  0  4G13G 6G11G 9
  20928647.658    20928649.406   -73497161.341 9  61057711.484 9
  21712046.134    21712046.393   -20890665.412 9  21029247.511 9
  21135035.381    21135037.289   -36498169.109 9   8874498.509 9
  20045316.093    20045316.982   -61042457.044 9  48639345.047 7
 88  3 22  6  0 59.0800000  0  4G13G 6G11G 9
  20921206.636    20921208.191   -73536264.052 9  61027241.854 8
  21728354.379    21728354.697   -20804963.151 9  21096028.460 9
  21144173.683    21144175.411   -36450147.922 9   8911917.622 9
  20046142.981    20046142.820   -61038113.863 8  48642729.326 7
 88  3 22  6  1 29.0800000  0  4G13G 6G11G 9
  20913852.417    20913854.431   -73574909.919 9  60997128.201 9
  21744749.698    21744749.773   -20718807.592 9  21163162.658 8
  21153368.833    21153369.823   -36401827.770 9   8949569.697 9
  20047089.892    20047089.179   -61033136.982 9  48646607.432 7
 88  3 22  6  1 59.0800000  0  4G13G 6G11G 9
  20906585.351    20906587.204   -73613099.318 9  60967370.241 9
  21761230.271    21761230.559   -20632200.728 9  21230648.490 9
  21162619.795    21162620.553   -36353211.414 9   8987452.576 9
  20048157.596    20048158.025   -61027526.120 8  48650979.524 7
 88  3 22  6  2 29.0800000  0  4G13G 6G11G 9
  20899405.462    20899406.437   -73650831.267 9  60937968.734 8
  21777796.797    21777798.203   -20545143.410 9  21298485.338 8
  21171927.398    21171929.693   -36304299.717 9   9025565.584 8
  20049346.421    20049346.610   -61021279.280 8  48655847.182 7
 88  3 22  6  2 59.0800000  0  4G13G 6G11G 9
  20892311.667    20892313.340   -73688106.969 9  60908922.755 8
  21794448.623    21794448.898   -20457638.158 9  21366671.220 8
  21181290.446    21181291.033   -36255095.402 9   9063906.604 9
  20050655.833    20050655.968   -61014396.182 8  48661210.644 7
 88  3 22  6  3 29.0800000  0  4G13G 6G11G 9
  20885305.333    20885307.001   -73724926.317 9  60880232.374 9
  21811184.713    21811185.012   -20369686.869 9  21435204.664 8
  21190708.602    21190710.133   -36205600.879 9   9102473.770 9
  20052086.835    20052087.197   -61006876.219 8  48667070.340 7
 88  3 22  6  3 59.0800000  0  4G13G 6G11G 9
  20878385.668    20878386.738   -73761291.028 9  60851896.255 9
  21828005.760    21828007.450   -20281292.176 9  21504083.616 8
  21200183.057    21200183.207   -36155818.849 9   9141264.968 9
  20053638.684    20053639.228   -60998719.346 8  48673426.336 8
 88  3 22  6  4 29.0800000  0  4G13G 6G11G 9
  20871552.797    20871553.485   -73797201.106 9  60823914.391 9
  21844911.673    21844911.817   -20192455.439 9  21573307.022 8
  21209710.626    21209710.093   -36105751.048 9   9180278.836 9
  20055313.267    20055313.755   -60989924.209 8  48680279.667 7
 88  3 22  6  4 59.0800000  0  4G13G 6G11G 9
  20864805.005    20864805.648   -73832656.627 9  60796286.726 8
  21861899.849    21861900.324   -20103178.971 9  21642873.079 8
  21219291.386    21219293.240   -36055400.135 9   9219513.318 9
  20057108.549    20057108.458   -60980490.457 8  48687630.650 8
 88  3 22  6  5 29.0800000  0  4G13G 6G11G 9
  20858144.451    20858145.851   -73867657.701 9  60769013.171 9
  21878972.479    21878972.996   -20013464.451 9  21712780.466 8
  21228925.914    21228927.184   -36004767.970 9   9258966.968 8
  20059025.835    20059025.727   -60970417.081 8  48695480.029 7
 88  3 22  6  5 59.0800000  0  4G13G 6G11G 9
  20851569.953    20851571.043   -73902204.874 9  60742093.310 9
  21896127.559    21896128.090   -19923313.627 9  21783027.848 9
  21238615.149    21238614.502   -35953856.078 9   9298638.574 8
  20061064.941    20061065.108   -60959703.287 9  48703828.428 7
 88  3 22  6  6 29.0800000  0  4G13G 6G11G 9
  20845082.756    20845083.201   -73936298.980 9  60715526.497 9
  21913365.132    21913365.116   -19832729.161 9  21853613.129 9
  21248356.223    21248356.360   -35902667.698 9   9338525.627 8
  20063224.915    20063225.698   -60948349.073 8  48712675.859 8
 88  3 22  6  6 59.0800000  0  4G13G 6G11G 9
  20838679.663    20838682.100   -73969941.051 9  60689311.912 8
  21930684.034    21930685.766   -19741713.484 9  21924534.407 8
  21258147.912    21258148.699   -35851205.478 9   9378626.064 9
  20065508.177    20065506.828   -60936354.328 8  48722022.407 8
 88  3 22  6  7 29.0800000  0  4G13G 6G11G 9
  20832364.994    20832365.957   -74003129.949 9  60663450.458 9
  21948086.277    21948086.605   -19650267.278 9  21995791.172 8
  21267993.678    21267993.137   -35799470.102 9   9418939.342 8
  20067911.877    20067912.777   -60923717.235 7  48731869.483 7
 88  3 22  6  7 59.0800000  0  4G13G 6G11G 9
  20826135.672    20826136.597   -74035867.070 9  60637941.029 9
  21965568.763    21965570.609   -19558393.364 9  22067381.203 9
  21277890.694    21277889.678   -35747464.639 9   9459463.090 9
  20070439.319    20070438.489   -60910437.912 8  48742217.010 8
 88  3 22  6  8 29.0800000  0  4G13G 6G11G 9
  20819991.728    20819992.334   -74068153.063 8  60612783.120 8
  21983133.313    21983133.574   -19466093.767 9  22139302.950 8
  21287836.636    21287837.485   -35695191.039 9   9500195.764 9
  20073088.839    20073088.633   -60896515.950 9  48753065.281 8
 88  3 22  6  8 59.0800000  0  4G13G 6G11G 9
  20813933.807    20813934.492   -74099988.462 9  60587976.330 9
  22000777.081    22000778.240   -19373370.999 9  22211554.442 9
  21297834.761    21297836.293   -35642652.264 9   9541135.066 9
  20075860.941    20075859.799   -60881951.126 9  48764414.501 8
 88  3 22  6  9 29.0800000  0  4G13G 6G11G 9
  20807961.093    20807961.404   -74131374.236 9  60563519.895 7
  22018502.451    22018503.470   -19280227.074 9  22284134.110 9
  21307881.731    21307883.788   -35589850.465 9   9582279.324 8
  20078754.134    20078754.057   -60866743.117 8  48776264.875 7
 88  3 22  6  9 59.0800000  0  4G13G 6G11G 9
  20802074.323    20802074.995   -74162310.704 9  60539413.575 9
  22036306.537    22036308.257   -19186664.298 9  22357040.140 9
  21317979.957    21317981.576   -35536787.565 9   9623627.049 9
  20081769.741    20081770.080   -60850891.690 8  48788616.639 7
 88  3 22  6 10 29.0800000  0  4G13G 6G11G 9
  20796272.667    20796273.234   -74192798.795 9  60515656.641 9
  22054190.869    22054191.400   -19092685.040 9  22430270.694 9
  21328127.515    21328127.589   -35483466.031 9   9665176.303 9
  20084909.677    20084909.582   -60834396.538 9  48801470.004 8
 88  3 22  6 10 59.0800000  0  4G13G 6G11G 9
  20790556.069    20790556.702   -74222839.767 8  60492248.107 9
  22072152.428    22072153.533   -18998291.806 9  22503823.841 9
  21338322.712    21338324.176   -35429888.561 9   9706924.973 9
  20088169.877    20088170.548   -60817257.849 8  48814824.818 8
 88  3 22  6 11 29.0800000  0  4G13G 6G11G 9
  20784923.201    20784924.360   -74252432.865 9  60469188.565 8
  22090193.747    22090194.736   -18903485.734 9  22577698.662 9
  21348566.491    21348567.575   -35376056.205 9   9748872.263 9
  20091555.414    20091554.404   -60799474.181 9  48828682.224 8
 88  3 22  6 11 59.0800000  0  4G13G 6G11G 9
  20779377.906    20779378.924   -74281578.601 9  60446477.616 9
  22108313.194    22108314.497   -18808269.097 9  22651893.427 8
  21358858.229    21358859.499   -35321970.905 9   9791016.644 9
  20095061.513    20095061.841   -60781045.292 7  48843042.385 8
 88  3 22  6 12 29.0800000  0  4G13G 6G11G 9
  20773917.149    20773917.819   -74310279.001 9  60424113.689 8
  22126509.826    22126510.096   -18712645.119 9  22726405.601 8
  21369198.029    21369199.734   -35267636.363 9   9833355.247 9
  20098692.061    20098691.288   -60761972.130 8  48857904.580 8
 88  3 22  6 12 59.0800000  0  4G13G 6G11G 9
  20768539.516    20768540.261   -74338533.374 9  60402097.307 8
  22144783.181    22144784.083   -18616614.569 9  22801234.575 8
  21379585.037    21379586.358   -35213053.157 9   9875887.605 9
  20102444.472    20102442.984   -60742253.126 9  48873270.033 7
 88  3 22  6 13 29.0800000  0  4G13G 6G11G 9
  20763248.978    20763249.375   -74366342.051 9  60380428.231 9
  22163134.867    22163135.538   -18520179.898 9  22876378.439 9
  21390017.451    21390020.046   -35158223.821 9   9918611.758 9
  20106319.672    20106318.703   -60721888.228 8  48889138.767 7
 88  3 22  6 13 59.0800000  0  4G13G 6G11G 9
  20758041.717    20758041.215   -74393706.861 9  60359105.018 9
  22181561.788    22181562.664   -18423344.257 9  22951834.761 8
  21400499.170    21400499.409   -35103151.124 9   9961525.540 9
  20110317.121    20110316.214   -60700878.129 8  48905510.275 7
 88  3 22  6 14 29.0800000  0  4G13G 6G11G 9
  20752917.983    20752917.911   -74420628.605 9  60338127.056 9
  22200065.105    22200066.166   -18326109.660 9  23027601.959 9
  21411024.299    21411025.921   -35047837.198 9  10004627.308 9
                  20114439.325                    48922401.500 6
 88  3 22  6 14 59.0800000  0  4G13G 6G11G 9
  20747878.491    20747879.775   -74447107.643 9  60317494.054 8
  22218644.327    22218645.116   -18228478.447 9  23103678.221 9
  21421595.879    21421596.459   -34992284.233 8  10047915.325 9
  20118682.488    20118682.587   -60830921.127 9  48939771.480 7
 88  3 22  6 15 29.0800000  0  4G13G 6G11G 9
  20742924.162    20742924.877   -74473146.090 9  60297204.376 8
  22237297.440    22237298.300   -18130453.835 9  23180061.005 8
  21432211.926    21432213.311   -34936495.523 9  10091387.045 9
  20123050.070    20123048.140   -60807975.217 8  48957651.398 7
 88  3 22  6 15 59.0800000  0  4G13G 6G11G 9
  20738052.704    20738054.105   -74498743.657 9  60277258.221 9
  22256024.475    22256026.201   -18032037.542 9  23256749.001 9
  21442872.991    21442874.460   -34880471.954 9  10135041.771 9
  20127537.963    20127537.117   -60784383.805 9  48976034.324 8
 88  3 22  6 16 29.0800000  0  4G13G 6G11G 9
  20733265.639    20733268.051   -74523901.722 8  60257654.557 8
  22274827.227    22274827.830   -17933232.063 9  23333740.262 8
  21453578.500    21453579.726   -34824216.651 9  10178877.058 9
  20132150.448    20132148.674   -60760147.340 9  48994919.867 7
 88  3 22  6 16 59.0800000  0  4G13G 6G11G 9
  20728562.354    20728562.256   -74548620.045 9  60238393.533 9
  22293703.729    22293704.238   -17834038.674 9  23411033.796 9
  21464327.595    21464327.804   -34767730.252 9  10222892.440 8
  20136885.032    20136884.653   -60735264.677 8  49014308.946 7
 88  3 22  6 17 29.0800000  0  4G13G 6G11G 9
  20723941.237    20723941.982   -74572899.483 9  60219474.495 9
  22312652.263    22312654.053   -17734460.064 9  23488627.483 9
  21475118.958    21475120.341   -34711015.282 9  10267085.925 8
  20141743.344    20141741.908   -60709736.213 8  49034201.241 8
 88  3 22  6 17 59.0800000  0  4G13G 6G11G 9
  20719404.437    20719404.854   -74596741.619 9  60200896.219 8
  22331674.074    22331675.428   -17634499.231 9  23566519.015 9
  21485954.911    21485955.563   -34654074.889 9  10311455.064 9
  20146723.170    20146723.119   -60683562.748 8  49054596.155 7
 88  3 22  6 18 29.0800000  0  4G13G 6G11G 9
  20714950.899    20714952.139   -74620146.172 9  60182658.922 9
  22350769.298    22350769.499   -17534157.403 9  23644707.428 9
  21496833.044    21496835.974   -34596909.823 9  10355999.270 9
  20151827.176    20151826.375   -60656743.292 8  49075494.428 8
 88  3 22  6 18 59.0800000  0  4G13G 6G11G 9
  20710579.628    20710580.407   -74643115.561 9  60164760.722 8
  22369934.810    22369935.699   -17433438.485 9  23723189.688 9
  21507753.449    21507754.231   -34539523.915 9  10400715.563 9
  20157054.278    20157050.902   -60629279.399 8  49096894.848 6
 88  3 22  6 19 29.0800000  0  4G13G 6G11G 9
  20706292.248    20706291.810   -74665650.363 9  60147201.154 8
  22389172.553    22389173.191   -17332344.359 9  23801964.291 9
  21518715.751    21518717.420   -34481918.529 9  10445602.882 9
  20162401.934    20162402.187   -60601170.996 9  49118797.487 7
 88  3 22  6 19 59.0800000  0  4G13G 6G11G 9
  20702086.399    20702087.711   -74687751.002 9  60129979.884 9
  22408480.527    22408482.016   -17230876.923 9  23881029.806 9
  21529719.320    21529719.487   -34424095.367 9  10490659.893 8
  20167873.137    20167872.033   -60572417.505 8  49141202.813 7
 88  3 22  6 20 29.0800000  0  4G13G 6G11G 9
  20697963.853    20697963.197   -74709418.328 9  60113096.269 9
  22427860.218    22427861.437   -17129039.227 9  23960383.835 9
  21540763.012    21540765.153   -34366057.437 9  10535884.251 9
  20173468.309    20173467.210   -60543019.859 8  49164110.073 6
 88  3 22  6 20 59.0800000  0  4G13G 6G11G 9
  20693921.616    20693922.154   -74730653.855 9  60096549.114 8
  22447309.818    22447309.804   -17026833.911 9  24040024.321 9
  21551847.570    21551847.796   -34307806.873 9  10581274.307 9
  20179184.636    20179183.688   -60512978.805 8  49187518.674 7
 88  3 22  6 21 29.0800000  0  4G13G 6G11G 9
  20689963.472    20689963.213   -74751458.723 9  60080337.543 8
  22466827.700    22466829.362   -16924263.186 9  24119949.554 9
  21562973.283    21562974.051   -34249345.505 9  10626828.616 9
  20185023.647    20185023.860   -60482293.954 8  49211428.936 7
 88  3 22  6 21 59.0800000  0  4G13G 6G11G 9
  20686085.429    20686087.153   -74771833.508 9  60064461.091 9
  22486415.440    22486416.701   -16821329.916 9  24200157.278 9
  21574137.773    21574137.711   -34190675.816 9  10672545.264 8
  20190985.210    20190985.279   -60450966.379 9  49235840.019 6
 88  3 22  6 22 29.0800000  0  4G13G 6G11G 9
  20682290.438    20682291.815   -74791778.011 9  60048919.928 9
  22506071.885    22506072.252   -16718034.937 9  24280646.863 9
  21585341.413    21585341.337   -34131798.278 9  10718423.871 9
  20197069.069    20197068.857   -60418994.670 9  49260753.022 8
 88  3 22  6 22 59.0800000  0  4G13G 6G11G 9
  20678575.759    20678577.321   -74811294.009 9  60033712.676 8
  22525795.984    22525797.918   -16614381.897 9  24361415.450 9
  21596584.231    21596584.801   -34072716.064 9  10764461.964 9
  20203275.153    20203275.030   -60386380.440 9  49286166.702 8
 88  3 22  6 23 29.0800000  0  4G13G 6G11G 9
  20674943.854    20674945.332   -74830382.518 9  60018838.533 9
  22545588.474    22545589.592   -16510373.508 9  24442460.917 8
  21607866.257    21607867.112   -34013431.556 9  10810657.671 9
  20209604.056    20209602.370   -60353124.303 9  49312080.571 7
 88  3 22  6 23 59.0800000  0  4G13G 6G11G 9
  20671393.117    20671393.884   -74849044.146 9  60004297.006 9
  22565448.769    22565449.292   -16406011.547 9  24523781.913 8
  21619184.743    21619186.600   -33953946.177 9  10857009.901 9
  20216054.362    20216052.900   -60319225.949 9  49338494.848 7
 88  3 22  6 24 29.0800000  0  4G13G 6G11G 9
  20667922.240    20667923.341   -74867281.214 9  59990086.331 9
  22585374.097    22585375.087   -16301299.502 9  24605375.725 8
  21630541.806    21630542.990   -33894263.057 8  10903516.235 9
  20222627.378    20222626.545   -60284687.019 8  49365408.301 7
 88  3 22  6 24 59.0800000  0  4G13G 6G11G 9
  20664532.551    20664533.463   -74885094.539 9  59976205.831 9
  22605365.364    22605367.584   -16196239.804 9  24687240.416 9
  21641936.646    21641939.018   -33834384.234 9  10950175.049 8
  20229321.186    20229321.517   -60249507.643 8  49392820.800 8
 88  3 22  6 25 29.0800000  0  4G13G 6G11G 9
  20661223.366    20661224.033   -74902485.245 9  59962654.632 8
  22625424.055    22625425.279   -16090834.921 9  24769374.055 9
  21653368.233    21653369.816   -33774311.995 9  10996984.578 9
  20236137.914    20236136.161   -60213688.720 8  49420731.642 7
 88  3 22  6 25 59.0800000  0  4G13G 6G11G 9
  20657994.153    20657994.656   -74919452.964 9  59949433.046 9
  22645547.675    22645547.518   -15985086.433 9  24851775.469 9
  21664836.363    21664838.205   -33714047.382 9  11043944.003 9
  20243075.224    20243076.040   -60177229.272 8  49449141.577 8
 88  3 22  6 26 29.0800000  0  4G13G 6G11G 9
  20654845.408    20654846.461   -74935999.803 9  59936539.415 9
  22665735.756    22665736.552   -15878997.693 9  24934442.000 9
  21676339.064    21676341.307   -33653592.764 9  11091051.494 9
  20250135.728    20250135.470   -60140130.909 8  49478049.380 7
 88  3 22  6 26 59.0800000  0  4G13G 6G11G 9
  20651776.609    20651777.029   -74952127.265 8  59923972.577 9
  22685987.971    22685989.025   -15772571.681 9  25017371.328 9
  21687879.887    21687881.099   -33592950.718 9  11138305.025 9
  20257316.096    20257314.865   -60102395.006 9  49507453.965 8
 88  3 22  6 27 29.0800000  0  4G13G 6G11G 9
  20648787.015    20648788.553   -74967835.721 9  59911732.230 8
  22706303.205    22706305.174   -15665810.271 9  25100562.010 8
  21699455.366    21699456.492   -33532122.729 9  11185703.463 9
  20264617.885    20264617.424   -60064021.417 7  49537355.446 8
 88  3 22  6 27 59.0800000  0  4G13G 6G11G 9
  20645877.972    20645878.774   -74983126.779 9  59899817.139 9
  22726683.416    22726683.195   -15558716.685 9  25184011.537 9
  21711064.758    21711066.614   -33471111.435 9  11233244.726 9
  20272040.938    20272041.246   -60025011.071 8  49567753.110 7
 88  3 22  6 28 29.0800000  0  4G13G 6G11G 9
  20643047.307    20643048.460   -74998001.203 9  59888226.685 9
  22747125.336    22747125.924   -15451293.050 9  25267718.258 9
  21722710.925    21722711.249   -33409918.290 9  11280927.690 9
  20279585.554    20279586.571   -59985364.534 8  49598646.507 7
 88  3 22  6 28 59.0800000  0  4G13G 6G11G 9
  20640296.014    20640297.267   -75012460.254 9  59876959.883 8
  22767629.415    22767629.880   -15343541.614 9  25351680.406 9
  21734389.057    21734390.898   -33348545.181 9  11328750.887 9
  20287250.698    20287251.582   -59945082.250 8  49630035.293 8
 88  3 22  6 29 29.0800000  0  4G13G 6G11G 9
  20637622.846    20637623.725   -75026505.836 9  59866015.300 8
  22788195.224    22788197.222   -15235466.701 9  25435894.605 9
  21746101.731    21746103.058   -33286995.794 9  11376711.449 9
  20295036.522    20295038.682   -59904166.576 8  49661917.600 7
 88  3 22  6 29 59.0800000  0  4G13G 6G11G 9
  20635028.186    20635029.320   -75040138.590 9  59855392.381 9
  22808822.734    22808824.058   -15127069.464 9  25520359.939 9
  21757848.434    21757849.088   -33225270.938 9  11424808.742 9
  20302942.943    20302943.999   -59862616.797 8  49694294.043 8
 88  3 22  6 30 29.0800000  0  4G13G 6G11G 9
  20632512.703    20632513.290   -75053359.045 9  59845090.746 8
  22829511.280    22829511.681   -15018352.555 9  25605074.387 9
  21769626.617    21769627.557   -33163372.339 9  11473041.417 9
  20310970.389    20310972.486   -59820433.873 8  49727163.832 8
 88  3 22  6 30 59.0800000  0  4G13G 6G11G 9
  20630074.737    20630075.448   -75066168.967 9  59835108.998 9
  22850259.553    22850260.534   -14909318.929 9  25690035.650 9
  21781438.656    21781438.938   -33101302.437 9  11521407.564 9
  20319118.400    20319118.864   -59777618.742 8  49760526.252 7
 88  3 22  6 31 29.0800000  0  4G13G 6G11G 9
  20627715.806    20627715.927   -75078569.127 9  59825446.558 9
  22871066.792    22871069.112   -14799970.822 9  25775241.932 9
  21793282.603    21793282.815   -33039062.799 9  11569905.987 9
  20327386.091    20327385.599   -59734172.138 7  49794380.735 8
 88  3 22  6 31 59.0800000  0  4G13G 6G11G 9
  20625433.012    20625434.142   -75090562.138 9  59816101.352 8
  22891935.541    22891935.886   -14690311.937 9  25860690.393 9
  21805158.089    21805157.770   -32976656.549 9  11618534.243 9
  20335772.852    20335774.651   -59690096.066 8  49828725.715 8
 88  3 22  6 32 29.0800000  0  4G13G 6G11G 9
  20623228.636    20623229.050   -75102147.395 9  59807073.885 8
  22912860.546    22912861.856   -14580343.792 9  25946379.844 9
  21817064.711    21817064.721   -32914084.384 9  11667291.764 9
  20344281.056    20344281.237   -59645390.339 9  49863561.331 8
 88  3 22  6 32 59.0800000  0  4G13G 6G11G 9
  20621101.926    20621100.901   -75113326.314 9  59798363.060 9
  22933845.422    22933847.053   -14470069.187 9  26032308.072 9
  21829002.041    21829003.310   -32851348.181 9  11716177.122 9
  20352906.824    20352907.845   -59600055.697 9  49898887.000 8
 88  3 22  6 33 29.0800000  0  4G13G 6G11G 9
  20619050.636    20619050.994   -75124101.619 9  59789966.721 9
  22954888.156    22954888.543   -14359492.152 9  26118471.961 9
  21840972.281    21840972.950   -32788451.531 9  11765187.484 9
  20361653.739    20361654.199   -59554094.798 8  49934700.675 8
 88  3 22  6 33 59.0800000  0  4G13G 6G11G 9
  20617077.211    20617077.306   -75134473.838 9  59781884.485 9
  22975987.166    22975987.699   -14248614.433 9  26204870.172 9
  21852970.368    21852971.337   -32725395.635 9  11814321.928 9
  20370518.546    20370519.931   -59507507.622 8  49971002.347 9
 88  3 22  6 34 29.0800000  0  4G13G 6G11G 9
  20615179.869    20615180.728   -75144444.399 9  59774115.225 8
  22997142.972    22997145.184   -14137438.692 9  26291500.598 9
  21865000.021    21865001.805   -32662182.048 9  11863579.267 9
  20379502.781    20379504.034   -59460295.161 9  50007791.272 8
 88  3 22  6 34 59.0800000  0  4G13G 6G11G 9
  20613357.638    20613359.118   -75154014.067 9  59766658.351 9
  23018356.343    23018356.917   -14025967.487 9  26378361.236 9
  21877056.976    21877059.775   -32598812.688 9  11912957.977 8
  20388606.373    20388607.358   -59412458.545 9  50045066.536 8
 88  3 22  6 35 29.0800000  0  4G13G 6G11G 9
  20611612.866    20611613.916   -75163184.946 9  59759512.221 9
  23039622.723    23039624.820   -13914204.470 9  26465449.258 9
  21889146.411    21889147.995   -32535290.768 9  11962455.565 9
  20397827.169    20397828.490   -59363999.518 9  50082826.787 8
 88  3 22  6 35 59.0800000  0  4G13G 6G11G 9
  20609943.782    20609945.078   -75171957.934 8  59752676.150 9
  23060946.583    23060947.772   -13802151.460 9  26552763.281 9
  21901262.205    21901264.747   -32471617.093 9  12012071.401 9
  20407168.190    20407168.834   -59314918.550 8  50121071.687 9
 88  3 22  6 36 29.0800000  0  4G13G 6G11G 9
  20608350.319    20608350.976   -75180333.462 9  59746149.769 8
  23082325.003    23082325.068   -13689810.696 9  26640301.534 9
  21913407.476    21913409.375   -32407792.976 9  12061804.472 9
  20416625.739    20416625.826   -59265216.289 9  50159800.701 9
 88  3 22  6 36 59.0800000  0  4G13G 6G11G 9
  20606831.366    20606831.463   -75188313.248 8  59739931.769 8
  23103754.943    23103758.745   -13577185.499 9  26728061.405 9
  21925581.450    21925583.636   -32343820.943 9  12111652.805 9
  20426201.580    20426201.624   -59214894.529 9  50199012.454 8
 88  3 22  6 37 29.0800000  0  4G13G 6G11G 9
  20605388.357    20605388.661   -75195899.460 9  59734020.426 9
  23125240.725    23125242.788   -13464279.259 9  26816040.259 9
  21937782.413    21937784.126   -32279703.751 9  12161614.231 9
  20435895.748    20435895.945   -59163955.091 9  50238705.513 8
 88  3 22  6 37 59.0800000  0  4G13G 6G11G 9
  20604018.936    20604019.520   -75203093.382 9  59728414.787 8
  23146780.847    23146781.621   -13351094.379 8  26904236.244 9
  21950011.535    21950013.047   -32215442.935 8  12211687.597 9
  20445705.624    20445706.250   -59112399.016 9  50278879.049 8
 88  3 22  6 38 29.0800000  0  4G13G 6G11G 9
  20602723.598    20602725.176   -75209896.554 9  59723113.608 8
  23168371.847    23168372.169   -13237634.004 9  26992646.888 9
  21962266.644    21962268.427   -32151040.729 9  12261871.117 9
  20455633.987    20455634.359   -59060227.691 9  50319532.025 8
 88  3 22  6 38 59.0800000  0  4G13G 6G11G 9
  20601504.421    20601505.386   -75216308.671 9  59718117.167 9
  23190012.731    23190014.801   -13123899.743 9  27081270.944 8
  21974549.884    21974549.507   -32086497.939 9  12312164.205 9
  20465680.433    20465679.160   -59007441.501 9  50360664.119 8
 88  3 22  6 39 29.0800000  0  4G13G 6G11G 9
  20600357.976    20600357.923   -75222333.501 8  59713422.496 8
  23211706.112    23211708.402   -13009895.667 9  27170105.277 9
  21986856.819    21986858.489   -32021817.363 9  12362564.647 9
  20475840.222    20475840.966   -58954043.071 9  50402273.260 8
 88  3 22  6 39 59.0800000  0  4G13G 6G11G 9
  20599285.232    20599285.220   -75227970.916 9  59709029.717 8
  23233452.757    23233454.348   -12895623.817 9  27259148.268 9
  21999191.458    21999192.627   -31957000.515 9  12413071.271 9
  20486117.419    20486119.297   -58900032.891 9  50444359.076 8
 88  3 22  6 40 29.0800000  0  4G13G 6G11G 9
  20598285.045    20598286.826   -75233221.707 9  59704938.210 8
  23255251.039    23255251.733   -12781086.473 9  27348398.097 8
  22011551.223    22011552.320   -31892048.832 9  12463682.970 9
  20496512.169    20496512.456   -58845412.056 9  50486920.765 8
 88  3 22  6 40 59.0800000  0  4G13G 6G11G 9
  20597359.350    20597360.751   -75238088.638 9  59701145.801 9
  23277094.932    23277096.964   -12666287.391 9  27437851.891 9
  22023936.917    22023937.514   -31826965.275 9  12514397.431 9
  20507022.029    20507022.809   -58790182.746 9  50529956.563 8
 88  3 22  6 41 29.0800000  0  4G13G 6G11G 9
  20596505.367    20596507.080   -75242573.412 9  59697651.180 9
  23298987.295    23298991.216   -12551229.311 8  27527507.515 9
  22036346.135    22036347.490   -31761751.098 9  12565213.670 9
  20517647.740    20517646.942   -58734346.525 9  50573465.292 8
 88  3 22  6 41 59.0800000  0  4G13G 6G11G 9
  20595725.256    20595724.478   -75246676.247 9  59694454.169 8
  23320933.324    23320933.633   -12435914.286 9  27617363.363 9
  22048780.022    22048781.391   -31696407.541 9  12616130.729 9
  20528388.326    20528385.949   -58677904.015 9  50617446.461 7
 88  3 22  6 42 29.0800000  0  4G13G 6G11G 9
  20595017.045    20595017.549   -75250398.673 9  59691553.588 8
  23342925.423    23342926.669   -12320345.662 9  27707416.823 8
  22061239.207    22061240.491   -31630937.022 9  12667146.724 8
  20539243.088    20539243.392   -58620857.016 9  50661898.664 7
 88  3 22  6 42 59.0800000  0  4G13G 6G11G 9
  20594380.559    20594380.631   -75253743.610 9  59688947.143 8
  23364964.034    23364964.915   -12204527.283 9  27797664.913 9
  22073722.175    22073722.314   -31565342.478 9  12718259.336 9
  20550213.818    20550212.646   -58563208.484 9  50706819.583 7
 88  3 22  6 43 29.0800000  0  4G13G 6G11G 9
  20593815.085    20593816.058   -75256711.870 9  59686634.225 9
  23387051.310    23387050.795   -12088461.459 9  27888105.805 7
  22086228.038    22086228.477   -31499625.228 9  12769467.578 9
  20561298.747    20561298.016   -58504959.146 9  50752208.671 8
 88  3 22  6 43 59.0800000  0  4G13G 6G11G 9
  20593321.863    20593324.006   -75259302.857 9  59684615.279 8
  23409185.064    23409185.832   -11972148.539 9  27978739.265 8
  22098756.536    22098756.276   -31433784.806 9  12820771.818 8
  20572496.705    20572497.537   -58446108.287 9  50798066.455 8
 88  3 22  6 44 29.0800000  0  4G13G 6G11G 9
  20592900.884    20592902.092   -75261518.740 9  59682888.625 9
  23431365.083    23431367.160   -11855592.631 9  28069562.017 9
  22111307.273    22111309.416   -31367824.110 9  12872169.745 8
  20583808.830    20583809.353   -58386658.710 9  50844390.779 7
 88  3 22  6 44 59.0800000  0  4G13G 6G11G 9
  20592550.161    20592550.233   -75263363.834 9  59681450.905 9
  23453589.493    23453590.860   -11738799.085 9  28160569.926 9
  22123882.392    22123883.260   -31301747.505 9  12923658.002 9
  20595235.606    20595236.251   -58326614.628 9  50891178.377 7
 88  3 22  6 45 29.0800000  0  4G13G 6G11G 9
  20592268.907    20592270.573   -75264837.990 9  59680302.224 8
  23475861.242    23475860.700   -11621769.545 9  28251761.769 9
  22136478.630    22136479.070   -31235555.360 9  12975236.302 9
  20606775.692    20606773.482   -58265976.397 9  50938428.936 7
 88  3 22  6 45 59.0800000  0  4G13G 6G11G 9
  20592060.076    20592059.950   -75265941.453 9  59679442.376 9
  23498173.809    23498175.449   -11504504.931 9  28343136.766 9
  22149096.334    22149096.830   -31169247.490 9  13026904.781 9
  20618426.939    20618426.945   -58204743.713 9  50986142.677 8
 88  3 22  6 46 29.0800000  0  4G13G 6G11G 9
  20591920.150    20591920.182   -75266676.737 9  59678869.436 9
  23520533.355    23520534.350   -11387009.317 8  28434691.750 9
  22161735.185    22161736.111   -31102827.083 9  13078660.931 9
  20630191.187    20630191.686   -58142919.615 9  51034317.308 7
 88  3 22  6 46 59.0800000  0  4G13G 6G11G 9
  20591849.078    20591850.495   -75267045.866 9  59678581.812 8
  23542932.513    23542937.923   -11269286.466 8  28526423.799 9
  22174395.788    22174397.243   -31036296.768 9  13130502.731 9
  20642069.331    20642068.178   -58080506.649 9  51082950.762 7
 88  3 22  6 47 29.0800000  0  4G13G 6G11G 9
  20591848.531    20591848.503   -75267049.501 9  59678578.986 8
  23565379.945    23565381.662   -11151337.844 9  28618331.760 9
  22187076.880    22187077.548   -30969656.953 9  13182429.856 9
  20654057.233    20654058.238   -58017505.323 9  51132042.689 8
 88  3 22  6 47 59.0800000  0  4G13G 6G11G 9
  20591917.211    20591917.603   -75266689.456 9  59678859.554 9
  23587867.107    23587869.275   -11033167.060 9  28710412.853 9
  22199778.004    22199779.346   -30902910.163 9  13234440.339 8
  20666158.493    20666157.270   -57953918.007 8  51181591.222 8
 88  3 22  6 48 29.0800000  0  4G13G 6G11G 9
  20592054.225    20592054.754   -75265967.979 9  59679421.750 8
  23610394.375    23610397.182   -10914777.574 9  28802664.397 8
  22212499.335    22212500.360   -30836058.721 9  13286532.355 9
  20678368.558    20678369.351   -57889747.082 9  51231594.518 8
 88  3 22  6 48 59.0800000  0  4G13G 6G11G 9
  20592260.566    20592259.523   -75264885.604 9  59680265.180 8
  23632964.236    23632967.077   -10796171.080 9  28895085.007 8
  22225241.213    22225241.552   -30769102.995 9  13338705.635 9
  20690691.357    20690691.006   -57824993.444 9  51282051.883 9
 88  3 22  6 49 29.0800000  0  4G13G 6G11G 9
  20592535.090    20592535.215   -75263443.987 9  59681388.510 9
  23655576.288    23655577.691   -10677350.734 9  28987672.286 8
  22238002.094    22238003.120   -30702044.955 9  13390958.641 9
  20703124.229    20703123.707   -57759659.076 9  51332961.759 7
 88  3 22  6 49 59.0800000  0  4G13G 6G11G 9
  20592876.366    20592878.557   -75261644.819 9  59682790.460 8
  23678227.261    23678228.227   -10558319.551 9  29080423.828 9
  22250781.835    22250782.430   -30634886.682 9  13443289.745 9
  20715667.729    20715667.643   -57693745.958 9  51384322.599 8
 88  3 22  6 50 29.0800000  0  4G13G 6G11G 9
  20593287.769    20593287.338   -75259489.339 9  59684470.070 8
  23700917.870    23700920.132   -10439080.052 9  29173337.696 8
  22263581.151    22263582.261   -30567629.299 9  13495698.081 9
  20728319.358    20728319.376   -57627255.489 8  51436133.335 8
 88  3 22  6 50 59.0800000  0  4G13G 6G11G 9
  20593764.988    20593765.305   -75256978.927 9  59686426.239 8
  23723647.278    23723649.618   -10319635.334 9  29266411.502 8
  22276396.921    22276398.776   -30500274.890 9  13548182.030 8
  20741082.275    20741081.865   -57560189.945 9  51488392.189 8
 88  3 22  6 51 29.0800000  0  4G13G 6G11G 9
  20594309.424    20594310.877   -75254115.916 9  59688657.154 8
  23746415.707    23746417.025   -10199988.691 9  29359642.682 9
  22289232.380    22289234.237   -30432825.593 9  13600739.905 9
  20753952.927    20753952.598   -57492551.797 9  51541097.224 9
 88  3 22  6 51 59.0800000  0  4G13G 6G11G 9
  20594921.270    20594922.137   -75250902.562 9  59691161.073 8
  23769223.007    23769223.775   -10080143.709 9  29453028.364 8
  22302085.470    22302086.753   -30365283.708 9  13653369.934 9
  20766932.908    20766933.022   -57424343.425 9  51594246.577 8
 88  3 22  6 52 29.0800000  0  4G13G 6G11G 9
  20595598.550    20595600.416   -75247339.823 9  59693937.239 9
  23792068.429    23792066.612    -9960102.642 8  29546566.835 9
  22314955.759    22314957.257   -30297650.155 9  13706071.381 9
  20780020.340    20780020.708   -57355566.433 9  51647839.021 9
 88  3 22  6 52 59.0800000  0  4G13G 6G11G 9
  20596343.551    20596343.815   -75243428.592 9  59696984.963 9
  23814945.351    23814945.451    -9839867.328 8  29640256.627 8
  22327842.675    22327844.013   -30229925.492 9  13758843.845 8
  20793216.909    20793216.604   -57286221.593 9  51701873.934 8
 88  3 22  6 53 29.0800000  0  4G13G 6G11G 9
  20597153.413    20597154.594   -75239170.754 9  59700302.766 7
  23837860.197    23837864.299    -9719441.520 8  29734094.881 9
  22340747.907    22340748.831   -30162112.044 9  13811685.470 9
  20806519.476    20806520.139   -57216311.869 9  51756349.028 8
 88  3 22  6 53 59.0800000  0  4G13G 6G11G 9
  20598028.997    20598031.203   -75234568.020 9  59703889.333 9
  23860810.540    23860815.972    -9598827.843 8  29828079.484 9
  22353667.934    22353669.903   -30094211.433 9  13864595.014 9
  20819930.056    20819931.515   -57145839.119 9  51811262.838 7
 88  3 22  6 54 29.0800000  0  4G13G 6G11G 9
  20598970.633    20598971.422   -75229622.257 9  59707743.170 7
  23883802.114    23883801.393    -9478029.711 8  29922207.846 9
  22366605.819    22366607.259   -30026225.901 9  13917570.742 9
  20833447.558    20833448.347   -57074805.784 9  51866613.487 9
 88  3 22  6 54 59.0800000  0  4G13G 6G11G 9
  20599977.009    20599976.831   -75224335.504 9  59711862.719 8
  23906820.754    23906823.423    -9357050.181 9  30016477.564 9
  22379558.113    22379560.183   -29958156.957 9  13970611.469 9
  20847071.305    20847070.876   -57003214.176 9  51922399.136 7
 88  3 22  6 55 29.0800000  0  4G13G 6G11G 9
  20601047.896    20601048.425   -75218708.219 9  59716247.626 9
  23929876.669    23929879.998    -9235891.163 9  30110887.170 9
  22392526.828    22392529.049   -29890005.347 8  14023716.620 9
  20860800.834    20860800.676   -56931065.249 8  51978619.071 8
 88  3 22  6 55 59.0800000  0  4G13G 6G11G 9
  20602182.433    20602183.356   -75212743.333 9  59720895.583 9
  23952967.199    23952967.736    -9114556.414 8  30205433.687 9
  22405511.461    22405512.358   -29821773.438 9  14076884.323 9
  20874634.937    20874636.096   -56858362.293 9  52035270.685 8
 88  3 22  6 56 29.0800000  0  4G13G 6G11G 9
  20603381.663    20603381.789   -75206442.002 9  59725805.721 7
  23976088.806    23976090.991    -8993049.161 9  30300114.620 9
  22418511.863    22418512.324   -29753463.036 9  14130113.202 9
  20888574.866    20888575.672   -56785107.638 9  52092352.220 8
 88  3 22  6 56 59.0800000  0  4G13G 6G11G 9
  20604644.626    20604645.947   -75199805.003 9  59730977.424 8
  23999243.585    23999245.097    -8871371.619 9  30394928.272 9
  22431524.729    22431526.206   -29685075.066 9  14183402.527 9
  20902619.553    20902620.319   -56711302.721 9  52149862.531 8
 88  3 22  6 57 29.0800000  0  4G13G 6G11G 9
  20605970.841    20605972.036   -75192834.097 9  59736409.307 7
  24022430.701    24022431.968    -8749526.592 9  30489872.418 9
  22444552.833    22444553.645   -29616611.105 9  14236751.048 8
  20916769.316    20916768.838   -56636949.723 9  52207799.925 9
 88  3 22  6 57 59.0800000  0  4G13G 6G11G 9
  20607362.236    20607361.226   -75185530.489 9  59742100.449 8
  24045646.852    24045649.120    -8627516.609 9  30584945.127 9
  22457595.213    22457597.226   -29548071.993 9  14290158.143 9
  20931021.739    20931021.762   -56562050.518 9  52266162.938 9
 88  3 22  6 58 29.0800000  0  4G13G 6G11G 9
  20608813.833    20608815.133   -75177897.607 9  59748048.144 8
  24068896.127    24068898.438    -8505345.941 8  30680143.044 9
  22470652.143    22470653.611   -29479460.987 9  14343621.253 9
  20945377.280    20945377.567   -56486608.654 9  52324948.779 8
 88  3 22  6 58 59.0800000  0  4G13G 6G11G 9
  20610328.388    20610328.770   -75169937.095 9  59754251.158 9
  24092172.834    24092176.576    -8383017.477 8  30775463.937 8
  22483722.016    22483722.514   -29410779.367 9  14397139.390 9
  20959837.243    20959838.345   -56410626.282 9  52384155.799 8
 88  3 22  6 59 29.0800000  0  4G13G 6G11G 9
  20611905.607    20611905.648   -75161648.516 9  59760709.791 9
  24115481.505    24115481.843    -8260532.615 8  30870906.660 8
  22496805.139    22496806.259   -29342027.305 9  14450712.424 9
  20974398.915    20974398.380   -56334104.379 9  52443783.246 8
 88  3 22  6 59 59.0800000  0  4G13G 6G11G 9
  20613544.319    20613545.027   -75153034.376 9  59767422.118 9
  24138818.882    24138821.051    -8137895.026 8  30966468.402 8
  22509901.205    22509902.073   -29273206.894 9  14504338.713 9
  20989062.870    20989063.005   -56257045.751 9  52503828.918 8
 88  3 22  7  0 29.0800000  0  4G13G 6G11G 9
  20615245.300    20615246.823   -75144096.488 9  59774386.700 9
  24162187.352    24162186.189    -8015107.450 8  31062147.021 8
  22523008.582    22523010.553   -29204319.441 9  14558017.232 9
  21003827.421    21003827.115   -56179452.875 9  52564290.878 8
 88  3 22  7  0 59.0800000  0  4G13G 6G11G 9
  20617006.767    20617008.357   -75134837.395 9  59781601.591 8
  24185577.390    24185580.315    -7892173.624 7  31157939.554 9
  22536130.034    22536131.631   -29135367.408 9  14611746.077 9
  21018693.817    21018694.960   -56101328.749 9  52625166.798 8
 88  3 22  7  1 29.0800000  0  4G13G 6G11G 9
  20618829.825    20618829.977   -75125258.220 9  59789065.883 8
  24208997.003    24209002.317    -7769096.580 7  31253843.645 9
  22549264.556    22549265.554   -29066352.238 9  14665524.131 9
  21033661.052    21033661.192   -56022675.623 9  52686454.936 9
 88  3 22  7  1 59.0800000  0  4G13G 6G11G 9
  20620714.825    20620714.740   -75115360.074 9  59796778.736 9
  24232444.974    24232448.559    -7645878.320 7  31349857.817 9
  22562409.238    22562410.722   -28997274.212 9  14719351.142 9
  21048729.808    21048729.242   -55943494.995 9  52748154.108 8
 88  3 22  7  2 29.0800000  0  4G13G 3G11G 9
  20622657.849    20622658.087   -75105145.128 9  59804738.441 8
                  22981758.901  -115276588.673 9
  22575564.569    22575566.917   -28928135.431 9  14773225.497 9
  21063896.844    21063896.885   -55863789.753 9  52810262.078 8
 88  3 22  7  2 59.0800000  0  4G13G 3G11G 9
  20624662.295    20624663.378   -75094615.343 9  59812943.469 9
  22969480.328    22969482.753  -115341276.866 9 146242116.609 9
  22588733.110    22588734.940   -28858937.487 9  14827145.963 9
  21079163.531    21079163.079   -55783562.585 9  52872776.727 9
 88  3 22  7  3 29.0800000  0  4G13G 3G11G 9
  20626725.968    20626725.277   -75083771.598 9  59821393.146 9
  22957218.768    22957218.968  -115405718.155 9 146191902.645 8
  22601912.055    22601913.732   -28789681.529 8  14881111.637 9
  21094528.832    21094529.911   -55702815.338 9  52935696.646 9
 88  3 22  7  3 59.0800000  0  4G13G 3G11G 9
  20628848.366    20628847.961   -75072615.216 9  59830086.429 8
  22945001.794    22945003.440  -115469913.148 9 146141880.587 9
  22615102.555    22615103.290   -28720368.539 9  14935121.742 9
  21109993.804    21109993.972   -55621550.409 9  52999019.950 9
 88  3 22  7  4 29.0800000  0  4G13G 3G11G 9
  20631029.460    20631030.972   -75061149.246 9  59839020.954 7
  22932832.642    22932834.689  -115533863.049 9 146092049.516 9
  22628302.005    22628304.217   -28651001.060 9  14989174.292 8
  21125554.895    21125555.899   -55539771.193 9  53062744.001 8
 88  3 22  7  4 59.0800000  0  4G13G 3G11G 9
  20633270.781    20633270.590   -75049374.980 9  59848195.726 8
  22920710.768    22920711.691  -115597567.723 9 146042409.539 9
  22641512.524    22641514.908   -28581580.544 9  15043268.188 9
  21141215.520    21141214.696   -55457480.140 9  53126866.863 8
 88  3 22  7  5 29.0800000  0  4G13G 3G11G 9
  20635568.853    20635569.649   -75037293.596 9  59857609.791 8
  22908634.792    22908635.413  -115661026.275 9 145992961.340 9
  22654732.382    22654734.494   -28512107.575 9  15097402.953 9
  21156970.951    21156972.467   -55374678.881 9  53191387.319 8
 88  3 22  7  5 59.0800000  0  4G13G 3G11G 9
  20637926.608    20637928.406   -75024906.473 9  59867262.092 8
  22896606.241    22896606.421  -115724239.139 9 145943704.578 9
  22667963.127    22667964.012   -28442583.046 9  15151577.911 9
  21172824.039    21172825.364   -55291369.952 9  53256303.337 8
 88  3 22  7  6 29.0800000  0  4G13G 3G11G 9
  20640341.800    20640342.768   -75012215.874 9  59877150.868 8
  22884622.981    22884623.375  -115787207.288 9 145894638.506 9
  22681203.222    22681203.560   -28373008.920 9  15205791.500 9
  21188773.230    21188774.370   -55207556.279 9  53321612.673 9
 88  3 22  7  6 59.0800000  0  4G13G 3G11G 9
  20642813.928    20642815.425   -74999223.654 9  59887274.689 8
  22872687.906    22872689.287  -115849930.246 9 145845763.505 9
  22694452.152    22694452.634   -28303386.525 9  15260042.711 9
  21204818.372    21204819.521   -55123240.441 9  53387313.299 8
 88  3 22  7  7 29.0800000  0  4G13G 3G11G 9
  20645343.508    20645343.976   -74985932.247 9  59897631.631 8
  22860797.633    22860799.222  -115912408.984 8 145797078.813 8
  22707708.768    22707710.137   -28233718.011 9  15314329.853 9
  21220958.505    21220958.337   -55038425.735 9  53453402.673 8
 88  3 22  7  7 59.0800000  0  4G13G 3G11G 9
  20647928.979    20647930.248   -74972342.660 9  59908220.924 8
  22848954.996    22848955.318  -115974643.213 9 145748584.640 9
  22720975.760    22720976.579   -28164004.405 9  15368652.137 9
  21237192.808    21237191.874   -54953114.373 9  53519879.042 9
 88  3 22  7  8 29.0800000  0  4G13G 3G11G 9
  20650571.731    20650573.931   -74958455.050 9  59919042.440 8
  22837157.661    22837160.394  -116036631.978 8 145700281.723 9
  22734249.784    22734251.472   -28094245.978 9  15423009.352 8
  21253520.864    21253521.375   -54867308.149 9  53586741.018 7
 88  3 22  7  8 59.0800000  0  4G13G 3G11G 9
  20653270.302    20653271.442   -74944272.563 9  59930093.736 9
  22825409.716    22825410.238  -116098376.679 9 145652168.990 9
  22747532.509    22747533.353   -28024445.274 9  15477399.501 9
  21269942.144    21269942.740   -54781010.352 9  53653986.032 9
 88  3 22  7  9 29.0800000  0  4G13G 3G11G 9
  20656024.837    20656026.448   -74929798.445 9  59941372.264 8
  22813706.034    22813706.700  -116159878.345 8 145604245.636 9
  22760823.177    22760823.311   -27954604.319 9  15531821.004 9
  21286457.937    21286458.323   -54694224.963 9  53721611.000 8
 88  3 22  7  9 59.0800000  0  4G13G 3G11G 9
  20658834.548    20658836.032   -74915031.989 9  59952878.601 9
  22802049.203    22802049.395  -116221135.171 9 145556513.051 8
  22774120.885    22774121.939   -27884722.174 9  15586274.612 9
  21303065.426    21303066.725   -54606952.394 9  53789615.574 9
 88  3 22  7 10 29.0800000  0  4G13G 3G11G 9
  20661700.308    20661700.933   -74899974.738 9  59964611.540 9
  22790438.911    22790438.932  -116282147.169 9 145508971.262 8
  22787426.692    22787427.789   -27814800.487 9  15640759.053 9
  21319764.051    21319764.809   -54519195.141 9  53857997.838 8
 88  3 22  7 10 59.0800000  0  4G13G 3G11G 9
  20664620.257    20664621.211   -74884630.285 9  59976568.255 8
  22778874.401    22778875.524  -116342916.519 9 145461618.532 9
  22800739.539    22800740.405   -27744842.354 9  15695271.879 9
  21336555.164    21336555.790   -54430958.390 9  53926753.734 8
 88  3 22  7 11 29.0800000  0  4G13G 3G11G 9
  20667594.952    20667596.578   -74868999.477 9  59988748.119 8
  22767356.216    22767359.352  -116403442.981 8 145414455.070 7
  22814058.425    22814059.513   -27674847.945 9  15749812.968 9
  21353437.451    21353437.701   -54342243.563 9  53995882.167 8
 88  3 22  7 11 59.0800000  0  4G13G 3G11G 9
  20670623.651    20670623.576   -74853082.823 9  60001150.712 8
  22755884.775    22755886.406  -116463725.622 9 145367481.608 8
  22827384.245    22827386.044   -27604817.427 9  15804382.179 9
  21370409.896    21370410.053   -54253052.351 9  54065381.798 8
 88  3 22  7 12 29.0800000  0  4G13G 3G11G 9
  20673705.981    20673706.949   -74836883.013 9  60013773.943 8
  22744460.488    22744461.375  -116523765.453 9 145320697.338 8
  22840717.974    22840718.532   -27534753.373 9  15858977.529 9
  21387472.783    21387473.345   -54163388.261 9  54135249.906 8
 88  3 22  7 12 59.0800000  0  4G13G 3G11G 9
  20676842.471    20676843.411   -74820402.505 9  60026615.894 8
  22733080.625    22733082.614  -116583563.458 9 145274101.483 8
  22854056.476    22854057.645   -27464657.600 9  15913597.602 8
  21404623.900    21404624.676   -54073255.167 9  54205483.467 8
 88  3 22  7 13 29.0800000  0  4G13G 3G11G 9
  20680031.748    20680033.072   -74803642.343 9  60039675.774 9
  22721748.382    22721749.370  -116643119.280 9 145227694.376 7
  22867400.636    22867402.837   -27394530.888 9  15968241.764 8
  21421864.614    21421865.008   -53982654.960 9  54276081.006 8
 88  3 22  7 13 59.0800000  0  4G13G 3G11G 9
  20683274.283    20683274.535   -74786603.067 9  60052953.139 8
  22710460.805    22710461.299  -116702431.729 9 145181476.921 9
  22880752.196    22880752.777   -27324372.860 9  16022910.349 9
  21439193.977    21439194.215   -53891589.310 9  54347041.224 8
 88  3 22  7 14 29.0800000  0  4G13G 3G11G 9
  20686569.447    20686569.114   -74769288.000 9  60066445.394 8
  22699221.178    22699221.307  -116761502.505 9 145135447.756 8
  22894107.741    22894109.131   -27254185.805 9  16077601.561 9
  21456610.959    21456611.399   -53800062.285 9  54418360.985 9
 88  3 22  7 14 59.0800000  0  4G13G 3G11G 9
  20689916.840    20689917.208   -74751699.135 9  60080151.000 8
  22688025.774    22688026.060  -116820332.704 9 145089606.060 9
  22907469.232    22907469.936   -27183971.781 9  16132313.778 9
  21474115.546    21474116.368   -53708077.424 9  54490037.466 8
 88  3 22  7 15 29.0800000  0  4G13G 3G11G 9
  20693315.460    20693316.299   -74733837.126 9  60094069.446 9
  22676877.219    22676877.498  -116878921.519 9 145043952.447 9
  22920834.750    22920837.377   -27113730.712 9  16187047.064 9
  21491705.983    21491707.159   -53615635.858 9  54562069.840 8
 88  3 22  7 15 59.0800000  0  4G13G 3G11G 9
  20696764.935    20696766.563   -74715703.951 9  60108199.190 9
  22665773.401    22665773.909  -116937269.438 9 144998486.557 9
  22934206.766    22934208.532   -27043464.591 9  16241799.864 9
  21509383.690    21509383.708   -53522741.883 9  54634454.726 9
 88  3 22  7 16 29.0800000  0  4G13G 3G11G 9
  20700268.342    20700268.078   -74697300.964 9  60122539.190 9
  22654715.200    22654716.453  -116995376.256 9 144953208.537 8
  22947583.919    22947583.924   -26973173.907 9  16296571.812 9
  21527146.232    21527144.789   -53429397.523 9  54707190.594 8
 88  3 22  7 16 59.0800000  0  4G13G 3G11G 9
  20703819.942    20703820.795   -74678630.649 9  60137087.494 9
  22643704.486    22643705.073  -117053243.356 9 144908117.284 8
  22960963.464    22960964.315   -26902860.768 9  16351361.251 9
  21544995.076    21544993.640   -53335606.279 9  54780274.661 9
 88  3 22  7 17 29.0800000  0  4G13G 3G11G 9
  20707424.255    20707425.166   -74659694.107 9  60151843.251 8
  22632738.689    22632738.328  -117110870.528 9 144863213.006 7
  22974347.092    22974348.267   -26832525.745 9  16406167.750 9
  21562926.924    21562926.755   -53241370.511 9  54853705.134 8
 88  3 22  7 17 59.0800000  0  4G13G 3G11G 9
  20711078.781    20711079.220   -74640492.541 9  60166805.504 9
  22621817.861    22621818.141  -117168257.212 9 144818496.144 8
  22987735.880    22987736.540   -26762169.382 9  16460990.879 9
  21580943.347    21580944.130   -53146692.855 9  54927479.895 8
 88  3 22  7 18 29.0800000  0  4G13G 3G11G 9
  20714782.129    20714782.783   -74621027.777 8  60181972.856 8
  22610942.956    22610943.214  -117225403.972 9 144773966.234 9
  23001127.743    23001129.096   -26691792.994 9  16515829.612 9
  21599042.831    21599043.369   -53051576.373 9  55001596.622 8
 88  3 22  7 18 59.0800000  0  4G13G 3G11G 9
  20718535.889    20718537.030   -74601302.561 9  60197343.152 8
  22600114.676    22600115.635  -117282311.972 9 144729622.355 9
  23014524.291    23014524.110   -26621398.437 8  16570682.510 8
  21617227.047    21617228.247   -52956024.453 9  55076052.648 8
 88  3 22  7 19 29.0800000  0  4G13G 3G11G 9
  20722338.329    20722339.383   -74581318.087 9  60212915.482 8
  22589329.710    22589329.802  -117338981.279 9 144685464.466 9
  23027922.707    23027923.675   -26550986.380 9  16625549.035 9
  21635492.072    21635490.907   -52860039.715 9  55150845.955 8
 88  3 22  7 19 59.0800000  0  4G13G 3G11G 9
  20726190.335    20726190.703   -74561076.598 9  60228688.065 8
  22578591.112    22578591.641  -117395413.021 9 144641491.708 9
  23041324.071    23041325.245   -26480558.887 9  16680427.580 9
  21653838.573    21653839.459   -52763626.181 9  55225973.375 8
 88  3 22  7 20 29.0800000  0  4G13G 3G11G 9
  20730091.795    20730092.734   -74540578.648 9  60244660.500 8
  22567897.716    22567898.547  -117451606.080 9 144597704.949 8
  23054729.290    23054730.596   -26410115.561 9  16735318.461 9
  21672266.246    21672266.983   -52666785.301 9  55301433.770 8
 88  3 22  7 20 59.0800000  0  4G13G 3G11G 9
  20734039.244    20734040.984   -74519825.880 9  60260831.481 9
  22557250.634    22557251.472  -117507561.193 9 144554103.571 9
  23068137.600    23068138.481   -26339657.712 9  16790220.657 8
  21690775.831    21690776.196   -52569520.142 9  55377224.799 9
 88  3 22  7 21 29.0800000  0  4G13G 3G11G 9
  20738037.690    20738038.344   -74498820.068 9  60277199.648 9
  22546648.111    22546648.791  -117563278.682 9 144510687.374 9
  23081546.769    23081547.765   -26269186.369 8  16845133.375 9
  21709363.833    21709364.581   -52471833.837 9  55453343.964 8
 88  3 22  7 21 59.0800000  0  4G13G 3G11G 9
  20742083.086    20742083.811   -74477563.948 9  60293762.863 9
  22536089.523    22536090.423  -117618759.401 9 144467455.673 9
  23094960.295    23094960.963   -26198703.370 9  16900055.185 9
  21728032.050    21728033.631   -52373730.102 9  55529788.428 9
 88  3 22  7 22 29.0800000  0  4G13G 3G11G 9
  20746174.056    20746176.012   -74456059.230 9  60310519.794 8
  22525577.391    22525577.254  -117674004.803 9 144424407.334 8
  23108374.194    23108375.219   -26128210.216 9  16954984.897 9
  21746780.134    21746779.757   -52275212.454 9  55606555.397 9
 88  3 22  7 22 59.0800000  0  4G13G 3G11G 9
  20750314.707    20750313.514   -74434307.198 9  60327469.427 8
  22515109.951    22515110.081  -117729014.364 9 144381542.753 8
  23121789.945    23121791.034   -26057707.075 8  17009922.382 9
  21765607.148    21765606.151   -52176283.200 9  55683643.124 9
 88  3 22  7 23 29.0800000  0  4G13G 3G11G 9
  20754499.132    20754501.588   -74412308.966 9  60344610.900 9
  22504685.376    22504686.866  -117783787.945 9 144338862.050 8
  23135208.794    23135210.059   -25987194.609 9  17064867.142 9
  21784509.745    21784511.612   -52076944.968 9  55761049.509 9
 88  3 22  7 23 59.0800000  0  4G13G 3G11G 9
  20758731.605    20758733.275   -74390066.654 9  60361942.569 8
  22494306.871    22494308.716  -117838325.737 9 144296365.087 9
  23148628.756    23148630.447   -25916673.899 9  17119818.320 9
  21803489.795    21803491.336   -51977200.576 9  55838772.397 9
 88  3 22  7 24 29.0800000  0  4G13G 3G11G 9
  20763011.313    20763012.296   -74367581.161 9  60379463.735 8
  22483974.240    22483975.054  -117892628.296 9 144254051.435 9
  23162049.004    23162050.651   -25846145.833 9  17174775.245 9
  21822548.039    21822549.011   -51877053.382 9  55916809.146 9
 88  3 22  7 24 59.0800000  0  4G13G 3G11G 9
  20767336.068    20767336.363   -74344855.169 9  60397172.309 9
  22473685.308    22473685.587  -117946696.541 9 144211920.351 9
  23175472.057    23175472.358   -25775611.577 9  17229736.985 9
  21841681.112    21841681.260   -51776506.444 9  55995157.392 8
 88  3 22  7 25 29.0800000  0  4G13G 3G11G 9
  20771705.451    20771707.478   -74321890.377 9  60415066.951 8
  22463440.892    22463441.687  -118000530.943 9 144169971.483 9
  23188894.329    23188896.038   -25705072.124 9  17284702.765 8
  21860890.576    21860889.973   -51675563.338 9  56073814.347 8
 88  3 22  7 25 59.0800000  0  4G13G 3G11G 9
  20776120.925    20776122.094   -74298688.535 9  60433146.305 9
  22453241.551    22453241.988  -118054132.027 9 144128204.426 9
  23202318.259    23202320.371   -25634529.078 8  17339671.346 9
  21880173.877    21880174.474   -51574227.459 9  56152777.353 9
 88  3 22  7 26 29.0800000  0  4G13G 3G11G 9
  20780581.688    20780581.354   -74275250.200 9  60451409.945 8
  22443084.903    22443087.299  -118107499.483 9 144086619.417 9
  23215743.565    23215744.911   -25563982.549 9  17394642.635 9
  21899531.839    21899531.928   -51472500.520 9  56232045.084 8
 88  3 22  7 26 59.0800000  0  4G13G 3G11G 9
  20785086.952    20785086.375   -74251577.134 9  60469856.491 9
  22432975.022    22432975.115  -118160633.753 9 144045216.114 9
  23229168.384    23229169.967   -25493433.095 9  17449616.233 9
  21918963.513    21918964.163   -51370385.833 9  56311614.949 8
 88  3 22  7 27 29.0800000  0  4G13G 3G11G 9
  20789636.274    20789636.040   -74227671.866 9  60488483.975 8
  22422906.767    22422908.556  -118213536.070 9 144003993.534 9
  23242593.407    23242595.843   -25422882.747 9  17504590.519 9
  21938469.000    21938468.695   -51267887.251 9  56391483.958 9
 88  3 22  7 27 59.0800000  0  4G13G 3G11G 9
  20794228.237    20794227.803   -74203535.929 9  60507291.203 8
  22412884.825    22412884.925  -118266206.187 9 143962951.896 9
  23256019.064    23256020.451   -25352331.965 9  17559565.145 9
  21958045.653    21958046.573   -51165007.837 9  56471649.738 8
 88  3 22  7 28 29.0800000  0  4G13G 3G11G 9
  20798864.717    20798864.956   -74179171.068 9  60526276.796 8
  22402905.780    22402906.318  -118318645.221 9 143922090.318 8
  23269444.414    23269445.517   -25281781.932 9  17614539.174 9
  21977695.113    21977695.001   -51061750.805 9  56552109.732 9
 88  3 22  7 28 59.0800000  0  4G13G 3G11G 9
  20803544.340    20803544.921   -74154577.981 9  60545440.253 8
  22392970.702    22392972.012  -118370852.715 9 143881409.177 9
  23282868.893    23282870.714   -25211232.700 8  17669512.568 9
  21997415.538    21997416.210   -50958118.352 9  56632862.286 9
 88  3 22  7 29 29.0800000  0  4G13G 3G11G 9
  20808266.273    20808267.927   -74129759.252 9  60564779.524 9
  22383080.203    22383081.398  -118422830.352 9 143840907.134 9
  23296293.516    23296296.142   -25140686.142 8  17724483.878 9
  22017207.817    22017207.657   -50854114.678 9  56713904.103 9
 88  3 22  7 29 59.0800000  0  4G13G 3G11G 9
  20813032.837    20813032.804   -74104716.675 9  60584293.222 7
  22373232.030    22373233.484  -118474578.877 9 143800583.622 8
  23309718.248    23309719.745   -25070143.297 8  17779452.287 9
  22037067.337    22037069.009   -50749743.203 9  56795232.502 8
 88  3 22  7 30 29.0800000  0  4G13G 3G11G 9
  20817841.956    20817841.207   -74079450.884 9  60603980.859 9
  22363428.676    22363430.162  -118526097.433 9 143760439.310 9
  23323140.287    23323142.918   -24999603.817 9  17834418.086 9
  22056998.944    22056999.316   -50645006.083 9  56876845.837 8
 88  3 22  7 30 59.0800000  0  4G13G 3G11G 9
  20822691.157    20822691.252   -74053963.123 9  60623841.443 9
  22353669.027    22353670.809  -118577386.395 9 143720473.894 8
  23336564.166    23336565.387   -24929068.624 9  17889380.542 9
  22076998.823    22077000.085   -50539906.047 9  56958741.947 9
 88  3 22  7 31 29.0800000  0  4G13G 3G11G 9
  20827582.940    20827582.505   -74028256.282 9  60643872.750 8
  22343952.885    22343953.673  -118628446.723 9 143680686.655 9
  23349983.931    23349986.036   -24858539.302 9  17944338.443 9
  22097066.594    22097067.455   -50434447.232 9  57040917.641 9
 88  3 22  7 31 59.0800000  0  4G13G 3G11G 9
  20832516.288    20832516.686   -74002331.568 9  60664073.828 9
  22334279.724    22334280.425  -118679279.136 1 143641076.992 2
  23363404.982    23363406.189   -24788016.625 8  17999291.160 8
  22117202.383    22117203.835   -50328632.891 9  57123370.354 9
 88  3 22  7 32 29.0800000  0  4G13G 3G12G 9
  20837490.362    20837491.160   -73976191.077 9  60684443.041 8
  22324648.385    22324649.413  -118729884.292 9 143601644.411 9
                  20623039.546  -126005224.090 9
  22137406.095    22137406.557   -50222465.943 9  57206097.837 9
 88  3 22  7 32 59.0800000  0  4G13G 3G12G 9
  20842505.706    20842506.443   -73949836.401 9  60704979.142 8
  22315062.713    22315064.268  -118780262.652 8 143562388.565 8
  20626281.112    20626283.525  -125988307.191 9 159952818.842 9
  22157675.065    22157676.356   -50115949.733 9  57289097.474 9
 88  3 22  7 33 29.0800000  0  4G13G 3G12G 9
  20847560.869    20847560.739   -73923267.633 9  60725682.078 8
  22305519.432    22305520.182  -118830413.674 9 143523309.845 8
  20629622.974    20629625.181  -125970746.022 9 159966502.859 9
  22178009.942    22178010.188   -50009086.645 9  57372367.390 9
 88  3 22  7 33 59.0800000  0  4G13G 3G12G 9
  20852657.992    20852657.940   -73896487.273 9  60746549.897 9
  22296018.829    22296020.508  -118880338.234 9 143484407.607 9
  20633087.168    20633088.600  -125952541.301 9 159980688.345 8
  22198411.185    22198411.202   -49901880.049 9  57455904.987 9
 88  3 22  7 34 29.0800000  0  4G13G 3G12G 9
  20857793.265    20857793.683   -73869498.088 9  60767580.423 8
  22286561.194    22286562.105  -118930038.954 9 143445679.793 9
  20636674.536    20636674.344  -125933695.365 9 159995373.485 8
  22218876.221    22218876.980   -49794335.027 9  57539706.284 9
 88  3 22  7 34 59.0800000  0  4G13G 3G12G 9
  20862968.693    20862969.127   -73842301.524 9  60788772.563 9
  22277146.252    22277147.024  -118979515.135 9 143407126.954 9
  20640383.065    20640383.883  -125914206.811 9 160010559.359 9
  22239405.474    22239404.860   -49686453.925 9  57623769.446 9
 88  3 22  7 35 29.0800000  0  4G13G 3G12G 9
  20868183.450    20868184.159   -73814897.433 9  60810126.391 8
  22267774.390    22267773.775  -119028766.291 9 143368749.458 8
  20644214.220    20644214.942  -125894076.266 9 160026245.494 9
  22259998.458    22259998.460   -49578239.236 9  57708092.581 9
 88  3 22  7 35 59.0800000  0  4G13G 3G12G 9
  20873437.545    20873438.488   -73787288.240 9  60831640.057 8
  22258445.411    22258444.801  -119077793.451 9 143330546.487 8
  20648167.277    20648167.286  -125873303.421 9 160042432.119 8
  22280653.118    22280654.151   -49469694.159 9  57792673.131 9
 88  3 22  7 36 29.0800000  0  4G13G 3G12G 9
  20878730.515    20878730.142   -73759474.910 9  60853312.781 8
  22249158.122    22249158.477  -119126597.018 9 143292517.748 9
  20652241.599    20652242.462  -125851889.288 9 160059118.447 9
  22301371.195    22301371.271   -49360821.980 9  57877508.586 9
 88  3 22  7 36 59.0800000  0  4G13G 3G12G 9
  20884061.479    20884061.355   -73731460.199 9  60875142.434 9
  22239912.085    22239913.885  -119175178.169 9 143254662.328 8
  20656437.373    20656439.151  -125829834.671 9 160076303.835 8
  22322149.944    22322151.821   -49251626.405 8  57962596.015 9
 88  3 22  7 37 29.0800000  0  4G13G 3G12G 9
  20889430.129    20889430.777   -73703244.820 9  60897128.432 8
  22230711.066    22230710.887  -119223536.498 9 143216980.521 9
  20660757.502    20660757.776  -125807139.531 9 160093988.354 8
  22342990.593    22342990.840   -49142110.084 9  58047933.393 9
 88  3 22  7 37 59.0800000  0  4G13G 3G12G 9
  20894837.504    20894838.046   -73674831.544 9  60919268.660 9
  22221549.790    22221551.323  -119271673.840 9 143179470.915 9
  20665197.186    20665199.248  -125783805.648 8 160112170.589 9
  22363890.512    22363890.843   -49032277.571 9  58133517.161 9
 88  3 22  7 38 29.0800000  0  4G13G 3G12G 9
  20900281.643    20900282.271   -73646220.927 9  60941562.638 8
  22212431.865    22212433.110  -119319590.357 9 143142133.378 9
  20669758.215    20669760.258  -125759833.239 9 160130850.375 9
  22384849.959    22384852.008   -48922131.424 9  58219345.310 9
 88  3 22  7 38 59.0800000  0  4G13G 3G12G 9
  20905764.078    20905764.341   -73617413.438 9  60964010.038 8
  22203355.252    22203357.896  -119367285.582 9 143104968.289 9
  20674442.170    20674443.240  -125735221.828 9 160150028.080 9
  22405870.530    22405871.019   -48811673.744 9  58305416.212 8
 88  3 22  7 39 29.0800000  0  4G13G 3G12G 9
  20911282.745    20911282.754   -73588411.709 9  60986608.790 8
  22194321.548    22194323.665  -119414760.672 9 143067974.720 9
  20679247.360    20679247.964  -125709972.820 9 160169702.612 9
  22426948.199    22426948.989   -48700908.622 9  58391726.691 9
 88  3 22  7 39 59.0800000  0  4G13G 3G12G 9
  20916838.312    20916838.777   -73559217.764 9  61009357.312 8
  22185328.993    22185330.422  -119462017.333 9 143031151.376 8
  20684172.747    20684172.370  -125684087.946 9 160189872.629 9
  22448083.674    22448083.963   -48589840.292 9  58478273.427 9
 88  3 22  7 40 29.0800000  0  4G13G 3G12G 9
  20922430.052    20922431.407   -73529832.835 9  61032254.661 8
  22176378.178    22176378.706  -119509055.324 9 142994498.420 8
  20689219.775    20689219.371  -125657567.022 9 160210538.269 8
  22469276.332    22469276.749   -48478471.353 9  58565054.399 9
 88  3 22  7 40 59.0800000  0  4G13G 3G12G 9
  20928057.858    20928058.544   -73500257.885 9  61055300.081 8
  22167468.779    22167469.321  -119555874.517 9 142958015.952 8
  20694387.290    20694388.552  -125630409.913 9 160231699.651 9
  22490526.568    22490527.544   -48366804.417 9  58652067.587 9
 88  3 22  7 41 29.0800000  0  4G13G 3G12G 9
  20933721.602    20933723.436   -73470494.741 9  61078492.125 9
  22158600.915    22158601.486  -119602475.813 9 142921703.258 9
  20699675.877    20699677.120  -125602618.448 9 160253355.328 8
  22511832.125    22511833.258   -48254843.303 9  58739309.993 8
 88  3 22  7 41 59.0800000  0  4G13G 3G12G 9
  20939420.604    20939421.115   -73440545.062 9  61101829.544 8
  22149773.702    22149775.938  -119648859.980 9 142885559.758 8
  20705084.568    20705086.054  -125574193.426 9 160275504.682 9
  22533194.143    22533194.089   -48142591.313 9  58826779.062 9
 88  3 22  7 42 29.0800000  0  4G13G 3G12G 9
  20945154.997    20945155.702   -73410410.979 9  61125310.653 9
  22140987.821    22140988.749  -119695028.671 9 142849584.174 9
  20710613.573    20710614.993  -125545136.259 9 160298146.606 9
  22554608.019    22554608.837   -48030052.475 9  58914471.650 9
 88  3 22  7 42 59.0800000  0  4G13G 3G12G 9
  20950924.326    20950926.218   -73380092.799 9  61148935.194 8
  22132244.189    22132244.342  -119740981.219 9 142813777.001 9
  20716263.439    20716265.698  -125515446.816 9 160321281.226 9
  22576077.587    22576079.022   -47917229.121 9  59002385.936 9
 88  3 22  7 43 29.0800000  0  4G13G 3G12G 9
  20956728.827    20956729.341   -73349592.108 9  61172701.974 8
  22123541.158    22123541.736  -119786718.290 9 142778137.735 8
  20722034.643    20722035.387  -125485126.082 9 160344907.756 8
  22597599.843    22597602.006   -47804124.590 9  59090519.298 9
 88  3 22  7 43 59.0800000  0  4G13G 3G12G 9
  20962566.079    20962567.695   -73318911.538 9  61196608.912 9
  22114877.384    22114878.303  -119832241.044 9 142742665.460 9
  20727924.191    20727925.780  -125454175.565 9 160369025.047 8
  22619176.814    22619176.661   -47690742.507 9  59178868.955 9
 88  3 22  7 44 29.0800000  0  4G13G 3G12G 9
  20968438.715    20968440.387   -73288052.079 9  61220655.248 9
  22106255.457    22106257.002  -119877550.033 9 142707359.768 9
  20733933.406    20733933.764  -125422595.974 9 160393632.488 9
  22640804.071    22640805.704   -47577086.366 9  59267432.162 9
 88  3 22  7 44 59.0800000  0  4G13G 3G12G 9
  20974344.983    20974346.061   -73257013.844 9  61244840.875 9
  22097673.669    22097674.489  -119922644.584 9 142672221.182 9
  20740062.723    20740063.051  -125390387.261 9 160418730.175 9
  22662484.555    22662484.988   -47463158.312 9  59356207.255 9
 88  3 22  7 45 29.0800000  0  4G13G 3G12G 9
  20980285.736    20980286.124   -73225799.072 9  61269164.082 9
  22089133.626    22089134.456  -119967526.249 9 142637248.479 9
  20746310.914    20746312.368  -125357551.686 9 160444316.320 9
  22684215.438    22684217.128   -47348962.417 9  59445191.068 9
 88  3 22  7 45 59.0800000  0  4G13G 3G12G 9
  20986258.067    20986259.557   -73194410.158 9  61293622.964 9
  22080633.107    22080632.941  -120012196.097 9 142602440.823 9
  20752678.239    20752680.144  -125324090.735 9 160470389.789 9
  22705996.489    22705997.019   -47234502.657 9  59534380.442 8
 88  3 22  7 46 29.0800000  0  4G13G 3G12G 9
  20992264.070    20992265.557   -73162848.319 9  61318216.606 9
  22072173.297    22072174.354  -120056654.498 9 142567797.921 8
  20759164.150    20759166.398  -125290004.387 9 160496950.567 9
  22727828.049    22727827.594   -47119781.453 9  59623773.584 9
 88  3 22  7 46 59.0800000  0  4G13G 3G12G 9
  20998303.763    20998304.268   -73131114.328 9  61342944.399 8
  22063753.330    22063753.587  -120100901.546 9 142533319.727 9
  20765769.886    20765770.935  -125255293.713 9 160523997.836 9
  22749706.208    22749706.969   -47004802.498 9  59713367.567 8
 88  3 22  7 47 29.0800000  0  4G13G 3G12G 9
  21004374.324    21004375.530   -73099210.710 9  61367804.357 9
  22055372.723    22055373.615  -120144939.134 9 142499004.735 8
  20772493.173    20772494.436  -125219961.339 9 160551529.541 8
  22771633.933    22771635.911   -46889569.832 9  59803159.228 9
 88  3 22  7 47 59.0800000  0  4G13G 3G12G 9
  21010476.953    21010478.321   -73067138.803 9  61392795.451 9
  22047033.418    22047034.049  -120188767.681 9 142464852.623 9
  20779335.253    20779336.357  -125184008.061 9 160579545.076 8
  22793610.714    22793610.970   -46774086.848 9  59893145.948 9
 88  3 22  7 48 29.0800000  0  4G13G 3G12G 9
  21016612.209    21016612.494   -73034898.504 9  61417917.764 9
  22038732.224    22038732.795  -120232386.437 9 142430863.997 9
  20786295.241    20786296.233  -125147433.952 9 160608044.368 9
  22815634.048    22815634.115   -46658355.421 9  59983326.289 9
 88  3 22  7 48 59.0800000  0  4G13G 3G12G 9
  21022779.488    21022779.862   -73002491.140 9  61443170.251 8
  22030471.842    22030472.155  -120275796.216 9 142397038.222 8
  20793372.678    20793373.384  -125110239.582 9 160637026.975 9
  22837703.487    22837703.667   -46542378.670 9  60073697.780 9
 88  3 22  7 49 29.0800000  0  4G13G 3G12G 9
  21028977.194    21028978.653   -72969918.620 9  61468551.437 9
  22022250.528    22022251.337  -120318998.068 9 142363374.444 9
  20800568.111    20800569.201  -125072427.165 9 160666491.188 9
  22859818.867    22859819.805   -46426160.496 9  60164257.363 9
 88  3 22  7 49 59.0800000  0  4G13G 3G12G 9
  21035207.234    21035208.194   -72937183.503 9  61494059.314 9
  22014067.982    22014068.799  -120361993.406 9 142329871.607 9
  20807880.962    20807882.382  -125033999.319 9 160696434.952 9
  22881978.949    22881981.102   -46309705.087 9  60255001.823 8
 88  3 22  7 50 29.0800000  0  4G13G 3G12G 9
  21041466.727    21041467.725   -72904286.939 9  61519693.008 9
  22005925.900    22005926.370  -120404782.799 9 142296529.235 9
  20815310.436    20815311.612  -124994956.540 9 160726857.876 9
  22904184.333    22904185.878   -46193015.869 9  60345928.458 8
 88  3 22  7 50 59.0800000  0  4G13G 3G12G 9
  21047757.609    21047758.395   -72871230.124 9  61545451.566 9
  21997823.018    21997824.376  -120447366.767 9 142263346.933 8
  20822856.128    20822858.189  -124955299.954 9 160757759.104 9
  22926433.811    22926434.374   -46076095.704 9  60437035.044 8
 88  3 22  7 51 29.0800000  0  4G13G 3G12G 9
  21054078.352    21054079.799   -72838013.337 9  61571334.767 8
  21989760.081    21989759.042  -120489744.445 9 142230325.387 9
  20830519.983    20830521.691  -124915029.826 9 160789138.405 9
  22948726.992    22948727.192   -45958946.966 9  60528319.759 8
 88  3 22  7 51 59.0800000  0  4G13G 3G12G 9
  21060430.426    21060430.078   -72804638.807 9  61597340.897 9
  21981734.762    21981734.832  -120531917.727 9 142197463.105 8
  20838299.459    20838300.409  -124874148.983 9 160820993.601 8
  22971062.668    22971063.240   -45841573.891 9  60619779.292 9
 88  3 22  7 52 29.0800000  0  4G13G 3G12G 9
  21066810.265    21066810.868   -72771107.904 9  61623468.877 9
  21973747.349    21973746.952  -120573887.574 9 142164759.339 8
  20846194.784    20846195.918  -124832658.777 9 160853323.611 9
  22993439.714    22993440.766   -45723980.100 9  60711410.781 9
 88  3 22  7 52 59.0800000  0  4G13G 3G12G 9
  21073220.932    21073221.411   -72737422.165 9  61649717.495 9
  21965798.498    21965798.770  -120615654.190 9 142132213.932 9
  20854205.924    20854206.602  -124790560.907 9 160886127.139 9
  23015858.825    23015858.701   -45606168.787 9  60803211.779 8
 88  3 22  7 53 29.0800000  0  4G13G 3G12G 9
  21079660.658    21079659.709   -72703582.598 9  61676085.989 9
  21957890.142    21957889.997  -120657217.885 9 142099826.661 8
  20862332.341    20862332.973  -124747855.602 9 160919403.985 9
  23038316.227    23038318.002   -45488142.672 9  60895180.185 8
 88  3 22  7 53 59.0800000  0  4G13G 3G12G 9
  21086127.383    21086128.878   -72669590.222 9  61702573.553 8
  21950019.507    21950019.606  -120698579.660 9 142067596.733 8
  20870574.203    20870576.251  -124704544.964 9 160953152.526 8
  23060817.910    23060817.461   -45369905.359 9  60987313.135 9
 88  3 22  7 54 29.0800000  0  4G13G 3G12G 9
  21092625.646    21092626.491   -72635447.533 9  61729178.232 9
  21942185.423    21942186.809  -120739740.769 9 142035523.159 9
  20878930.826    20878931.115  -124660631.331 9 160987370.928 9
  23083356.993    23083358.010   -45251460.737 9  61079607.618 9
 88  3 22  7 54 59.0800000  0  4G13G 3G12G 9
  21099152.217    21099152.084   -72601155.728 9  61755899.127 9
  21934391.085    21934392.600  -120780701.341 9 142003605.842 8
  20887401.806    20887402.942  -124616115.669 9 161022058.441 9
  23105935.520    23105935.454   -45132812.180 9  61172061.019 9
 88  3 22  7 55 29.0800000  0  4G13G 3G12G 9
  21105705.386    21105706.908   -72566713.663 9  61782737.111 9
  21926634.947    21926636.724  -120821460.602 9 141971845.397 8
  20895987.062    20895988.482  -124570998.039 9 161057215.016 8
  23128551.930    23128552.191   -45013961.008 9  61264672.329 8
 88  3 22  7 55 59.0800000  0  4G13G 3G12G 9
  21112287.340    21112288.398   -72532124.274 9  61809689.882 8
  21918917.208    21918916.597  -120862020.852 9 141940240.018 8
  20904685.417    20904688.111  -124525281.622 9 161092838.190 9
  23151205.209    23151205.838   -44894911.945 9  61357437.800 8
 88  3 22  7 56 29.0800000  0  4G13G 3G12G 9
  21118897.918    21118898.338   -72497389.438 9  61836755.989 8
  21911237.048    21911236.453  -120902382.954 9 141908789.051 9
  20913500.304    20913500.282  -124478968.127 9 161128926.604 8
  23173897.425    23173898.080   -44775668.669 9  61450354.611 9
 88  3 22  7 56 59.0800000  0  4G13G 3G12G 9
  21125534.636    21125534.732   -72462510.073 9  61863934.711 8
  21903593.969    21903592.753  -120942547.313 9 141877492.150 8
  20922426.349    20922427.625  -124432059.015 9 161165479.159 9
  23196624.461    23196625.572   -44656234.762 9  61543419.977 8
 88  3 22  7 57 29.0800000  0  4G13G 3G12G 9
  21132199.446    21132199.619   -72427488.904 9  61891223.923 8
  21895987.212    21895988.898  -120982515.920 9 141846347.784 8
  20931465.432    20931466.638  -124384557.457 9 161202493.334 9
  23219387.671    23219388.228   -44536614.553 9  61636630.530 8
 88  3 22  7 57 59.0800000  0  4G13G 3G12G 9
  21138890.579    21138890.992   -72392324.499 9  61918624.746 9
  21888419.405    21888420.486  -121022286.895 9 141815357.424 9
  20940617.817    20940618.709  -124336462.727 9 161239969.738 9
  23242186.507    23242186.727   -44416809.010 9  61729985.473 9
 88  3 22  7 58 29.0800000  0  4G13G 3G12G 9
  21145608.888    21145609.634   -72357018.567 9  61946135.869 9
  21880888.233    21880888.983  -121061860.514 9 141784520.864 9
  20949882.189    20949883.777  -124287776.431 9 161277907.097 9
  23265019.685    23265018.656   -44296821.301 9  61823482.365 9
 88  3 22  7 58 59.0800000  0  4G13G 3G12G 9
  21152353.927    21152355.439   -72321573.924 9  61973755.085 9
  21873395.381    21873394.817  -121101239.623 9 141753835.860 9
  20959258.911    20959260.101  -124238502.093 9 161316302.679 8
  23287885.488    23287886.246   -44176656.627 9  61917117.185 9
 88  3 22  7 59 29.0800000  0  4G13G 3G12G 9
  21159125.203    21159125.044   -72285991.720 9  62001481.479 8
  21865937.661    21865938.997  -121140425.026 9 141723301.782 8
  20968748.021    20968748.053  -124188641.969 9 161355154.711 8
  23310784.427    23310785.734   -44056318.459 9  62010887.159 8
 88  3 22  7 59 59.0800000  0  4G13G 3G12G 9
  21165921.777    21165922.871   -72250272.008 9  62029315.002 9
  21858518.382    21858519.156  -121179416.022 9 141692919.204 8
  20978347.425    20978347.715  -124138196.394 9 161394462.936 9
  23333717.843    23333718.257   -43935808.622 9  62104790.915 9
 88  3 22  8  0 29.0800000  0  4G13G 3G12G 9
  21172744.830    21172746.291   -72214416.432 9  62057254.418 9
  21851136.858    21851136.749  -121218213.740 9 141662687.225 8
  20988057.670    20988057.645  -124087167.786 9 161434225.475 8
  23356681.606    23356682.699   -43815131.009 9  62198825.409 9
 88  3 22  8  0 59.0800000  0  4G13G 3G12G 9
  21179594.915    21179594.848   -72178426.410 9  62085298.597 9
  21843789.702    21843790.496  -121256819.267 9 141632605.003 8
  20997878.206    20997878.968  -124035557.849 9 161474440.998 9
  23379676.785    23379677.867   -43694289.379 9  62292987.705 9
 88  3 22  8  1 29.0800000  0  4G13G 3G12G 9
  21186468.261    21186468.841   -72142302.921 9  62113446.773 9
  21836479.871    21836479.714  -121295232.108 9 141602672.931 9
  21007808.869    21007810.563  -123983367.777 9 161515108.570 9
  23402701.734    23402703.713   -43573286.058 9  62387275.977 9
 88  3 22  8  1 59.0800000  0  4G13G 3G12G 9
  21193367.519    21193367.649   -72106047.345 9  62141697.874 9
  21829205.872    21829206.063  -121333454.587 9 141572889.181 8
  21017850.800    21017851.691  -123930601.017 9 161556225.517 9
  23425759.546    23425760.203   -43452125.652 9  62481686.659 9
 88  3 22  8  2 29.0800000  0  4G13G 3G12G 9
  21200291.835    21200292.777   -72069660.577 9  62170051.188 8
  21821968.869    21821969.168  -121371486.323 9 141543254.058 8
  21028002.197    21028003.087  -123877258.201 9 161597791.334 9
  23448844.337    23448844.563   -43330810.716 8  62576217.756 9
 88  3 22  8  2 59.0800000  0  4G13G 3G12G 9
  21207239.571    21207240.153   -72033144.930 9  62198504.938 9
  21814768.029    21814767.852  -121409328.740 9 141513766.471 9
  21038262.000    21038263.876  -123823341.875 9 161639804.035 9
  23471956.920    23471959.331   -43209344.990 8  62670866.341 9
 88  3 22  8  3 29.0800000  0  4G13G 3G12G 9
  21214213.144    21214213.086   -71996500.362 9  62227059.161 8
  21807601.515    21807602.817  -121446981.831 9 141484426.422 8
  21048631.155    21048631.898  -123768853.721 9 161682262.335 8
  23495101.082    23495101.950   -43087731.269 9  62765630.264 9
 88  3 22  8  3 59.0800000  0  4G13G 3G12G 9
  21221211.513    21221211.560   -71959728.891 9  62255712.251 8
  21800473.639    21800473.668  -121484446.963 9 141455232.821 9
  21059107.424    21059109.230  -123713796.400 9 161725164.128 8
  23518270.836    23518271.929   -42965973.712 9  62860506.249 8
 88  3 22  8  4 29.0800000  0  4G13G 3G12G 9
  21228231.882    21228233.183   -71922830.252 9  62284464.431 8
  21793379.897    21793380.260  -121521723.932 9 141426185.853 8
  21069692.945    21069693.506  -123658171.588 9 161768508.111 8
  23541467.383    23541468.324   -42844074.703 9  62955492.472 8
 88  3 22  8  4 59.0800000  0  4G13G 3G12G 9
  21235277.935    21235277.895   -71885807.029 9  62313313.698 9
  21786321.443    21786321.277  -121558813.962 9 141397284.550 9
  21080385.391    21080386.340  -123601981.482 9 161812292.600 9
  23564690.710    23564690.382   -42722037.918 9  63050586.065 8
 88  3 22  8  5 29.0800000  0  4G13G 3G12G 9
  21242346.506    21242346.426   -71848660.595 9  62342258.968 9
  21779298.709    21779299.466  -121595718.336 9 141368527.899 8
  21091184.599    21091186.049  -123545228.519 9 161856515.684 9
                  23587939.037                    63145774.387 5
 88  3 22  8  5 59.0800000  0  4G13G 3G12G 9
  21249439.114    21249439.437   -71811390.199 9  62371300.828 9
  21772312.085    21772312.841  -121632436.042 9 141339916.698 9
  21102091.385    21102092.601  -123487913.317 9 161901176.872 9
                  23611213.115                    63241110.694 8
 88  3 22  8  6 29.0800000  0  4G13G 3G12G 9
  21256552.756    21256554.228   -71773997.940 9  62400437.642 9
  21765360.097    21765359.728  -121668968.528 9 141311449.831 8
  21113104.187    21113105.549  -123430039.207 9 161946273.552 9
  23634509.852    23634511.172   -42766547.082 9  63336511.116 9
 88  3 22  8  6 59.0800000  0  4G13G 3G12G 9
  21263692.212    21263693.192   -71736486.017 9  62429667.703 9
  21758443.032    21758442.628  -121705317.535 9 141283125.956 9
  21124223.464    21124224.597  -123371609.453 9 161991803.207 9
  23657836.263    23657827.629   -42643992.975 1  63432007.821 1
 88  3 22  8  7 29.0800000  0  4G13G 3G12G 9
  21270853.636    21270854.196   -71698853.894 9  62458991.449 8
  21751561.188    21751561.661  -121741482.268 9 141254945.653 9
  21135447.373    21135449.798  -123312623.690 9 162037766.110 9
  23681179.184    23681177.882   -42521316.780 1  63527599.651 1
 88  3 22  8  7 59.0800000  0  4G13G 3G12G 9
  21278036.674    21278037.041   -71661102.726 9  62488407.922 9
  21744713.331    21744715.019  -121777463.328 9 141226908.451 9
  21146778.047    21146780.201  -123253084.658 9 162084160.155 9
  23704543.464    23704541.069   -42398521.796 1  63623284.019 1
 88  3 22  8  8 29.0800000  0  4G13G 3G12G 9
  21285241.363    21285244.046   -71623235.608 9  62517914.753 9
  21737901.789    21737902.112  -121813263.438 9 141199012.289 9
  21158211.843    21158214.198  -123192996.350 9 162130982.193 9
  23727931.243    23727930.326   -42275613.413 1  63719056.774 1
 88  3 22  8  8 59.0800000  0  4G13G 3G12G 9
  21292471.895    21292472.918   -71585251.922 9  62547512.445 9
  21731123.022    21731123.744  -121848881.848 9 141171257.698 8
  21169751.224    21169752.866  -123132359.839 9 162178231.407 9
  23751341.549    23751340.616   -42152593.452 1  63814916.446 1
 88  3 22  8  9 29.0800000  0  4G13G 3G12G 9
  21299720.778    21299722.600   -71547152.977 9  62577199.932 9
  21724380.117    21724380.585  -121884319.066 9 141143644.296 9
  21181393.622    21181395.237  -123071177.587 9 162225905.855 9
  23774770.076    23774772.150   -42029465.185 1  63910860.499 1
 88  3 22  8  9 59.0800000  0  4G13G 3G12G 9
  21306992.284    21306993.546   -71508940.264 9  62606976.066 9
  21717670.439    21717671.031  -121919576.262 9 141116171.162 9
  21193140.172    21193141.486  -123009451.845 8 162274003.830 9
  23798221.784    23798223.818   -41906232.262 8  64006886.096 8
 88  3 22  8 10 29.0800000  0  4G13G 3G12G 9
  21314285.647    21314286.964   -71470613.790 9  62636840.844 8
  21710996.315    21710997.050  -121954652.999 9 141088838.648 9
  21204990.086    21204990.611  -122947184.099 9 162322524.136 9
  23821692.726    23821692.802   -41782897.137 9  64102991.352 9
 88  3 22  8 10 59.0800000  0  4G13G 3G12G 9
  21321600.539    21321601.910   -71432175.328 9  62666792.890 9
  21704354.121    21704355.579  -121989551.012 9 141061645.400 9
  21216940.132    21216942.106  -122884378.122 9 162371463.852 8
  23845180.663    23845181.419   -41659464.192 9  64199172.849 9
 88  3 22  8 11 29.0800000  0  4G13G 3G12G 9
  21328936.071    21328937.315   -71393626.305 9  62696831.066 8
  21697748.150    21697747.230  -122024271.171 9 141034590.747 9
  21228994.319    21228995.624  -122821035.889 9 162420821.426 8
  23868687.390    23868688.111   -41535936.516 9  64295428.128 8
 88  3 22  8 11 59.0800000  0  4G13G 3G12G 9
  21336293.368    21336294.369   -71354966.784 9  62726955.357 9
  21691174.405    21691175.276  -122058813.288 9 141007674.811 9
  21241149.615    21241150.759  -122757159.266 9 162470595.404 9
  23892210.615    23892212.824   -41412316.670 9  64391755.285 9
 88  3 22  8 12 29.0800000  0  4G13G 3G12G 9
  21343669.962    21343671.278   -71316198.803 9  62757164.183 8
  21684634.607    21684635.190  -122093179.165 9 140980896.226 9
  21253406.020    21253407.663  -122692751.268 9 162520783.435 9
  23915752.637    23915752.791   -41288609.094 9  64488150.806 8
 88  3 22  8 12 59.0800000  0  4G13G 3G12G 9
  21351067.672    21351068.815   -71277324.219 9  62787456.059 9
  21678128.857    21678129.099  -122127369.998 9 140954254.040 9
  21265762.932    21265764.340  -122627815.067 9 162571383.067 8
  23939308.796    23939309.556   -41164817.409 9  64584611.860 9
 88  3 22  8 13 29.0800000  0  4G13G 3G12G 9
  21358485.528    21358486.283   -71238341.154 9  62817832.473 9
  21671656.617    21671656.434  -122161383.496 9 140927750.022 9
  21278220.082    21278222.230  -122562350.423 9 162622394.477 8
  23962881.292    23962881.947   -41040942.092 9  64681138.059 8
 88  3 22  8 13 59.0800000  0  4G13G 3G12G 9
  21365924.479    21365925.105   -71199251.846 9  62848291.660 9
  21665216.686    21665217.236  -122195221.576 9 140901382.700 9
  21290777.521    21290778.970  -122496361.293 9 162673814.558 9
  23986469.671    23986470.803   -40916987.830 9  64777725.762 9
 88  3 22  8 14 29.0800000  0  4G13G 3G12G 9
  21373382.747    21373382.741   -71160058.246 9  62878832.130 8
  21658810.473    21658810.982  -122228885.999 9 140875150.696 8
  21303434.815    21303436.307  -122429851.286 9 162725640.522 8
  24010071.220    24010073.224   -40792958.924 9  64874371.667 8
 88  3 22  8 14 59.0800000  0  4G13G 3G12G 9
  21380861.106    21380862.161   -71120761.091 9  62909453.271 9
  21652437.250    21652437.173  -122262377.695 9 140849053.275 8
  21316190.225    21316191.401  -122362822.660 9 162777870.616 9
  24033686.929    24033686.949   -40668858.691 9  64971073.142 9
 88  3 22  8 15 29.0800000  0  4G13G 3G12G 9
  21388359.039    21388359.508   -71081360.611 9  62940154.938 9
  21646097.175    21646097.392  -122295696.309 9 140823090.738 8
  21329043.124    21329043.825  -122295277.126 9 162830503.489 8
  24057315.445    24057316.434   -40544689.350 9  65067828.432 9
 88  3 22  8 15 59.0800000  0  4G13G 3G12G 9
  21395875.288    21395875.955   -71041858.184 9  62970936.038 9
  21639789.494    21639789.720  -122328842.505 9 140797262.549 9
  21341993.649    21341996.500  -122227217.052 9 162883537.302 9
  24080958.010    24080958.425   -40420453.961 7  65164635.154 8
 88  3 22  8 16 29.0800000  0  4G13G 3G12G 9
  21403412.395    21403411.844   -71002253.770 9  63001796.620 9
  21633514.777    21633515.503  -122361816.669 9 140771568.409 8
  21355043.031    21355044.909  -122158644.795 9 162936970.210 9
  24104607.750    24104612.368   -40296155.756 7  65261490.856 9
 88  3 22  8 16 59.0800000  0  4G13G 3G12G 9
  21410967.625    21410968.362   -70962548.817 9  63032735.535 8
  21627272.553    21627273.290  -122394619.413 9 140746007.839 8
  21368188.823    21368191.273  -122089563.145 9 162990800.038 9
  24128274.572    24128276.072   -40171797.752 8  65358393.169 9
 88  3 22  8 17 29.0800000  0  4G13G 3G12G 9
  21418542.311    21418543.268   -70922745.080 8  63063751.423 6
  21621062.499    21621062.822  -122427252.383 9 140720579.552 9
  21381431.744    21381432.851  -122019975.817 9 163045023.913 9
  24151950.538    24151951.460   -40047384.511 9  65455338.477 9
 88  3 22  8 17 59.0800000  0  4G13G 3G12G 9
  21426135.460    21426137.052   -70882842.286 9  63094844.508 8
  21614885.412    21614886.909  -122459715.042 9 140695283.977 8
  21394768.473    21394770.276  -121949884.360 9 163099640.599 9
  24175634.294    24175636.122   -39922918.210 7  65552325.173 9
 88  3 22  8 18 29.0800000  0  4G13G 3G12G 9
  21433747.776    21433747.890   -70842841.957 9  63126013.600 9
  21608741.613    21608741.037  -122492009.114 9 140670119.778 9
  21408201.073    21408204.122  -121879291.506 8 163154647.988 9
  24199329.706    24199331.314   -39798402.509 9  65649350.368 9
 88  3 22  8 18 59.0800000  0  4G13G 3G12G 9
  21441376.733    21441378.644   -70802746.403 7  63157256.888 7
  21602626.754    21602626.493  -122524135.619 9 140645086.143 9
  21421730.068    21421732.558  -121808200.685 9 163210043.428 9
  24223032.980    24223033.255   -39673841.129 9  65746411.157 9
 88  3 22  8 19 29.0800000  0  4G13G 3G12G 9
  21449024.693    21449026.739   -70762554.280 7  63188575.418 6
  21596544.121    21596545.618  -122556094.120 9 140620183.417 9
  21435352.744    21435355.107  -121736613.260 9 163265825.807 9
  24246744.375    24246745.391   -39549236.005 9  65843506.013 9
 88  3 22  8 19 59.0800000  0  4G13G 3G12G 9
  21456691.704    21456692.062   -70722266.109 9  63219968.788 9
  21590495.231    21590496.236  -122587885.134 9 140595411.218 7
  21449069.881    21449070.742  -121664532.060 9 163321992.957 9
  24270463.744    24270464.034   -39424590.110 9  65940632.684 9
 88  3 22  8 20 29.0800000  0  4G13G 3G12G 9
  21464376.906    21464376.798   -70681884.780 9  63251434.767 9
  21584477.881    21584477.676  -122619510.644 9 140570767.975 8
  21462880.617    21462880.734  -121591961.268 9 163378541.595 8
  24294190.399    24294189.390   -39299908.661 9  66037787.021 8
 88  3 22  8 20 59.0800000  0  4G13G 3G12G 9
  21472078.775    21472078.717   -70641410.804 9  63282972.927 9
  21578490.195    21578490.980  -122650970.500 9 140546253.807 9
  21476780.832    21476783.973  -121518903.309 9 163435469.853 9
  24317922.166    24317925.684   -39175193.904 9  66134967.336 8
 88  3 22  8 21 29.0800000  0  4G13G 3G12G 9
  21479798.585    21479799.036   -70600843.563 9  63314583.768 8
  21572536.199    21572535.494  -122682264.640 9 140521868.766 8
  21490776.537    21490778.304  -121445359.363 9 163492776.799 9
  24341659.628    24341660.352   -39050447.762 9  66232172.146 9
 88  3 22  8 21 59.0800000  0  4G13G 3G12G 9
  21487535.733    21487536.426   -70560184.000 9  63346266.533 8
  21566612.460    21566612.682  -122713393.125 9 140497612.819 9
  21504863.372    21504865.774  -121371332.166 9 163550460.323 9
  24365404.356    24365405.128   -38925673.525 9  66329398.811 8
 88  3 22  8 22 29.0800000  0  4G13G 3G12G 9
  21495290.260    21495290.358   -70519434.513 9  63378019.385 9
  21560718.501    21560720.320  -122744358.912 9 140473483.636 9
  21519041.978    21519042.691  -121296826.639 9 163608516.568 8
  24389153.351    24389152.320   -38800876.492 8  66426643.269 8
 88  3 22  8 22 59.0800000  0  4G13G 3G12G 9
  21503061.521    21503060.974   -70478595.426 9  63409842.054 9
  21554857.258    21554858.908  -122775162.008 9 140449481.209 9
  21533310.197    21533311.602  -121221845.118 9 163666943.714 8
  24412902.680    24412905.814   -38676058.978 7  66523903.604 8
 88  3 22  8 23 29.0800000  0  4G13G 3G12G 9
  21510850.641    21510850.202   -70437667.110 9  63441734.244 9
  21549026.674    21549027.626  -122805802.203 9 140425605.744 8
  21547669.604    21547671.085  -121146389.680 9 163725740.150 9
  24436660.919    24436661.037   -38551223.479 9  66621177.949 9
 88  3 22  8 23 59.0800000  0  4G13G 3G12G 9
  21518655.876    21518655.399   -70396649.353 9  63473696.122 9
  21543226.352    21543227.170  -122836279.416 9 140401857.279 8
  21562117.690    21562118.713  -121070461.672 9 163784904.814 8
  24460416.422    24460418.411   -38426372.114 7  66718464.704 9
 88  3 22  8 24 29.0800000  0  4G13G 3G12G 9
  21526476.820    21526476.953   -70355544.398 9  63505725.953 9
  21537458.409    21537458.636  -122866595.821 9 140378234.116 8
  21576655.684    21576655.950  -120994065.697 9 163844434.137 8
  24484178.555    24484180.261   -38301509.773 8  66815760.042 9
 88  3 22  8 24 59.0800000  0  4G13G 3G12G 9
  21534314.570    21534315.767   -70314353.361 9  63537822.866 9
  21531719.538    21531721.227  -122896752.094 9 140354735.728 9
  21591280.710    21591282.079  -120917205.686 9 163904325.042 8
  24507942.503    24507942.346   -38176640.023 9  66913061.110 9
 88  3 22  8 25 29.0800000  0  4G13G 3G12G 9
  21542170.401    21542169.714   -70273076.203 9  63569986.889 9
  21526011.088    21526012.697  -122926748.043 9 140331362.274 9
  21605994.355    21605996.402  -120839883.015 9 163964576.464 9
  24531704.065    24531704.414   -38051765.245 9  67010366.073 9
 88  3 22  8 25 59.0800000  0  4G13G 3G12G 9
  21550041.711    21550041.338   -70231712.301 9  63602218.491 9
  21520334.587    21520333.832  -122956583.547 9 140308113.832 8
  21620796.076    21620798.163  -120762099.998 9 164025186.582 8
  24555466.719    24555467.232   -37926887.554 9  67107673.363 9
 88  3 22  8 26 29.0800000  0  4G13G 3G12G 9
  21557928.221    21557929.506   -70190264.973 9  63634515.110 9
  21514686.373    21514688.182  -122986260.818 9 140284988.682 8
  21635685.697    21635686.939  -120683861.217 9 164086151.853 8
  24579231.102    24579233.512   -37802011.787 9  67204979.115 9
 88  3 22  8 26 59.0800000  0  4G13G 3G12G 9
  21565831.760    21565832.489   -70148734.217 9  63666876.732 9
  21509069.645    21509070.467  -123015779.996 9 140261986.730 8
  21650660.532    21650661.603  -120605168.540 9 164147470.804 9
  24602991.275    24602994.366   -37677140.546 9  67302281.369 9
 88  3 22  8 27 29.0800000  0  4G13G 3G12G 9
  21573751.380    21573751.672   -70107119.760 9  63699303.579 9
  21503482.135    21503482.764  -123045141.042 9 140239108.005 8
  21665719.554    21665721.778  -120526024.634 9 164209141.360 8
  24626753.884    24626755.232   -37552276.061 9  67399578.333 9
 88  3 22  8 27 59.0800000  0  4G13G 3G12G 9
  21581685.743    21581686.397   -70065422.859 9  63731794.664 9
  21497924.363    21497926.239  -123074345.429 9 140216351.342 8
  21680866.090    21680868.807  -120446433.338 9 164271160.526 8
  24650512.334    24650514.587   -37427422.228 9  67496867.039 9
 88  3 22  8 28 29.0800000  0  4G13G 3G12G 9
  21589635.697    21589636.984   -70023644.437 9  63764349.279 9
  21492396.121    21492397.560  -123103393.606 9 140193716.417 8
  21696096.364    21696098.902  -120366397.304 9 164333526.245 8
  24674269.769    24674271.578   -37302582.059 9  67594145.050 9
 88  3 22  8 28 59.0800000  0  4G13G 3G12G 9
  21597600.423    21597601.887   -69981784.101 9  63796967.704 9
  21486900.175    21486900.255  -123132285.157 9 140171203.536 9
  21711410.566    21711412.953  -120285918.693 9 164396236.830 9
  24698020.335    24698022.233   -37177757.785 7  67691410.725 8
 88  3 22  8 29 29.0800000  0  4G13G 3G12G 9
  21605581.889    21605583.047   -69939843.422 9  63829648.750 9
  21481431.427    21481431.751  -123161020.897 9 140148812.057 8
  21726808.373    21726810.768  -120205000.539 9 164459289.897 9
  24721772.054    24721770.855   -37052952.994 6  67788661.142 8
 88  3 22  8 29 59.0800000  0  4G13G 3G12G 9
  21613578.754    21613578.982   -69897822.743 9  63862392.124 9
  21475992.934    21475993.368  -123189602.015 9 140126541.046 9
  21742291.175    21742292.150  -120123646.742 9 164522682.451 9
                  24745518.187   -36928171.142 5
 88  3 22  8 30 29.0800000  0  4G13G 3G12G 9
  21621589.149    21621591.208   -69855723.754 9  63895196.528 9
  21470581.884    21470583.352  -123218029.866 9 140104389.489 8
  21757854.337    21757856.132  -120041861.286 9 164586411.358 9
  24769251.073    24769255.128   -36803416.091 7  68009609.377 7
 88  3 22  8 30 59.0800000  0  4G13G 3G12G 9
  21629615.346    21629616.337   -69813546.748 9  63928061.713 9
  21465201.581    21465202.581  -123246303.877 9 140082357.798 9
  21773499.768    21773501.329  -119959646.084 9 164650475.137 9
  24792991.686    24792993.139   -36678690.042 8  68106798.496 8
 88  3 22  8 31 29.0800000  0  4G13G 3G12G 9
  21637655.597    21637656.567   -69771292.434 9  63960987.144 9
  21459850.835    21459851.143  -123274424.860 9 140060445.350 9
  21789225.341    21789227.179  -119877004.289 9 164714871.319 9
  24816721.881    24816723.131   -36553996.122 9  68203962.594 8
